<?xml version='1.0' encoding='UTF-8'?><gpx version="1.1" creator="JPX - https://github.com/jenetics/jpx" xmlns="http://www.topografix.com/GPX/1/1"><trk><trkseg><trkpt lat="43.4318497" lon="0.5828754"><ele>201.0</ele><time>2026-04-21T11:39:37.324Z</time></trkpt><trkpt lat="43.4318365" lon="0.5827858"><ele>201.0</ele><time>2026-04-21T11:39:41.347Z</time></trkpt><trkpt lat="43.4318216" lon="0.582688"><ele>201.0</ele><time>2026-04-21T11:39:45.348Z</time></trkpt><trkpt lat="43.4318109" lon="0.5825808"><ele>201.0</ele><time>2026-04-21T11:39:49.347Z</time></trkpt><trkpt lat="43.4318146" lon="0.5824712"><ele>201.0</ele><time>2026-04-21T11:39:52.348Z</time></trkpt><trkpt lat="43.4318133" lon="0.5823546"><ele>201.0</ele><time>2026-04-21T11:39:55.347Z</time></trkpt><trkpt lat="43.431806" lon="0.5822668"><ele>201.0</ele><time>2026-04-21T11:39:57.348Z</time></trkpt><trkpt lat="43.4317979" lon="0.5821803"><ele>201.0</ele><time>2026-04-21T11:39:59.348Z</time></trkpt><trkpt lat="43.4317807" lon="0.5820727"><ele>201.0</ele><time>2026-04-21T11:40:02.347Z</time></trkpt><trkpt lat="43.4317337" lon="0.5819757"><ele>201.0</ele><time>2026-04-21T11:40:05.347Z</time></trkpt><trkpt lat="43.4316737" lon="0.5819416"><ele>201.0</ele><time>2026-04-21T11:40:07.347Z</time></trkpt><trkpt lat="43.4316086" lon="0.5819407"><ele>201.0</ele><time>2026-04-21T11:40:09.347Z</time></trkpt><trkpt lat="43.43154" lon="0.5819521"><ele>201.0</ele><time>2026-04-21T11:40:11.347Z</time></trkpt><trkpt lat="43.4314711" lon="0.5819538"><ele>201.0</ele><time>2026-04-21T11:40:13.348Z</time></trkpt><trkpt lat="43.4314044" lon="0.5819453"><ele>200.85714285714286</ele><time>2026-04-21T11:40:15.347Z</time></trkpt><trkpt lat="43.4313349" lon="0.5819364"><ele>200.71428571428572</ele><time>2026-04-21T11:40:17.347Z</time></trkpt><trkpt lat="43.4312658" lon="0.5819308"><ele>200.57142857142858</ele><time>2026-04-21T11:40:19.347Z</time></trkpt><trkpt lat="43.4311963" lon="0.581915"><ele>200.42857142857144</ele><time>2026-04-21T11:40:21.347Z</time></trkpt><trkpt lat="43.4311243" lon="0.5819013"><ele>200.28571428571428</ele><time>2026-04-21T11:40:23.347Z</time></trkpt><trkpt lat="43.4310546" lon="0.5818894"><ele>200.14285714285717</ele><time>2026-04-21T11:40:25.347Z</time></trkpt><trkpt lat="43.4309838" lon="0.5818788"><ele>200.0</ele><time>2026-04-21T11:40:27.347Z</time></trkpt><trkpt lat="43.4309114" lon="0.5818669"><ele>200.33333333333334</ele><time>2026-04-21T11:40:29.347Z</time></trkpt><trkpt lat="43.4308385" lon="0.5818586"><ele>200.66666666666669</ele><time>2026-04-21T11:40:31.348Z</time></trkpt><trkpt lat="43.4307639" lon="0.5818543"><ele>201.0</ele><time>2026-04-21T11:40:33.347Z</time></trkpt><trkpt lat="43.430687" lon="0.5818498"><ele>201.33333333333331</ele><time>2026-04-21T11:40:35.347Z</time></trkpt><trkpt lat="43.430609" lon="0.5818377"><ele>201.66666666666666</ele><time>2026-04-21T11:40:37.348Z</time></trkpt><trkpt lat="43.4305309" lon="0.5818096"><ele>202.0</ele><time>2026-04-21T11:40:39.348Z</time></trkpt><trkpt lat="43.4304494" lon="0.5817972"><ele>201.99999999999997</ele><time>2026-04-21T11:40:41.347Z</time></trkpt><trkpt lat="43.4303649" lon="0.5817623"><ele>202.0</ele><time>2026-04-21T11:40:43.348Z</time></trkpt><trkpt lat="43.4302855" lon="0.5817225"><ele>202.0</ele><time>2026-04-21T11:40:45.347Z</time></trkpt><trkpt lat="43.4302033" lon="0.5816958"><ele>202.0</ele><time>2026-04-21T11:40:47.347Z</time></trkpt><trkpt lat="43.4301189" lon="0.5816528"><ele>201.99999999999997</ele><time>2026-04-21T11:40:49.347Z</time></trkpt><trkpt lat="43.4300358" lon="0.5816291"><ele>202.0</ele><time>2026-04-21T11:40:51.348Z</time></trkpt><trkpt lat="43.429955" lon="0.5815904"><ele>201.99999999999997</ele><time>2026-04-21T11:40:53.347Z</time></trkpt><trkpt lat="43.4298798" lon="0.5815409"><ele>202.0</ele><time>2026-04-21T11:40:55.347Z</time></trkpt><trkpt lat="43.4298012" lon="0.581499"><ele>202.0</ele><time>2026-04-21T11:40:57.347Z</time></trkpt><trkpt lat="43.4297226" lon="0.5814618"><ele>202.0</ele><time>2026-04-21T11:40:59.347Z</time></trkpt><trkpt lat="43.4296448" lon="0.5814268"><ele>201.99999999999997</ele><time>2026-04-21T11:41:01.347Z</time></trkpt><trkpt lat="43.4295721" lon="0.5813945"><ele>202.0</ele><time>2026-04-21T11:41:03.348Z</time></trkpt><trkpt lat="43.4295092" lon="0.5813826"><ele>202.33333333333331</ele><time>2026-04-21T11:41:05.347Z</time></trkpt><trkpt lat="43.4294378" lon="0.5814339"><ele>202.66666666666666</ele><time>2026-04-21T11:41:08.347Z</time></trkpt><trkpt lat="43.4294028" lon="0.5815426"><ele>203.0</ele><time>2026-04-21T11:41:11.347Z</time></trkpt><trkpt lat="43.4293904" lon="0.5816309"><ele>203.33333333333331</ele><time>2026-04-21T11:41:13.348Z</time></trkpt><trkpt lat="43.4293885" lon="0.581737"><ele>203.66666666666666</ele><time>2026-04-21T11:41:15.348Z</time></trkpt><trkpt lat="43.4293893" lon="0.5818395"><ele>204.0</ele><time>2026-04-21T11:41:17.347Z</time></trkpt><trkpt lat="43.429382" lon="0.5819474"><ele>203.66666666666666</ele><time>2026-04-21T11:41:19.348Z</time></trkpt><trkpt lat="43.4293754" lon="0.5820545"><ele>203.33333333333331</ele><time>2026-04-21T11:41:21.347Z</time></trkpt><trkpt lat="43.4293693" lon="0.5821668"><ele>203.0</ele><time>2026-04-21T11:41:23.347Z</time></trkpt><trkpt lat="43.4293605" lon="0.582279"><ele>202.66666666666666</ele><time>2026-04-21T11:41:25.347Z</time></trkpt><trkpt lat="43.4293493" lon="0.5823954"><ele>202.33333333333331</ele><time>2026-04-21T11:41:27.347Z</time></trkpt><trkpt lat="43.4293387" lon="0.5825109"><ele>202.0</ele><time>2026-04-21T11:41:29.348Z</time></trkpt><trkpt lat="43.4293299" lon="0.5826274"><ele>201.99999999999997</ele><time>2026-04-21T11:41:31.347Z</time></trkpt><trkpt lat="43.429319" lon="0.5827465"><ele>202.0</ele><time>2026-04-21T11:41:33.347Z</time></trkpt><trkpt lat="43.4293094" lon="0.5828672"><ele>202.0</ele><time>2026-04-21T11:41:35.347Z</time></trkpt><trkpt lat="43.4292983" lon="0.582988"><ele>202.0</ele><time>2026-04-21T11:41:37.347Z</time></trkpt><trkpt lat="43.4292818" lon="0.5831114"><ele>201.99999999999997</ele><time>2026-04-21T11:41:39.347Z</time></trkpt><trkpt lat="43.4292663" lon="0.5832329"><ele>202.0</ele><time>2026-04-21T11:41:41.347Z</time></trkpt><trkpt lat="43.4292524" lon="0.583351"><ele>201.83333333333331</ele><time>2026-04-21T11:41:43.347Z</time></trkpt><trkpt lat="43.4292418" lon="0.5834762"><ele>201.66666666666666</ele><time>2026-04-21T11:41:45.347Z</time></trkpt><trkpt lat="43.4292299" lon="0.5835939"><ele>201.5</ele><time>2026-04-21T11:41:47.347Z</time></trkpt><trkpt lat="43.4292282" lon="0.5837141"><ele>201.33333333333331</ele><time>2026-04-21T11:41:49.347Z</time></trkpt><trkpt lat="43.4292182" lon="0.5838314"><ele>201.16666666666666</ele><time>2026-04-21T11:41:51.347Z</time></trkpt><trkpt lat="43.4292111" lon="0.5839483"><ele>201.0</ele><time>2026-04-21T11:41:53.347Z</time></trkpt><trkpt lat="43.4292015" lon="0.5840685"><ele>201.0</ele><time>2026-04-21T11:41:55.348Z</time></trkpt><trkpt lat="43.4291921" lon="0.5841967"><ele>201.0</ele><time>2026-04-21T11:41:57.348Z</time></trkpt><trkpt lat="43.429178" lon="0.5843196"><ele>201.0</ele><time>2026-04-21T11:41:59.348Z</time></trkpt><trkpt lat="43.4291659" lon="0.5844373"><ele>201.0</ele><time>2026-04-21T11:42:01.347Z</time></trkpt><trkpt lat="43.4291589" lon="0.584558"><ele>201.0</ele><time>2026-04-21T11:42:03.347Z</time></trkpt><trkpt lat="43.4291481" lon="0.5846787"><ele>201.0</ele><time>2026-04-21T11:42:05.347Z</time></trkpt><trkpt lat="43.4291396" lon="0.584796"><ele>200.60000000000002</ele><time>2026-04-21T11:42:07.347Z</time></trkpt><trkpt lat="43.4291282" lon="0.5849248"><ele>200.2</ele><time>2026-04-21T11:42:09.347Z</time></trkpt><trkpt lat="43.4291202" lon="0.5850485"><ele>199.8</ele><time>2026-04-21T11:42:11.347Z</time></trkpt><trkpt lat="43.4291104" lon="0.5851723"><ele>199.39999999999998</ele><time>2026-04-21T11:42:13.347Z</time></trkpt><trkpt lat="43.4290944" lon="0.5852938"><ele>199.0</ele><time>2026-04-21T11:42:15.347Z</time></trkpt><trkpt lat="43.4290755" lon="0.5854141"><ele>198.99999999999997</ele><time>2026-04-21T11:42:17.348Z</time></trkpt><trkpt lat="43.4290763" lon="0.5855385"><ele>199.0</ele><time>2026-04-21T11:42:19.347Z</time></trkpt><trkpt lat="43.429063" lon="0.585657"><ele>199.0</ele><time>2026-04-21T11:42:21.348Z</time></trkpt><trkpt lat="43.4290556" lon="0.585778"><ele>199.0</ele><time>2026-04-21T11:42:23.347Z</time></trkpt><trkpt lat="43.4290453" lon="0.5859021"><ele>198.99999999999997</ele><time>2026-04-21T11:42:25.347Z</time></trkpt><trkpt lat="43.4290302" lon="0.5860215"><ele>199.0</ele><time>2026-04-21T11:42:27.347Z</time></trkpt><trkpt lat="43.4290242" lon="0.5861404"><ele>199.16666666666666</ele><time>2026-04-21T11:42:29.347Z</time></trkpt><trkpt lat="43.4290116" lon="0.5862625"><ele>199.33333333333331</ele><time>2026-04-21T11:42:31.347Z</time></trkpt><trkpt lat="43.4290033" lon="0.586387"><ele>199.5</ele><time>2026-04-21T11:42:33.347Z</time></trkpt><trkpt lat="43.428991" lon="0.5865077"><ele>199.66666666666669</ele><time>2026-04-21T11:42:35.347Z</time></trkpt><trkpt lat="43.4289755" lon="0.5866233"><ele>199.83333333333334</ele><time>2026-04-21T11:42:37.347Z</time></trkpt><trkpt lat="43.4289662" lon="0.58674"><ele>200.0</ele><time>2026-04-21T11:42:39.348Z</time></trkpt><trkpt lat="43.4289545" lon="0.5868632"><ele>200.0</ele><time>2026-04-21T11:42:41.347Z</time></trkpt><trkpt lat="43.4289394" lon="0.5869835"><ele>200.0</ele><time>2026-04-21T11:42:43.347Z</time></trkpt><trkpt lat="43.4289339" lon="0.5871046"><ele>200.0</ele><time>2026-04-21T11:42:45.347Z</time></trkpt><trkpt lat="43.428919" lon="0.5872329"><ele>200.0</ele><time>2026-04-21T11:42:47.347Z</time></trkpt><trkpt lat="43.4289144" lon="0.5873598"><ele>200.0</ele><time>2026-04-21T11:42:49.347Z</time></trkpt><trkpt lat="43.4289091" lon="0.5874819"><ele>200.6</ele><time>2026-04-21T11:42:51.347Z</time></trkpt><trkpt lat="43.428897" lon="0.5876717"><ele>201.2</ele><time>2026-04-21T11:42:54.347Z</time></trkpt><trkpt lat="43.4288864" lon="0.5877906"><ele>201.8</ele><time>2026-04-21T11:42:56.347Z</time></trkpt><trkpt lat="43.4288647" lon="0.5879069"><ele>202.4</ele><time>2026-04-21T11:42:58.347Z</time></trkpt><trkpt lat="43.4288258" lon="0.5880116"><ele>203.0</ele><time>2026-04-21T11:43:00.347Z</time></trkpt><trkpt lat="43.4287493" lon="0.5880776"><ele>203.2</ele><time>2026-04-21T11:43:02.347Z</time></trkpt><trkpt lat="43.4286556" lon="0.5880954"><ele>203.4</ele><time>2026-04-21T11:43:04.347Z</time></trkpt><trkpt lat="43.4285542" lon="0.5881017"><ele>203.6</ele><time>2026-04-21T11:43:06.347Z</time></trkpt><trkpt lat="43.4284539" lon="0.588116"><ele>203.79999999999998</ele><time>2026-04-21T11:43:08.348Z</time></trkpt><trkpt lat="43.4283584" lon="0.5881343"><ele>204.0</ele><time>2026-04-21T11:43:10.347Z</time></trkpt><trkpt lat="43.4282625" lon="0.5881493"><ele>204.0</ele><time>2026-04-21T11:43:12.347Z</time></trkpt><trkpt lat="43.4281647" lon="0.5881634"><ele>204.0</ele><time>2026-04-21T11:43:14.347Z</time></trkpt><trkpt lat="43.4280687" lon="0.5881776"><ele>204.0</ele><time>2026-04-21T11:43:16.348Z</time></trkpt><trkpt lat="43.4279695" lon="0.5882007"><ele>204.0</ele><time>2026-04-21T11:43:18.347Z</time></trkpt><trkpt lat="43.4278715" lon="0.5882095"><ele>204.0</ele><time>2026-04-21T11:43:20.348Z</time></trkpt><trkpt lat="43.4277704" lon="0.5882174"><ele>204.6</ele><time>2026-04-21T11:43:22.347Z</time></trkpt><trkpt lat="43.4276744" lon="0.5882456"><ele>205.2</ele><time>2026-04-21T11:43:24.347Z</time></trkpt><trkpt lat="43.4275711" lon="0.5882688"><ele>205.79999999999998</ele><time>2026-04-21T11:43:26.347Z</time></trkpt><trkpt lat="43.4274815" lon="0.5882967"><ele>206.39999999999998</ele><time>2026-04-21T11:43:28.347Z</time></trkpt><trkpt lat="43.4273859" lon="0.5883144"><ele>207.0</ele><time>2026-04-21T11:43:30.347Z</time></trkpt><trkpt lat="43.4272956" lon="0.5883291"><ele>207.0</ele><time>2026-04-21T11:43:32.348Z</time></trkpt><trkpt lat="43.4271953" lon="0.5883427"><ele>207.0</ele><time>2026-04-21T11:43:34.347Z</time></trkpt><trkpt lat="43.4271028" lon="0.5883544"><ele>207.0</ele><time>2026-04-21T11:43:36.348Z</time></trkpt><trkpt lat="43.4270172" lon="0.5883731"><ele>207.0</ele><time>2026-04-21T11:43:38.347Z</time></trkpt><trkpt lat="43.4269198" lon="0.5883684"><ele>207.0</ele><time>2026-04-21T11:43:40.347Z</time></trkpt><trkpt lat="43.4268256" lon="0.5883719"><ele>207.2</ele><time>2026-04-21T11:43:42.347Z</time></trkpt><trkpt lat="43.4267358" lon="0.5884133"><ele>207.39999999999998</ele><time>2026-04-21T11:43:44.348Z</time></trkpt><trkpt lat="43.4266462" lon="0.5884411"><ele>207.60000000000002</ele><time>2026-04-21T11:43:46.347Z</time></trkpt><trkpt lat="43.4265585" lon="0.5884618"><ele>207.8</ele><time>2026-04-21T11:43:48.347Z</time></trkpt><trkpt lat="43.4264701" lon="0.5885063"><ele>208.0</ele><time>2026-04-21T11:43:50.347Z</time></trkpt><trkpt lat="43.4263819" lon="0.5885508"><ele>207.0</ele><time>2026-04-21T11:43:52.348Z</time></trkpt><trkpt lat="43.4262941" lon="0.5886006"><ele>206.0</ele><time>2026-04-21T11:43:54.347Z</time></trkpt><trkpt lat="43.4262088" lon="0.5886424"><ele>205.0</ele><time>2026-04-21T11:43:56.347Z</time></trkpt><trkpt lat="43.4261147" lon="0.5886829"><ele>204.0</ele><time>2026-04-21T11:43:58.348Z</time></trkpt><trkpt lat="43.4260303" lon="0.5887205"><ele>203.0</ele><time>2026-04-21T11:44:00.347Z</time></trkpt><trkpt lat="43.425938" lon="0.5887603"><ele>205.4</ele><time>2026-04-21T11:44:02.347Z</time></trkpt><trkpt lat="43.4258608" lon="0.5888127"><ele>207.8</ele><time>2026-04-21T11:44:04.347Z</time></trkpt><trkpt lat="43.4257761" lon="0.5888495"><ele>210.2</ele><time>2026-04-21T11:44:06.347Z</time></trkpt><trkpt lat="43.4256905" lon="0.5889022"><ele>212.6</ele><time>2026-04-21T11:44:08.348Z</time></trkpt><trkpt lat="43.4256003" lon="0.5889535"><ele>215.0</ele><time>2026-04-21T11:44:10.347Z</time></trkpt><trkpt lat="43.4255189" lon="0.5890063"><ele>213.6</ele><time>2026-04-21T11:44:12.347Z</time></trkpt><trkpt lat="43.4254339" lon="0.5890528"><ele>212.2</ele><time>2026-04-21T11:44:14.347Z</time></trkpt><trkpt lat="43.42535" lon="0.5891054"><ele>210.8</ele><time>2026-04-21T11:44:16.347Z</time></trkpt><trkpt lat="43.425257" lon="0.5891311"><ele>209.4</ele><time>2026-04-21T11:44:18.347Z</time></trkpt><trkpt lat="43.4251753" lon="0.5891764"><ele>208.0</ele><time>2026-04-21T11:44:20.347Z</time></trkpt><trkpt lat="43.4250887" lon="0.5892171"><ele>207.99999999999997</ele><time>2026-04-21T11:44:22.347Z</time></trkpt><trkpt lat="43.425004" lon="0.5892696"><ele>208.0</ele><time>2026-04-21T11:44:24.347Z</time></trkpt><trkpt lat="43.4249231" lon="0.589314"><ele>208.0</ele><time>2026-04-21T11:44:26.347Z</time></trkpt><trkpt lat="43.4248393" lon="0.5893497"><ele>208.0</ele><time>2026-04-21T11:44:28.347Z</time></trkpt><trkpt lat="43.4247528" lon="0.5893955"><ele>207.99999999999997</ele><time>2026-04-21T11:44:30.347Z</time></trkpt><trkpt lat="43.4246705" lon="0.5894326"><ele>208.0</ele><time>2026-04-21T11:44:32.347Z</time></trkpt><trkpt lat="43.4245853" lon="0.5894608"><ele>207.60000000000002</ele><time>2026-04-21T11:44:34.347Z</time></trkpt><trkpt lat="43.4245005" lon="0.5895047"><ele>207.20000000000002</ele><time>2026-04-21T11:44:36.347Z</time></trkpt><trkpt lat="43.4244093" lon="0.5895394"><ele>206.8</ele><time>2026-04-21T11:44:38.347Z</time></trkpt><trkpt lat="43.4243238" lon="0.5895774"><ele>206.4</ele><time>2026-04-21T11:44:40.347Z</time></trkpt><trkpt lat="43.424231" lon="0.5895993"><ele>206.0</ele><time>2026-04-21T11:44:42.347Z</time></trkpt><trkpt lat="43.4241444" lon="0.5896248"><ele>207.66666666666669</ele><time>2026-04-21T11:44:44.347Z</time></trkpt><trkpt lat="43.4240567" lon="0.5896581"><ele>209.33333333333334</ele><time>2026-04-21T11:44:46.347Z</time></trkpt><trkpt lat="43.4239802" lon="0.5896827"><ele>211.0</ele><time>2026-04-21T11:44:48.347Z</time></trkpt><trkpt lat="43.4239101" lon="0.5897153"><ele>212.66666666666669</ele><time>2026-04-21T11:44:50.348Z</time></trkpt><trkpt lat="43.423831" lon="0.5897427"><ele>214.33333333333334</ele><time>2026-04-21T11:44:52.348Z</time></trkpt><trkpt lat="43.4237564" lon="0.5897704"><ele>216.0</ele><time>2026-04-21T11:44:54.347Z</time></trkpt><trkpt lat="43.4236857" lon="0.5897998"><ele>216.0</ele><time>2026-04-21T11:44:56.347Z</time></trkpt><trkpt lat="43.4236182" lon="0.5898303"><ele>216.0</ele><time>2026-04-21T11:44:58.347Z</time></trkpt><trkpt lat="43.4235418" lon="0.5898571"><ele>216.0</ele><time>2026-04-21T11:45:00.348Z</time></trkpt><trkpt lat="43.4234724" lon="0.589884"><ele>216.0</ele><time>2026-04-21T11:45:02.347Z</time></trkpt><trkpt lat="43.4233917" lon="0.5899048"><ele>216.0</ele><time>2026-04-21T11:45:04.348Z</time></trkpt><trkpt lat="43.423301" lon="0.5899287"><ele>216.0</ele><time>2026-04-21T11:45:06.347Z</time></trkpt><trkpt lat="43.4232164" lon="0.5899667"><ele>216.0</ele><time>2026-04-21T11:45:08.347Z</time></trkpt><trkpt lat="43.4231269" lon="0.5899978"><ele>216.00000000000003</ele><time>2026-04-21T11:45:10.347Z</time></trkpt><trkpt lat="43.42304" lon="0.590027"><ele>216.00000000000003</ele><time>2026-04-21T11:45:12.347Z</time></trkpt><trkpt lat="43.4229519" lon="0.5900598"><ele>216.0</ele><time>2026-04-21T11:45:14.347Z</time></trkpt><trkpt lat="43.4228652" lon="0.5900975"><ele>216.0</ele><time>2026-04-21T11:45:16.347Z</time></trkpt><trkpt lat="43.422777" lon="0.5901351"><ele>215.20000000000002</ele><time>2026-04-21T11:45:18.347Z</time></trkpt><trkpt lat="43.4226848" lon="0.5901731"><ele>214.40000000000003</ele><time>2026-04-21T11:45:20.347Z</time></trkpt><trkpt lat="43.4225894" lon="0.5901925"><ele>213.6</ele><time>2026-04-21T11:45:22.347Z</time></trkpt><trkpt lat="43.4225017" lon="0.5902244"><ele>212.8</ele><time>2026-04-21T11:45:24.347Z</time></trkpt><trkpt lat="43.4224064" lon="0.5902441"><ele>212.0</ele><time>2026-04-21T11:45:26.347Z</time></trkpt><trkpt lat="43.4223235" lon="0.5902915"><ele>212.00000000000003</ele><time>2026-04-21T11:45:28.347Z</time></trkpt><trkpt lat="43.422245" lon="0.5903176"><ele>212.0</ele><time>2026-04-21T11:45:30.347Z</time></trkpt><trkpt lat="43.422158" lon="0.5903541"><ele>212.0</ele><time>2026-04-21T11:45:32.347Z</time></trkpt><trkpt lat="43.4220764" lon="0.5903808"><ele>212.0</ele><time>2026-04-21T11:45:34.347Z</time></trkpt><trkpt lat="43.4219886" lon="0.5903889"><ele>212.00000000000003</ele><time>2026-04-21T11:45:36.347Z</time></trkpt><trkpt lat="43.4219037" lon="0.5903983"><ele>212.0</ele><time>2026-04-21T11:45:38.347Z</time></trkpt><trkpt lat="43.4218154" lon="0.590375"><ele>211.6</ele><time>2026-04-21T11:45:40.347Z</time></trkpt><trkpt lat="43.4217147" lon="0.5903548"><ele>211.2</ele><time>2026-04-21T11:45:42.347Z</time></trkpt><trkpt lat="43.4216041" lon="0.5903109"><ele>210.8</ele><time>2026-04-21T11:45:44.347Z</time></trkpt><trkpt lat="43.4214827" lon="0.5902603"><ele>210.4</ele><time>2026-04-21T11:45:46.347Z</time></trkpt><trkpt lat="43.4214181" lon="0.5902291"><ele>210.0</ele><time>2026-04-21T11:45:47.348Z</time></trkpt><trkpt lat="43.4213517" lon="0.5901961"><ele>209.85714285714286</ele><time>2026-04-21T11:45:48.347Z</time></trkpt><trkpt lat="43.4212838" lon="0.5901669"><ele>209.71428571428572</ele><time>2026-04-21T11:45:49.347Z</time></trkpt><trkpt lat="43.4212117" lon="0.5901327"><ele>209.57142857142856</ele><time>2026-04-21T11:45:50.347Z</time></trkpt><trkpt lat="43.421143" lon="0.5901007"><ele>209.42857142857144</ele><time>2026-04-21T11:45:51.347Z</time></trkpt><trkpt lat="43.4210727" lon="0.590063"><ele>209.28571428571428</ele><time>2026-04-21T11:45:52.347Z</time></trkpt><trkpt lat="43.4210034" lon="0.590028"><ele>209.14285714285714</ele><time>2026-04-21T11:45:53.347Z</time></trkpt><trkpt lat="43.4209347" lon="0.5899943"><ele>209.0</ele><time>2026-04-21T11:45:54.348Z</time></trkpt><trkpt lat="43.4208672" lon="0.5899588"><ele>209.00000000000003</ele><time>2026-04-21T11:45:55.347Z</time></trkpt><trkpt lat="43.4207973" lon="0.589926"><ele>209.0</ele><time>2026-04-21T11:45:56.347Z</time></trkpt><trkpt lat="43.420731" lon="0.5898931"><ele>209.0</ele><time>2026-04-21T11:45:57.347Z</time></trkpt><trkpt lat="43.4206703" lon="0.5898555"><ele>209.0</ele><time>2026-04-21T11:45:58.347Z</time></trkpt><trkpt lat="43.4206079" lon="0.5898265"><ele>209.00000000000003</ele><time>2026-04-21T11:45:59.347Z</time></trkpt><trkpt lat="43.4205444" lon="0.5897923"><ele>209.0</ele><time>2026-04-21T11:46:00.347Z</time></trkpt><trkpt lat="43.4204256" lon="0.5897348"><ele>209.2</ele><time>2026-04-21T11:46:02.347Z</time></trkpt><trkpt lat="43.4203149" lon="0.5896857"><ele>209.39999999999998</ele><time>2026-04-21T11:46:04.347Z</time></trkpt><trkpt lat="43.4202044" lon="0.5896262"><ele>209.6</ele><time>2026-04-21T11:46:06.347Z</time></trkpt><trkpt lat="43.4201058" lon="0.5895809"><ele>209.8</ele><time>2026-04-21T11:46:08.347Z</time></trkpt><trkpt lat="43.4200172" lon="0.5895258"><ele>210.0</ele><time>2026-04-21T11:46:10.347Z</time></trkpt><trkpt lat="43.4199269" lon="0.5894837"><ele>210.0</ele><time>2026-04-21T11:46:12.347Z</time></trkpt><trkpt lat="43.4198341" lon="0.5894343"><ele>210.0</ele><time>2026-04-21T11:46:14.347Z</time></trkpt><trkpt lat="43.4197461" lon="0.5893807"><ele>210.0</ele><time>2026-04-21T11:46:16.347Z</time></trkpt><trkpt lat="43.4196642" lon="0.5893418"><ele>210.0</ele><time>2026-04-21T11:46:18.347Z</time></trkpt><trkpt lat="43.419584" lon="0.5892956"><ele>210.0</ele><time>2026-04-21T11:46:20.347Z</time></trkpt><trkpt lat="43.4195067" lon="0.5892572"><ele>210.5</ele><time>2026-04-21T11:46:22.347Z</time></trkpt><trkpt lat="43.4194266" lon="0.5892184"><ele>211.0</ele><time>2026-04-21T11:46:24.347Z</time></trkpt><trkpt lat="43.4193444" lon="0.5891828"><ele>211.5</ele><time>2026-04-21T11:46:26.347Z</time></trkpt><trkpt lat="43.4192618" lon="0.5891363"><ele>212.0</ele><time>2026-04-21T11:46:28.348Z</time></trkpt><trkpt lat="43.4191783" lon="0.5890896"><ele>212.5</ele><time>2026-04-21T11:46:30.347Z</time></trkpt><trkpt lat="43.4190943" lon="0.5890527"><ele>213.0</ele><time>2026-04-21T11:46:32.347Z</time></trkpt><trkpt lat="43.4190075" lon="0.5890109"><ele>213.0</ele><time>2026-04-21T11:46:34.347Z</time></trkpt><trkpt lat="43.4189167" lon="0.5889692"><ele>213.0</ele><time>2026-04-21T11:46:36.347Z</time></trkpt><trkpt lat="43.4188316" lon="0.5889242"><ele>213.0</ele><time>2026-04-21T11:46:38.347Z</time></trkpt><trkpt lat="43.4187472" lon="0.5888785"><ele>213.0</ele><time>2026-04-21T11:46:40.347Z</time></trkpt><trkpt lat="43.4186539" lon="0.5888442"><ele>213.0</ele><time>2026-04-21T11:46:42.347Z</time></trkpt><trkpt lat="43.4185633" lon="0.5888155"><ele>214.66666666666666</ele><time>2026-04-21T11:46:44.347Z</time></trkpt><trkpt lat="43.4184762" lon="0.5887984"><ele>216.33333333333331</ele><time>2026-04-21T11:46:46.347Z</time></trkpt><trkpt lat="43.4183944" lon="0.5887843"><ele>218.0</ele><time>2026-04-21T11:46:48.347Z</time></trkpt><trkpt lat="43.4183067" lon="0.5888003"><ele>219.66666666666666</ele><time>2026-04-21T11:46:50.347Z</time></trkpt><trkpt lat="43.4182165" lon="0.5887974"><ele>221.33333333333331</ele><time>2026-04-21T11:46:52.347Z</time></trkpt><trkpt lat="43.4181262" lon="0.5888096"><ele>223.0</ele><time>2026-04-21T11:46:54.347Z</time></trkpt><trkpt lat="43.4180418" lon="0.5888135"><ele>222.83333333333331</ele><time>2026-04-21T11:46:56.347Z</time></trkpt><trkpt lat="43.4179471" lon="0.5888013"><ele>222.66666666666666</ele><time>2026-04-21T11:46:58.347Z</time></trkpt><trkpt lat="43.4178624" lon="0.5888118"><ele>222.5</ele><time>2026-04-21T11:47:00.347Z</time></trkpt><trkpt lat="43.4177792" lon="0.5888076"><ele>222.33333333333331</ele><time>2026-04-21T11:47:02.347Z</time></trkpt><trkpt lat="43.4176919" lon="0.5887923"><ele>222.16666666666666</ele><time>2026-04-21T11:47:04.347Z</time></trkpt><trkpt lat="43.4175978" lon="0.5887647"><ele>222.0</ele><time>2026-04-21T11:47:06.347Z</time></trkpt><trkpt lat="43.4175142" lon="0.5887474"><ele>222.0</ele><time>2026-04-21T11:47:08.347Z</time></trkpt><trkpt lat="43.4174361" lon="0.5887311"><ele>222.0</ele><time>2026-04-21T11:47:10.347Z</time></trkpt><trkpt lat="43.4173523" lon="0.5886985"><ele>222.0</ele><time>2026-04-21T11:47:12.348Z</time></trkpt><trkpt lat="43.4172682" lon="0.5886708"><ele>222.0</ele><time>2026-04-21T11:47:14.347Z</time></trkpt><trkpt lat="43.4171822" lon="0.5886372"><ele>222.0</ele><time>2026-04-21T11:47:16.347Z</time></trkpt><trkpt lat="43.417083" lon="0.5886011"><ele>222.0</ele><time>2026-04-21T11:47:18.347Z</time></trkpt><trkpt lat="43.4169661" lon="0.5885579"><ele>219.8</ele><time>2026-04-21T11:47:20.347Z</time></trkpt><trkpt lat="43.416853" lon="0.5885266"><ele>217.6</ele><time>2026-04-21T11:47:22.347Z</time></trkpt><trkpt lat="43.4167436" lon="0.5885014"><ele>215.4</ele><time>2026-04-21T11:47:24.347Z</time></trkpt><trkpt lat="43.4166312" lon="0.5884744"><ele>213.20000000000002</ele><time>2026-04-21T11:47:26.347Z</time></trkpt><trkpt lat="43.4165689" lon="0.5884608"><ele>211.0</ele><time>2026-04-21T11:47:27.348Z</time></trkpt><trkpt lat="43.4164672" lon="0.5884374"><ele>211.0</ele><time>2026-04-21T11:47:29.347Z</time></trkpt><trkpt lat="43.4163723" lon="0.5884147"><ele>211.0</ele><time>2026-04-21T11:47:31.347Z</time></trkpt><trkpt lat="43.4162708" lon="0.5883805"><ele>211.0</ele><time>2026-04-21T11:47:33.347Z</time></trkpt><trkpt lat="43.4161729" lon="0.5883449"><ele>211.0</ele><time>2026-04-21T11:47:35.347Z</time></trkpt><trkpt lat="43.4160781" lon="0.588301"><ele>211.0</ele><time>2026-04-21T11:47:37.347Z</time></trkpt><trkpt lat="43.4159828" lon="0.5882529"><ele>211.4</ele><time>2026-04-21T11:47:39.347Z</time></trkpt><trkpt lat="43.4158826" lon="0.5882023"><ele>211.8</ele><time>2026-04-21T11:47:41.347Z</time></trkpt><trkpt lat="43.4157844" lon="0.5881553"><ele>212.20000000000002</ele><time>2026-04-21T11:47:43.347Z</time></trkpt><trkpt lat="43.4156836" lon="0.5881015"><ele>212.60000000000002</ele><time>2026-04-21T11:47:45.347Z</time></trkpt><trkpt lat="43.4155835" lon="0.5880451"><ele>213.0</ele><time>2026-04-21T11:47:47.347Z</time></trkpt><trkpt lat="43.4154808" lon="0.5879965"><ele>212.4</ele><time>2026-04-21T11:47:49.348Z</time></trkpt><trkpt lat="43.4153827" lon="0.5879467"><ele>211.8</ele><time>2026-04-21T11:47:51.347Z</time></trkpt><trkpt lat="43.4152795" lon="0.5879025"><ele>211.2</ele><time>2026-04-21T11:47:53.347Z</time></trkpt><trkpt lat="43.4151782" lon="0.5878536"><ele>210.6</ele><time>2026-04-21T11:47:55.347Z</time></trkpt><trkpt lat="43.4150795" lon="0.5877899"><ele>210.0</ele><time>2026-04-21T11:47:57.347Z</time></trkpt><trkpt lat="43.4149827" lon="0.5877369"><ele>210.0</ele><time>2026-04-21T11:47:59.347Z</time></trkpt><trkpt lat="43.4148828" lon="0.5876875"><ele>210.0</ele><time>2026-04-21T11:48:01.347Z</time></trkpt><trkpt lat="43.4147846" lon="0.5876419"><ele>210.0</ele><time>2026-04-21T11:48:03.347Z</time></trkpt><trkpt lat="43.4146906" lon="0.5875949"><ele>210.0</ele><time>2026-04-21T11:48:05.347Z</time></trkpt><trkpt lat="43.4146009" lon="0.5875541"><ele>210.0</ele><time>2026-04-21T11:48:07.347Z</time></trkpt><trkpt lat="43.414511" lon="0.5875139"><ele>210.5</ele><time>2026-04-21T11:48:09.347Z</time></trkpt><trkpt lat="43.4144352" lon="0.5874782"><ele>211.0</ele><time>2026-04-21T11:48:11.347Z</time></trkpt><trkpt lat="43.4143608" lon="0.5874476"><ele>211.5</ele><time>2026-04-21T11:48:13.348Z</time></trkpt><trkpt lat="43.4142868" lon="0.5874072"><ele>212.0</ele><time>2026-04-21T11:48:15.347Z</time></trkpt><trkpt lat="43.4142105" lon="0.5873618"><ele>212.5</ele><time>2026-04-21T11:48:17.347Z</time></trkpt><trkpt lat="43.4141328" lon="0.5873166"><ele>213.0</ele><time>2026-04-21T11:48:19.348Z</time></trkpt><trkpt lat="43.4140543" lon="0.5872692"><ele>213.0</ele><time>2026-04-21T11:48:21.347Z</time></trkpt><trkpt lat="43.4139771" lon="0.5872135"><ele>213.0</ele><time>2026-04-21T11:48:23.347Z</time></trkpt><trkpt lat="43.4139026" lon="0.5871541"><ele>213.0</ele><time>2026-04-21T11:48:25.347Z</time></trkpt><trkpt lat="43.4138272" lon="0.5870928"><ele>213.0</ele><time>2026-04-21T11:48:27.347Z</time></trkpt><trkpt lat="43.4137517" lon="0.5870311"><ele>213.0</ele><time>2026-04-21T11:48:29.347Z</time></trkpt><trkpt lat="43.4136785" lon="0.5869671"><ele>213.0</ele><time>2026-04-21T11:48:31.347Z</time></trkpt><trkpt lat="43.4136046" lon="0.5869024"><ele>213.2</ele><time>2026-04-21T11:48:33.348Z</time></trkpt><trkpt lat="43.4135304" lon="0.5868373"><ele>213.4</ele><time>2026-04-21T11:48:35.347Z</time></trkpt><trkpt lat="43.4134542" lon="0.5867704"><ele>213.59999999999997</ele><time>2026-04-21T11:48:37.347Z</time></trkpt><trkpt lat="43.4133781" lon="0.5867026"><ele>213.79999999999998</ele><time>2026-04-21T11:48:39.347Z</time></trkpt><trkpt lat="43.4133022" lon="0.5866337"><ele>214.0</ele><time>2026-04-21T11:48:41.347Z</time></trkpt><trkpt lat="43.4132254" lon="0.586564"><ele>214.0</ele><time>2026-04-21T11:48:43.347Z</time></trkpt><trkpt lat="43.4131444" lon="0.5865054"><ele>213.99999999999997</ele><time>2026-04-21T11:48:45.347Z</time></trkpt><trkpt lat="43.4130639" lon="0.5864334"><ele>213.99999999999997</ele><time>2026-04-21T11:48:47.347Z</time></trkpt><trkpt lat="43.4129865" lon="0.5863592"><ele>214.0</ele><time>2026-04-21T11:48:49.347Z</time></trkpt><trkpt lat="43.4129072" lon="0.5862898"><ele>214.0</ele><time>2026-04-21T11:48:51.348Z</time></trkpt><trkpt lat="43.412825" lon="0.5862116"><ele>214.0</ele><time>2026-04-21T11:48:53.347Z</time></trkpt><trkpt lat="43.4127467" lon="0.5861448"><ele>213.99999999999997</ele><time>2026-04-21T11:48:55.347Z</time></trkpt><trkpt lat="43.4126663" lon="0.5860813"><ele>213.99999999999997</ele><time>2026-04-21T11:48:57.348Z</time></trkpt><trkpt lat="43.4125898" lon="0.586007"><ele>214.0</ele><time>2026-04-21T11:48:59.347Z</time></trkpt><trkpt lat="43.4125054" lon="0.5859416"><ele>214.0</ele><time>2026-04-21T11:49:01.348Z</time></trkpt><trkpt lat="43.4124204" lon="0.5858813"><ele>214.0</ele><time>2026-04-21T11:49:03.347Z</time></trkpt><trkpt lat="43.412335" lon="0.5858286"><ele>213.99999999999997</ele><time>2026-04-21T11:49:05.347Z</time></trkpt><trkpt lat="43.4122505" lon="0.5857713"><ele>213.99999999999997</ele><time>2026-04-21T11:49:07.347Z</time></trkpt><trkpt lat="43.4121661" lon="0.5857323"><ele>214.0</ele><time>2026-04-21T11:49:09.348Z</time></trkpt><trkpt lat="43.4120758" lon="0.5856953"><ele>214.0</ele><time>2026-04-21T11:49:11.347Z</time></trkpt><trkpt lat="43.411983" lon="0.5856736"><ele>213.79999999999998</ele><time>2026-04-21T11:49:13.347Z</time></trkpt><trkpt lat="43.4118945" lon="0.5856539"><ele>213.59999999999997</ele><time>2026-04-21T11:49:15.347Z</time></trkpt><trkpt lat="43.411802" lon="0.5856368"><ele>213.4</ele><time>2026-04-21T11:49:17.347Z</time></trkpt><trkpt lat="43.4117065" lon="0.5856314"><ele>213.2</ele><time>2026-04-21T11:49:19.347Z</time></trkpt><trkpt lat="43.411612" lon="0.585628"><ele>213.0</ele><time>2026-04-21T11:49:21.347Z</time></trkpt><trkpt lat="43.4115194" lon="0.5856408"><ele>213.0</ele><time>2026-04-21T11:49:23.348Z</time></trkpt><trkpt lat="43.411428" lon="0.5856603"><ele>213.0</ele><time>2026-04-21T11:49:25.347Z</time></trkpt><trkpt lat="43.4113393" lon="0.5856641"><ele>213.0</ele><time>2026-04-21T11:49:27.348Z</time></trkpt><trkpt lat="43.4112592" lon="0.5856657"><ele>213.0</ele><time>2026-04-21T11:49:29.347Z</time></trkpt><trkpt lat="43.4111858" lon="0.5856557"><ele>213.0</ele><time>2026-04-21T11:49:31.347Z</time></trkpt><trkpt lat="43.4111137" lon="0.5856282"><ele>213.0</ele><time>2026-04-21T11:49:33.347Z</time></trkpt><trkpt lat="43.4110328" lon="0.5855968"><ele>212.83333333333334</ele><time>2026-04-21T11:49:35.347Z</time></trkpt><trkpt lat="43.4109529" lon="0.5855582"><ele>212.66666666666669</ele><time>2026-04-21T11:49:37.347Z</time></trkpt><trkpt lat="43.4108682" lon="0.5855181"><ele>212.5</ele><time>2026-04-21T11:49:39.347Z</time></trkpt><trkpt lat="43.4107914" lon="0.5854714"><ele>212.33333333333334</ele><time>2026-04-21T11:49:41.347Z</time></trkpt><trkpt lat="43.4107161" lon="0.585415"><ele>212.16666666666669</ele><time>2026-04-21T11:49:43.347Z</time></trkpt><trkpt lat="43.410642" lon="0.5853697"><ele>212.0</ele><time>2026-04-21T11:49:45.347Z</time></trkpt><trkpt lat="43.4105634" lon="0.5853293"><ele>212.16666666666669</ele><time>2026-04-21T11:49:47.347Z</time></trkpt><trkpt lat="43.4104851" lon="0.5852832"><ele>212.33333333333334</ele><time>2026-04-21T11:49:49.347Z</time></trkpt><trkpt lat="43.4104035" lon="0.5852444"><ele>212.5</ele><time>2026-04-21T11:49:51.347Z</time></trkpt><trkpt lat="43.4103308" lon="0.5852065"><ele>212.66666666666669</ele><time>2026-04-21T11:49:53.347Z</time></trkpt><trkpt lat="43.4102644" lon="0.5851636"><ele>212.83333333333334</ele><time>2026-04-21T11:49:55.347Z</time></trkpt><trkpt lat="43.410203" lon="0.5851152"><ele>213.0</ele><time>2026-04-21T11:49:57.347Z</time></trkpt><trkpt lat="43.410139" lon="0.5850717"><ele>213.0</ele><time>2026-04-21T11:49:59.347Z</time></trkpt><trkpt lat="43.4100729" lon="0.5850462"><ele>213.0</ele><time>2026-04-21T11:50:01.347Z</time></trkpt><trkpt lat="43.4100107" lon="0.5850313"><ele>213.0</ele><time>2026-04-21T11:50:03.347Z</time></trkpt><trkpt lat="43.4099445" lon="0.5850281"><ele>213.0</ele><time>2026-04-21T11:50:05.347Z</time></trkpt><trkpt lat="43.4098621" lon="0.5850369"><ele>213.0</ele><time>2026-04-21T11:50:07.347Z</time></trkpt><trkpt lat="43.4097576" lon="0.5850624"><ele>213.0</ele><time>2026-04-21T11:50:09.348Z</time></trkpt><trkpt lat="43.4096188" lon="0.5850803"><ele>212.8</ele><time>2026-04-21T11:50:12.347Z</time></trkpt><trkpt lat="43.4095193" lon="0.5850834"><ele>212.60000000000002</ele><time>2026-04-21T11:50:14.347Z</time></trkpt><trkpt lat="43.4094139" lon="0.5850754"><ele>212.39999999999998</ele><time>2026-04-21T11:50:16.347Z</time></trkpt><trkpt lat="43.4093159" lon="0.5850711"><ele>212.2</ele><time>2026-04-21T11:50:18.347Z</time></trkpt><trkpt lat="43.4092246" lon="0.5850661"><ele>212.0</ele><time>2026-04-21T11:50:20.347Z</time></trkpt><trkpt lat="43.4091368" lon="0.5850431"><ele>212.0</ele><time>2026-04-21T11:50:22.347Z</time></trkpt><trkpt lat="43.4090427" lon="0.5850165"><ele>212.0</ele><time>2026-04-21T11:50:24.347Z</time></trkpt><trkpt lat="43.4089501" lon="0.5849861"><ele>212.0</ele><time>2026-04-21T11:50:26.347Z</time></trkpt><trkpt lat="43.4088568" lon="0.5849552"><ele>212.0</ele><time>2026-04-21T11:50:28.347Z</time></trkpt><trkpt lat="43.4087675" lon="0.5849273"><ele>212.0</ele><time>2026-04-21T11:50:30.348Z</time></trkpt><trkpt lat="43.4086859" lon="0.5849056"><ele>212.50000000000003</ele><time>2026-04-21T11:50:32.348Z</time></trkpt><trkpt lat="43.4086024" lon="0.5848831"><ele>213.0</ele><time>2026-04-21T11:50:34.347Z</time></trkpt><trkpt lat="43.4085185" lon="0.5848595"><ele>213.5</ele><time>2026-04-21T11:50:36.347Z</time></trkpt><trkpt lat="43.4084346" lon="0.5848403"><ele>214.0</ele><time>2026-04-21T11:50:38.347Z</time></trkpt><trkpt lat="43.4083573" lon="0.5848056"><ele>214.50000000000003</ele><time>2026-04-21T11:50:40.348Z</time></trkpt><trkpt lat="43.4082741" lon="0.5847889"><ele>215.0</ele><time>2026-04-21T11:50:42.347Z</time></trkpt><trkpt lat="43.4081908" lon="0.5847743"><ele>215.00000000000003</ele><time>2026-04-21T11:50:44.347Z</time></trkpt><trkpt lat="43.4081105" lon="0.5847636"><ele>215.0</ele><time>2026-04-21T11:50:46.348Z</time></trkpt><trkpt lat="43.4080288" lon="0.5847521"><ele>215.0</ele><time>2026-04-21T11:50:48.347Z</time></trkpt><trkpt lat="43.407946" lon="0.5847251"><ele>215.0</ele><time>2026-04-21T11:50:50.347Z</time></trkpt><trkpt lat="43.4078634" lon="0.5846886"><ele>215.00000000000003</ele><time>2026-04-21T11:50:52.348Z</time></trkpt><trkpt lat="43.4077808" lon="0.584651"><ele>215.0</ele><time>2026-04-21T11:50:54.347Z</time></trkpt><trkpt lat="43.4076979" lon="0.5846133"><ele>214.33333333333334</ele><time>2026-04-21T11:50:56.347Z</time></trkpt><trkpt lat="43.4076124" lon="0.5845767"><ele>213.66666666666669</ele><time>2026-04-21T11:50:58.347Z</time></trkpt><trkpt lat="43.4075281" lon="0.5845455"><ele>213.0</ele><time>2026-04-21T11:51:00.347Z</time></trkpt><trkpt lat="43.4074437" lon="0.5845171"><ele>212.33333333333331</ele><time>2026-04-21T11:51:02.347Z</time></trkpt><trkpt lat="43.4073563" lon="0.5844858"><ele>211.66666666666666</ele><time>2026-04-21T11:51:04.347Z</time></trkpt><trkpt lat="43.4072687" lon="0.5844623"><ele>211.0</ele><time>2026-04-21T11:51:06.347Z</time></trkpt><trkpt lat="43.4071798" lon="0.5844388"><ele>211.16666666666666</ele><time>2026-04-21T11:51:08.347Z</time></trkpt><trkpt lat="43.4070913" lon="0.5844178"><ele>211.33333333333331</ele><time>2026-04-21T11:51:10.347Z</time></trkpt><trkpt lat="43.40701" lon="0.5843925"><ele>211.5</ele><time>2026-04-21T11:51:12.347Z</time></trkpt><trkpt lat="43.4069283" lon="0.5843686"><ele>211.66666666666669</ele><time>2026-04-21T11:51:14.347Z</time></trkpt><trkpt lat="43.4068474" lon="0.5843309"><ele>211.83333333333334</ele><time>2026-04-21T11:51:16.347Z</time></trkpt><trkpt lat="43.4067599" lon="0.5843033"><ele>212.0</ele><time>2026-04-21T11:51:18.347Z</time></trkpt><trkpt lat="43.4066717" lon="0.5842589"><ele>212.0</ele><time>2026-04-21T11:51:20.347Z</time></trkpt><trkpt lat="43.4065813" lon="0.5842095"><ele>212.0</ele><time>2026-04-21T11:51:22.347Z</time></trkpt><trkpt lat="43.4064829" lon="0.584178"><ele>212.0</ele><time>2026-04-21T11:51:24.347Z</time></trkpt><trkpt lat="43.4063892" lon="0.5841425"><ele>212.0</ele><time>2026-04-21T11:51:26.348Z</time></trkpt><trkpt lat="43.4062955" lon="0.5841142"><ele>212.0</ele><time>2026-04-21T11:51:28.348Z</time></trkpt><trkpt lat="43.4062011" lon="0.5840851"><ele>212.6</ele><time>2026-04-21T11:51:30.347Z</time></trkpt><trkpt lat="43.4061058" lon="0.5840605"><ele>213.2</ele><time>2026-04-21T11:51:32.348Z</time></trkpt><trkpt lat="43.4060083" lon="0.584033"><ele>213.8</ele><time>2026-04-21T11:51:34.347Z</time></trkpt><trkpt lat="43.4059158" lon="0.5840077"><ele>214.4</ele><time>2026-04-21T11:51:36.347Z</time></trkpt><trkpt lat="43.4058225" lon="0.5839852"><ele>215.0</ele><time>2026-04-21T11:51:38.347Z</time></trkpt><trkpt lat="43.4057234" lon="0.5839728"><ele>215.0</ele><time>2026-04-21T11:51:40.347Z</time></trkpt><trkpt lat="43.4056278" lon="0.5839642"><ele>215.0</ele><time>2026-04-21T11:51:42.347Z</time></trkpt><trkpt lat="43.4055342" lon="0.58395"><ele>215.0</ele><time>2026-04-21T11:51:44.348Z</time></trkpt><trkpt lat="43.4054385" lon="0.5839441"><ele>215.0</ele><time>2026-04-21T11:51:46.347Z</time></trkpt><trkpt lat="43.4053393" lon="0.5839443"><ele>215.0</ele><time>2026-04-21T11:51:48.347Z</time></trkpt><trkpt lat="43.4052478" lon="0.5839347"><ele>215.4</ele><time>2026-04-21T11:51:50.347Z</time></trkpt><trkpt lat="43.4051525" lon="0.5839177"><ele>215.8</ele><time>2026-04-21T11:51:52.347Z</time></trkpt><trkpt lat="43.4050619" lon="0.5839181"><ele>216.2</ele><time>2026-04-21T11:51:54.347Z</time></trkpt><trkpt lat="43.4049747" lon="0.5839229"><ele>216.6</ele><time>2026-04-21T11:51:56.347Z</time></trkpt><trkpt lat="43.4048755" lon="0.5839233"><ele>217.0</ele><time>2026-04-21T11:51:58.347Z</time></trkpt><trkpt lat="43.4047839" lon="0.583929"><ele>217.0</ele><time>2026-04-21T11:52:00.347Z</time></trkpt><trkpt lat="43.404692" lon="0.5839241"><ele>217.0</ele><time>2026-04-21T11:52:02.347Z</time></trkpt><trkpt lat="43.4045949" lon="0.5839228"><ele>217.0</ele><time>2026-04-21T11:52:04.348Z</time></trkpt><trkpt lat="43.4044984" lon="0.5839248"><ele>217.0</ele><time>2026-04-21T11:52:06.348Z</time></trkpt><trkpt lat="43.4044029" lon="0.5839186"><ele>217.0</ele><time>2026-04-21T11:52:08.347Z</time></trkpt><trkpt lat="43.4043059" lon="0.5839072"><ele>217.2</ele><time>2026-04-21T11:52:10.348Z</time></trkpt><trkpt lat="43.4042052" lon="0.5838957"><ele>217.39999999999998</ele><time>2026-04-21T11:52:12.347Z</time></trkpt><trkpt lat="43.4041057" lon="0.5838805"><ele>217.60000000000002</ele><time>2026-04-21T11:52:14.347Z</time></trkpt><trkpt lat="43.4040041" lon="0.583869"><ele>217.8</ele><time>2026-04-21T11:52:16.347Z</time></trkpt><trkpt lat="43.4039088" lon="0.5838544"><ele>218.0</ele><time>2026-04-21T11:52:18.347Z</time></trkpt><trkpt lat="43.4038096" lon="0.5838452"><ele>218.0</ele><time>2026-04-21T11:52:20.347Z</time></trkpt><trkpt lat="43.4037107" lon="0.5838385"><ele>218.0</ele><time>2026-04-21T11:52:22.347Z</time></trkpt><trkpt lat="43.4036147" lon="0.5838291"><ele>218.0</ele><time>2026-04-21T11:52:24.347Z</time></trkpt><trkpt lat="43.4035147" lon="0.5838381"><ele>218.0</ele><time>2026-04-21T11:52:26.347Z</time></trkpt><trkpt lat="43.4034218" lon="0.5838483"><ele>218.0</ele><time>2026-04-21T11:52:28.347Z</time></trkpt><trkpt lat="43.4033235" lon="0.5838656"><ele>218.0</ele><time>2026-04-21T11:52:30.347Z</time></trkpt><trkpt lat="43.4032216" lon="0.5838741"><ele>218.0</ele><time>2026-04-21T11:52:32.347Z</time></trkpt><trkpt lat="43.4031206" lon="0.5838888"><ele>218.0</ele><time>2026-04-21T11:52:34.347Z</time></trkpt><trkpt lat="43.4030232" lon="0.5839028"><ele>218.0</ele><time>2026-04-21T11:52:36.347Z</time></trkpt><trkpt lat="43.4029303" lon="0.5839099"><ele>218.0</ele><time>2026-04-21T11:52:38.347Z</time></trkpt><trkpt lat="43.40284" lon="0.5839028"><ele>217.2</ele><time>2026-04-21T11:52:40.347Z</time></trkpt><trkpt lat="43.4027455" lon="0.5839047"><ele>216.4</ele><time>2026-04-21T11:52:42.347Z</time></trkpt><trkpt lat="43.4026546" lon="0.5838907"><ele>215.59999999999997</ele><time>2026-04-21T11:52:44.347Z</time></trkpt><trkpt lat="43.4025611" lon="0.5838776"><ele>214.79999999999998</ele><time>2026-04-21T11:52:46.347Z</time></trkpt><trkpt lat="43.4024544" lon="0.5838702"><ele>214.0</ele><time>2026-04-21T11:52:48.347Z</time></trkpt><trkpt lat="43.4023538" lon="0.5838551"><ele>214.0</ele><time>2026-04-21T11:52:50.347Z</time></trkpt><trkpt lat="43.4022562" lon="0.5838403"><ele>213.99999999999997</ele><time>2026-04-21T11:52:52.347Z</time></trkpt><trkpt lat="43.4021561" lon="0.5838164"><ele>213.99999999999997</ele><time>2026-04-21T11:52:54.347Z</time></trkpt><trkpt lat="43.402056" lon="0.5837956"><ele>214.0</ele><time>2026-04-21T11:52:56.347Z</time></trkpt><trkpt lat="43.4019616" lon="0.5837661"><ele>214.0</ele><time>2026-04-21T11:52:58.347Z</time></trkpt><trkpt lat="43.4018676" lon="0.5837459"><ele>214.2</ele><time>2026-04-21T11:53:00.347Z</time></trkpt><trkpt lat="43.4017743" lon="0.5837236"><ele>214.39999999999998</ele><time>2026-04-21T11:53:02.347Z</time></trkpt><trkpt lat="43.4016873" lon="0.5837391"><ele>214.6</ele><time>2026-04-21T11:53:04.347Z</time></trkpt><trkpt lat="43.4015904" lon="0.5837163"><ele>214.8</ele><time>2026-04-21T11:53:06.347Z</time></trkpt><trkpt lat="43.4015029" lon="0.5836816"><ele>215.0</ele><time>2026-04-21T11:53:08.347Z</time></trkpt><trkpt lat="43.4014082" lon="0.5836476"><ele>214.6</ele><time>2026-04-21T11:53:10.348Z</time></trkpt><trkpt lat="43.4013121" lon="0.5836256"><ele>214.2</ele><time>2026-04-21T11:53:12.347Z</time></trkpt><trkpt lat="43.4012162" lon="0.5835933"><ele>213.8</ele><time>2026-04-21T11:53:14.347Z</time></trkpt><trkpt lat="43.4011188" lon="0.5835647"><ele>213.4</ele><time>2026-04-21T11:53:16.347Z</time></trkpt><trkpt lat="43.4010243" lon="0.5835261"><ele>213.0</ele><time>2026-04-21T11:53:18.347Z</time></trkpt><trkpt lat="43.400927" lon="0.5834911"><ele>213.0</ele><time>2026-04-21T11:53:20.347Z</time></trkpt><trkpt lat="43.4008295" lon="0.5834597"><ele>213.0</ele><time>2026-04-21T11:53:22.347Z</time></trkpt><trkpt lat="43.4007383" lon="0.5834179"><ele>213.0</ele><time>2026-04-21T11:53:24.347Z</time></trkpt><trkpt lat="43.4006473" lon="0.5833852"><ele>213.0</ele><time>2026-04-21T11:53:26.347Z</time></trkpt><trkpt lat="43.4005535" lon="0.583344"><ele>213.0</ele><time>2026-04-21T11:53:28.348Z</time></trkpt><trkpt lat="43.4004622" lon="0.5833157"><ele>213.8</ele><time>2026-04-21T11:53:30.347Z</time></trkpt><trkpt lat="43.400371" lon="0.5832807"><ele>214.60000000000002</ele><time>2026-04-21T11:53:32.347Z</time></trkpt><trkpt lat="43.4002771" lon="0.5832614"><ele>215.39999999999998</ele><time>2026-04-21T11:53:34.348Z</time></trkpt><trkpt lat="43.4001873" lon="0.5832449"><ele>216.2</ele><time>2026-04-21T11:53:36.347Z</time></trkpt><trkpt lat="43.4000964" lon="0.5832267"><ele>217.0</ele><time>2026-04-21T11:53:38.347Z</time></trkpt><trkpt lat="43.4000001" lon="0.5832151"><ele>217.0</ele><time>2026-04-21T11:53:40.348Z</time></trkpt><trkpt lat="43.3999093" lon="0.5832076"><ele>217.0</ele><time>2026-04-21T11:53:42.347Z</time></trkpt><trkpt lat="43.3998168" lon="0.5831997"><ele>217.0</ele><time>2026-04-21T11:53:44.347Z</time></trkpt><trkpt lat="43.3997191" lon="0.5831899"><ele>217.0</ele><time>2026-04-21T11:53:46.347Z</time></trkpt><trkpt lat="43.3996244" lon="0.5831748"><ele>217.0</ele><time>2026-04-21T11:53:48.347Z</time></trkpt><trkpt lat="43.3995354" lon="0.5831453"><ele>217.66666666666666</ele><time>2026-04-21T11:53:50.347Z</time></trkpt><trkpt lat="43.3994475" lon="0.5831134"><ele>218.33333333333331</ele><time>2026-04-21T11:53:52.347Z</time></trkpt><trkpt lat="43.3993593" lon="0.5830882"><ele>219.0</ele><time>2026-04-21T11:53:54.347Z</time></trkpt><trkpt lat="43.3992715" lon="0.5830544"><ele>219.66666666666669</ele><time>2026-04-21T11:53:56.347Z</time></trkpt><trkpt lat="43.3991975" lon="0.5830516"><ele>220.33333333333334</ele><time>2026-04-21T11:53:58.347Z</time></trkpt><trkpt lat="43.3991199" lon="0.5830368"><ele>221.0</ele><time>2026-04-21T11:54:00.347Z</time></trkpt><trkpt lat="43.3990534" lon="0.5830271"><ele>221.00000000000003</ele><time>2026-04-21T11:54:02.347Z</time></trkpt><trkpt lat="43.3989595" lon="0.5829976"><ele>221.0</ele><time>2026-04-21T11:54:05.347Z</time></trkpt><trkpt lat="43.3988878" lon="0.5829726"><ele>221.0</ele><time>2026-04-21T11:54:07.348Z</time></trkpt><trkpt lat="43.3988147" lon="0.5829478"><ele>221.0</ele><time>2026-04-21T11:54:09.347Z</time></trkpt><trkpt lat="43.3987455" lon="0.582924"><ele>221.00000000000003</ele><time>2026-04-21T11:54:11.347Z</time></trkpt><trkpt lat="43.3986547" lon="0.5829199"><ele>221.0</ele><time>2026-04-21T11:54:14.347Z</time></trkpt><trkpt lat="43.3985436" lon="0.5828822"><ele>220.33333333333334</ele><time>2026-04-21T11:54:18.348Z</time></trkpt><trkpt lat="43.3984776" lon="0.5828421"><ele>219.66666666666669</ele><time>2026-04-21T11:54:20.348Z</time></trkpt><trkpt lat="43.3984032" lon="0.5827984"><ele>219.0</ele><time>2026-04-21T11:54:22.347Z</time></trkpt><trkpt lat="43.3983261" lon="0.5827576"><ele>218.33333333333331</ele><time>2026-04-21T11:54:24.347Z</time></trkpt><trkpt lat="43.3982506" lon="0.5827212"><ele>217.66666666666666</ele><time>2026-04-21T11:54:26.347Z</time></trkpt><trkpt lat="43.3981697" lon="0.582692"><ele>217.0</ele><time>2026-04-21T11:54:28.347Z</time></trkpt><trkpt lat="43.3980862" lon="0.5826734"><ele>216.99999999999997</ele><time>2026-04-21T11:54:30.347Z</time></trkpt><trkpt lat="43.3980007" lon="0.5826655"><ele>217.0</ele><time>2026-04-21T11:54:32.347Z</time></trkpt><trkpt lat="43.397918" lon="0.5826612"><ele>217.0</ele><time>2026-04-21T11:54:34.348Z</time></trkpt><trkpt lat="43.3978341" lon="0.5826623"><ele>217.0</ele><time>2026-04-21T11:54:36.347Z</time></trkpt><trkpt lat="43.3977525" lon="0.5826555"><ele>216.99999999999997</ele><time>2026-04-21T11:54:38.347Z</time></trkpt><trkpt lat="43.3976712" lon="0.5826468"><ele>217.0</ele><time>2026-04-21T11:54:40.347Z</time></trkpt><trkpt lat="43.3975913" lon="0.5826546"><ele>216.99999999999997</ele><time>2026-04-21T11:54:42.347Z</time></trkpt><trkpt lat="43.3975165" lon="0.5826624"><ele>217.0</ele><time>2026-04-21T11:54:44.347Z</time></trkpt><trkpt lat="43.3974422" lon="0.5826694"><ele>217.0</ele><time>2026-04-21T11:54:46.348Z</time></trkpt><trkpt lat="43.3973707" lon="0.5826751"><ele>217.0</ele><time>2026-04-21T11:54:48.347Z</time></trkpt><trkpt lat="43.3972894" lon="0.5826791"><ele>216.99999999999997</ele><time>2026-04-21T11:54:50.347Z</time></trkpt><trkpt lat="43.3972065" lon="0.5826893"><ele>217.0</ele><time>2026-04-21T11:54:52.347Z</time></trkpt><trkpt lat="43.3971226" lon="0.582697"><ele>216.99999999999997</ele><time>2026-04-21T11:54:54.347Z</time></trkpt><trkpt lat="43.3970372" lon="0.5827058"><ele>217.0</ele><time>2026-04-21T11:54:56.347Z</time></trkpt><trkpt lat="43.3969528" lon="0.5827144"><ele>217.0</ele><time>2026-04-21T11:54:58.347Z</time></trkpt><trkpt lat="43.3968669" lon="0.5827182"><ele>217.0</ele><time>2026-04-21T11:55:00.347Z</time></trkpt><trkpt lat="43.3967811" lon="0.5827089"><ele>216.99999999999997</ele><time>2026-04-21T11:55:02.347Z</time></trkpt><trkpt lat="43.3966955" lon="0.5826889"><ele>217.0</ele><time>2026-04-21T11:55:04.347Z</time></trkpt><trkpt lat="43.3966148" lon="0.5826397"><ele>216.99999999999997</ele><time>2026-04-21T11:55:06.347Z</time></trkpt><trkpt lat="43.3965235" lon="0.5826066"><ele>217.0</ele><time>2026-04-21T11:55:08.348Z</time></trkpt><trkpt lat="43.3964384" lon="0.5825776"><ele>217.0</ele><time>2026-04-21T11:55:10.348Z</time></trkpt><trkpt lat="43.3963545" lon="0.5825411"><ele>217.0</ele><time>2026-04-21T11:55:12.347Z</time></trkpt><trkpt lat="43.3962732" lon="0.5824935"><ele>216.99999999999997</ele><time>2026-04-21T11:55:14.347Z</time></trkpt><trkpt lat="43.3961888" lon="0.5824504"><ele>217.0</ele><time>2026-04-21T11:55:16.347Z</time></trkpt><trkpt lat="43.3961037" lon="0.5824025"><ele>217.6</ele><time>2026-04-21T11:55:18.347Z</time></trkpt><trkpt lat="43.396017" lon="0.5823628"><ele>218.2</ele><time>2026-04-21T11:55:20.347Z</time></trkpt><trkpt lat="43.3959322" lon="0.5823183"><ele>218.8</ele><time>2026-04-21T11:55:22.347Z</time></trkpt><trkpt lat="43.3958469" lon="0.5822777"><ele>219.4</ele><time>2026-04-21T11:55:24.348Z</time></trkpt><trkpt lat="43.3957629" lon="0.5822387"><ele>220.0</ele><time>2026-04-21T11:55:26.347Z</time></trkpt><trkpt lat="43.3956752" lon="0.5822107"><ele>220.0</ele><time>2026-04-21T11:55:28.347Z</time></trkpt><trkpt lat="43.3955872" lon="0.5821907"><ele>220.0</ele><time>2026-04-21T11:55:30.347Z</time></trkpt><trkpt lat="43.3954956" lon="0.5821708"><ele>220.0</ele><time>2026-04-21T11:55:32.347Z</time></trkpt><trkpt lat="43.3954022" lon="0.5821552"><ele>220.0</ele><time>2026-04-21T11:55:34.347Z</time></trkpt><trkpt lat="43.3953131" lon="0.5821384"><ele>220.0</ele><time>2026-04-21T11:55:36.347Z</time></trkpt><trkpt lat="43.3952236" lon="0.5821245"><ele>220.4</ele><time>2026-04-21T11:55:38.347Z</time></trkpt><trkpt lat="43.3951319" lon="0.5821146"><ele>220.8</ele><time>2026-04-21T11:55:40.347Z</time></trkpt><trkpt lat="43.3950418" lon="0.582103"><ele>221.2</ele><time>2026-04-21T11:55:42.347Z</time></trkpt><trkpt lat="43.3949483" lon="0.5820949"><ele>221.6</ele><time>2026-04-21T11:55:44.348Z</time></trkpt><trkpt lat="43.3948525" lon="0.5820814"><ele>222.0</ele><time>2026-04-21T11:55:46.348Z</time></trkpt><trkpt lat="43.3947474" lon="0.5820807"><ele>221.39999999999998</ele><time>2026-04-21T11:55:48.347Z</time></trkpt><trkpt lat="43.3946479" lon="0.5820745"><ele>220.79999999999998</ele><time>2026-04-21T11:55:50.347Z</time></trkpt><trkpt lat="43.3945478" lon="0.5820534"><ele>220.2</ele><time>2026-04-21T11:55:52.347Z</time></trkpt><trkpt lat="43.3944484" lon="0.582026"><ele>219.6</ele><time>2026-04-21T11:55:54.348Z</time></trkpt><trkpt lat="43.3943503" lon="0.5819904"><ele>219.0</ele><time>2026-04-21T11:55:56.347Z</time></trkpt><trkpt lat="43.3942533" lon="0.5819543"><ele>219.0</ele><time>2026-04-21T11:55:58.347Z</time></trkpt><trkpt lat="43.3941615" lon="0.5819074"><ele>218.99999999999997</ele><time>2026-04-21T11:56:00.347Z</time></trkpt><trkpt lat="43.3940686" lon="0.5818575"><ele>218.99999999999997</ele><time>2026-04-21T11:56:02.347Z</time></trkpt><trkpt lat="43.393974" lon="0.5818073"><ele>219.0</ele><time>2026-04-21T11:56:04.347Z</time></trkpt><trkpt lat="43.3938725" lon="0.5817568"><ele>219.0</ele><time>2026-04-21T11:56:06.348Z</time></trkpt><trkpt lat="43.3937769" lon="0.5816949"><ele>220.0</ele><time>2026-04-21T11:56:08.347Z</time></trkpt><trkpt lat="43.3936804" lon="0.5816363"><ele>220.99999999999997</ele><time>2026-04-21T11:56:10.347Z</time></trkpt><trkpt lat="43.393591" lon="0.5815723"><ele>221.99999999999997</ele><time>2026-04-21T11:56:12.347Z</time></trkpt><trkpt lat="43.3934944" lon="0.5815053"><ele>223.0</ele><time>2026-04-21T11:56:14.347Z</time></trkpt><trkpt lat="43.3933966" lon="0.5814442"><ele>224.0</ele><time>2026-04-21T11:56:16.348Z</time></trkpt><trkpt lat="43.3933008" lon="0.581377"><ele>224.0</ele><time>2026-04-21T11:56:18.348Z</time></trkpt><trkpt lat="43.3931996" lon="0.5812983"><ele>224.0</ele><time>2026-04-21T11:56:20.347Z</time></trkpt><trkpt lat="43.3931002" lon="0.5812228"><ele>224.0</ele><time>2026-04-21T11:56:22.347Z</time></trkpt><trkpt lat="43.3930002" lon="0.5811484"><ele>224.0</ele><time>2026-04-21T11:56:24.347Z</time></trkpt><trkpt lat="43.3929013" lon="0.5810803"><ele>223.6</ele><time>2026-04-21T11:56:26.347Z</time></trkpt><trkpt lat="43.3928086" lon="0.58101"><ele>223.2</ele><time>2026-04-21T11:56:28.347Z</time></trkpt><trkpt lat="43.392709" lon="0.5809406"><ele>222.79999999999998</ele><time>2026-04-21T11:56:30.347Z</time></trkpt><trkpt lat="43.3926111" lon="0.5808778"><ele>222.39999999999998</ele><time>2026-04-21T11:56:32.347Z</time></trkpt><trkpt lat="43.3925161" lon="0.5808282"><ele>222.0</ele><time>2026-04-21T11:56:34.347Z</time></trkpt><trkpt lat="43.3924269" lon="0.5807784"><ele>222.0</ele><time>2026-04-21T11:56:36.347Z</time></trkpt><trkpt lat="43.3923357" lon="0.5807333"><ele>222.0</ele><time>2026-04-21T11:56:38.347Z</time></trkpt><trkpt lat="43.3922376" lon="0.5806993"><ele>222.0</ele><time>2026-04-21T11:56:40.347Z</time></trkpt><trkpt lat="43.3921359" lon="0.5806643"><ele>222.0</ele><time>2026-04-21T11:56:42.347Z</time></trkpt><trkpt lat="43.3920385" lon="0.5806359"><ele>222.0</ele><time>2026-04-21T11:56:44.347Z</time></trkpt><trkpt lat="43.3919397" lon="0.5806041"><ele>223.39999999999998</ele><time>2026-04-21T11:56:46.347Z</time></trkpt><trkpt lat="43.391839" lon="0.5805675"><ele>224.79999999999998</ele><time>2026-04-21T11:56:48.347Z</time></trkpt><trkpt lat="43.3917349" lon="0.5805376"><ele>226.2</ele><time>2026-04-21T11:56:50.347Z</time></trkpt><trkpt lat="43.3916318" lon="0.5804974"><ele>227.6</ele><time>2026-04-21T11:56:52.347Z</time></trkpt><trkpt lat="43.3915243" lon="0.580472"><ele>229.0</ele><time>2026-04-21T11:56:54.347Z</time></trkpt><trkpt lat="43.3914209" lon="0.5804665"><ele>228.79999999999998</ele><time>2026-04-21T11:56:56.347Z</time></trkpt><trkpt lat="43.3913163" lon="0.5804563"><ele>228.59999999999997</ele><time>2026-04-21T11:56:58.347Z</time></trkpt><trkpt lat="43.3912119" lon="0.5804507"><ele>228.4</ele><time>2026-04-21T11:57:00.347Z</time></trkpt><trkpt lat="43.3911092" lon="0.58044"><ele>228.2</ele><time>2026-04-21T11:57:02.347Z</time></trkpt><trkpt lat="43.3910068" lon="0.5804281"><ele>228.0</ele><time>2026-04-21T11:57:04.348Z</time></trkpt><trkpt lat="43.3909032" lon="0.5804206"><ele>228.0</ele><time>2026-04-21T11:57:06.348Z</time></trkpt><trkpt lat="43.3908049" lon="0.5804303"><ele>228.0</ele><time>2026-04-21T11:57:08.347Z</time></trkpt><trkpt lat="43.3907106" lon="0.5804295"><ele>228.0</ele><time>2026-04-21T11:57:10.348Z</time></trkpt><trkpt lat="43.3906157" lon="0.5804111"><ele>228.0</ele><time>2026-04-21T11:57:12.347Z</time></trkpt><trkpt lat="43.3905139" lon="0.5804048"><ele>228.0</ele><time>2026-04-21T11:57:14.347Z</time></trkpt><trkpt lat="43.3904151" lon="0.5804104"><ele>227.8</ele><time>2026-04-21T11:57:16.347Z</time></trkpt><trkpt lat="43.3903176" lon="0.5804262"><ele>227.60000000000002</ele><time>2026-04-21T11:57:18.347Z</time></trkpt><trkpt lat="43.3902235" lon="0.5804578"><ele>227.39999999999998</ele><time>2026-04-21T11:57:20.348Z</time></trkpt><trkpt lat="43.3901348" lon="0.5805089"><ele>227.2</ele><time>2026-04-21T11:57:22.347Z</time></trkpt><trkpt lat="43.3900413" lon="0.5805361"><ele>227.0</ele><time>2026-04-21T11:57:24.347Z</time></trkpt><trkpt lat="43.3899436" lon="0.5805158"><ele>227.00000000000003</ele><time>2026-04-21T11:57:26.347Z</time></trkpt><trkpt lat="43.3898632" lon="0.5804681"><ele>227.0</ele><time>2026-04-21T11:57:28.347Z</time></trkpt><trkpt lat="43.3897852" lon="0.5803874"><ele>227.0</ele><time>2026-04-21T11:57:30.347Z</time></trkpt><trkpt lat="43.3897291" lon="0.5803144"><ele>227.0</ele><time>2026-04-21T11:57:32.347Z</time></trkpt><trkpt lat="43.3896922" lon="0.580226"><ele>227.00000000000003</ele><time>2026-04-21T11:57:34.347Z</time></trkpt><trkpt lat="43.3896524" lon="0.5801521"><ele>227.0</ele><time>2026-04-21T11:57:36.348Z</time></trkpt><trkpt lat="43.3896018" lon="0.5800748"><ele>228.16666666666669</ele><time>2026-04-21T11:57:38.347Z</time></trkpt><trkpt lat="43.3895475" lon="0.5800045"><ele>229.33333333333334</ele><time>2026-04-21T11:57:40.347Z</time></trkpt><trkpt lat="43.3895025" lon="0.5799256"><ele>230.5</ele><time>2026-04-21T11:57:42.347Z</time></trkpt><trkpt lat="43.3894606" lon="0.5798335"><ele>231.66666666666669</ele><time>2026-04-21T11:57:44.347Z</time></trkpt><trkpt lat="43.3894125" lon="0.5797351"><ele>232.83333333333334</ele><time>2026-04-21T11:57:46.347Z</time></trkpt><trkpt lat="43.3893686" lon="0.5796353"><ele>234.0</ele><time>2026-04-21T11:57:48.348Z</time></trkpt><trkpt lat="43.3893302" lon="0.5795351"><ele>232.16666666666666</ele><time>2026-04-21T11:57:50.347Z</time></trkpt><trkpt lat="43.3892858" lon="0.5794463"><ele>230.33333333333331</ele><time>2026-04-21T11:57:52.347Z</time></trkpt><trkpt lat="43.3892357" lon="0.5793513"><ele>228.5</ele><time>2026-04-21T11:57:54.347Z</time></trkpt><trkpt lat="43.3891878" lon="0.5792567"><ele>226.66666666666666</ele><time>2026-04-21T11:57:56.347Z</time></trkpt><trkpt lat="43.3891367" lon="0.5791511"><ele>224.83333333333331</ele><time>2026-04-21T11:57:58.348Z</time></trkpt><trkpt lat="43.3890784" lon="0.5790376"><ele>223.0</ele><time>2026-04-21T11:58:00.347Z</time></trkpt><trkpt lat="43.3890311" lon="0.5789394"><ele>223.0</ele><time>2026-04-21T11:58:02.347Z</time></trkpt><trkpt lat="43.3889717" lon="0.5788387"><ele>223.0</ele><time>2026-04-21T11:58:04.347Z</time></trkpt><trkpt lat="43.3889125" lon="0.5787328"><ele>223.0</ele><time>2026-04-21T11:58:06.347Z</time></trkpt><trkpt lat="43.3888463" lon="0.5786302"><ele>223.0</ele><time>2026-04-21T11:58:08.347Z</time></trkpt><trkpt lat="43.3887785" lon="0.578525"><ele>223.0</ele><time>2026-04-21T11:58:10.347Z</time></trkpt><trkpt lat="43.3886969" lon="0.5784402"><ele>223.8</ele><time>2026-04-21T11:58:12.347Z</time></trkpt><trkpt lat="43.3886092" lon="0.578369"><ele>224.60000000000002</ele><time>2026-04-21T11:58:14.348Z</time></trkpt><trkpt lat="43.3885328" lon="0.5783028"><ele>225.39999999999998</ele><time>2026-04-21T11:58:16.347Z</time></trkpt><trkpt lat="43.3884565" lon="0.5782461"><ele>226.2</ele><time>2026-04-21T11:58:18.348Z</time></trkpt><trkpt lat="43.3883711" lon="0.5781843"><ele>227.0</ele><time>2026-04-21T11:58:20.347Z</time></trkpt><trkpt lat="43.3882931" lon="0.5781618"><ele>227.0</ele><time>2026-04-21T11:58:22.347Z</time></trkpt><trkpt lat="43.3882107" lon="0.5781123"><ele>227.0</ele><time>2026-04-21T11:58:24.347Z</time></trkpt><trkpt lat="43.3881161" lon="0.5780679"><ele>227.0</ele><time>2026-04-21T11:58:26.347Z</time></trkpt><trkpt lat="43.3880314" lon="0.5780197"><ele>227.0</ele><time>2026-04-21T11:58:28.347Z</time></trkpt><trkpt lat="43.3879376" lon="0.5779874"><ele>227.0</ele><time>2026-04-21T11:58:30.348Z</time></trkpt><trkpt lat="43.3878334" lon="0.5779688"><ele>226.00000000000003</ele><time>2026-04-21T11:58:32.347Z</time></trkpt><trkpt lat="43.3877659" lon="0.577929"><ele>225.0</ele><time>2026-04-21T11:58:34.348Z</time></trkpt><trkpt lat="43.3876891" lon="0.5779011"><ele>224.0</ele><time>2026-04-21T11:58:36.347Z</time></trkpt><trkpt lat="43.3875903" lon="0.5778766"><ele>223.0</ele><time>2026-04-21T11:58:38.347Z</time></trkpt><trkpt lat="43.3875059" lon="0.5778669"><ele>222.00000000000003</ele><time>2026-04-21T11:58:40.347Z</time></trkpt><trkpt lat="43.3874101" lon="0.577844"><ele>221.0</ele><time>2026-04-21T11:58:42.347Z</time></trkpt><trkpt lat="43.3873188" lon="0.577822"><ele>221.00000000000003</ele><time>2026-04-21T11:58:44.347Z</time></trkpt><trkpt lat="43.3872319" lon="0.5778054"><ele>221.0</ele><time>2026-04-21T11:58:46.347Z</time></trkpt><trkpt lat="43.3871467" lon="0.5777889"><ele>221.0</ele><time>2026-04-21T11:58:48.347Z</time></trkpt><trkpt lat="43.3870671" lon="0.577782"><ele>221.0</ele><time>2026-04-21T11:58:50.347Z</time></trkpt><trkpt lat="43.3869739" lon="0.5777794"><ele>221.00000000000003</ele><time>2026-04-21T11:58:52.348Z</time></trkpt><trkpt lat="43.3868743" lon="0.5777606"><ele>221.0</ele><time>2026-04-21T11:58:54.347Z</time></trkpt><trkpt lat="43.3867843" lon="0.5777397"><ele>221.83333333333334</ele><time>2026-04-21T11:58:56.347Z</time></trkpt><trkpt lat="43.3867056" lon="0.5777383"><ele>222.66666666666669</ele><time>2026-04-21T11:58:58.347Z</time></trkpt><trkpt lat="43.3866169" lon="0.5777408"><ele>223.5</ele><time>2026-04-21T11:59:00.347Z</time></trkpt><trkpt lat="43.3865236" lon="0.577744"><ele>224.33333333333331</ele><time>2026-04-21T11:59:02.347Z</time></trkpt><trkpt lat="43.3864399" lon="0.5777381"><ele>225.16666666666666</ele><time>2026-04-21T11:59:04.347Z</time></trkpt><trkpt lat="43.3863442" lon="0.577743"><ele>226.0</ele><time>2026-04-21T11:59:06.347Z</time></trkpt><trkpt lat="43.3862509" lon="0.5777463"><ele>226.20000000000002</ele><time>2026-04-21T11:59:08.347Z</time></trkpt><trkpt lat="43.3861519" lon="0.5777458"><ele>226.40000000000003</ele><time>2026-04-21T11:59:10.347Z</time></trkpt><trkpt lat="43.3860497" lon="0.577754"><ele>226.6</ele><time>2026-04-21T11:59:12.348Z</time></trkpt><trkpt lat="43.3859581" lon="0.5777687"><ele>226.8</ele><time>2026-04-21T11:59:14.348Z</time></trkpt><trkpt lat="43.3858676" lon="0.577776"><ele>227.0</ele><time>2026-04-21T11:59:16.348Z</time></trkpt><trkpt lat="43.3857757" lon="0.5777839"><ele>227.00000000000003</ele><time>2026-04-21T11:59:18.347Z</time></trkpt><trkpt lat="43.3856831" lon="0.5777736"><ele>227.0</ele><time>2026-04-21T11:59:20.348Z</time></trkpt><trkpt lat="43.3856031" lon="0.5777484"><ele>227.0</ele><time>2026-04-21T11:59:22.347Z</time></trkpt><trkpt lat="43.3855273" lon="0.5777034"><ele>227.0</ele><time>2026-04-21T11:59:24.347Z</time></trkpt><trkpt lat="43.385469" lon="0.5776339"><ele>227.00000000000003</ele><time>2026-04-21T11:59:26.347Z</time></trkpt><trkpt lat="43.3854152" lon="0.5775556"><ele>227.0</ele><time>2026-04-21T11:59:28.347Z</time></trkpt><trkpt lat="43.3853594" lon="0.5774684"><ele>227.2</ele><time>2026-04-21T11:59:30.347Z</time></trkpt><trkpt lat="43.3853047" lon="0.5773764"><ele>227.39999999999998</ele><time>2026-04-21T11:59:32.348Z</time></trkpt><trkpt lat="43.3852416" lon="0.577285"><ele>227.60000000000002</ele><time>2026-04-21T11:59:34.348Z</time></trkpt><trkpt lat="43.3851802" lon="0.5771919"><ele>227.8</ele><time>2026-04-21T11:59:36.347Z</time></trkpt><trkpt lat="43.3851195" lon="0.5770945"><ele>228.0</ele><time>2026-04-21T11:59:38.347Z</time></trkpt><trkpt lat="43.3850545" lon="0.5769997"><ele>228.0</ele><time>2026-04-21T11:59:40.347Z</time></trkpt><trkpt lat="43.384987" lon="0.5768965"><ele>228.0</ele><time>2026-04-21T11:59:42.348Z</time></trkpt><trkpt lat="43.3849197" lon="0.5768072"><ele>228.0</ele><time>2026-04-21T11:59:44.347Z</time></trkpt><trkpt lat="43.3848524" lon="0.5767106"><ele>228.0</ele><time>2026-04-21T11:59:46.347Z</time></trkpt><trkpt lat="43.3847826" lon="0.5765975"><ele>228.0</ele><time>2026-04-21T11:59:48.347Z</time></trkpt><trkpt lat="43.3847099" lon="0.5764878"><ele>227.75</ele><time>2026-04-21T11:59:50.347Z</time></trkpt><trkpt lat="43.3846329" lon="0.5763705"><ele>227.5</ele><time>2026-04-21T11:59:52.348Z</time></trkpt><trkpt lat="43.3845486" lon="0.5762449"><ele>227.25</ele><time>2026-04-21T11:59:54.347Z</time></trkpt><trkpt lat="43.3844549" lon="0.5761248"><ele>227.0</ele><time>2026-04-21T11:59:56.348Z</time></trkpt><trkpt lat="43.3843565" lon="0.5760302"><ele>227.0</ele><time>2026-04-21T11:59:58.347Z</time></trkpt><trkpt lat="43.3843026" lon="0.5759831"><ele>227.0</ele><time>2026-04-21T11:59:59.347Z</time></trkpt><trkpt lat="43.3842" lon="0.5759014"><ele>227.0</ele><time>2026-04-21T12:00:01.347Z</time></trkpt><trkpt lat="43.3840977" lon="0.5758201"><ele>227.0</ele><time>2026-04-21T12:00:03.347Z</time></trkpt><trkpt lat="43.3840077" lon="0.5757748"><ele>227.0</ele><time>2026-04-21T12:00:05.348Z</time></trkpt><trkpt lat="43.3839123" lon="0.5757563"><ele>227.8</ele><time>2026-04-21T12:00:07.347Z</time></trkpt><trkpt lat="43.3838394" lon="0.5757621"><ele>228.6</ele><time>2026-04-21T12:00:08.347Z</time></trkpt><trkpt lat="43.3837443" lon="0.5757781"><ele>229.40000000000003</ele><time>2026-04-21T12:00:10.347Z</time></trkpt><trkpt lat="43.3836442" lon="0.5757922"><ele>230.20000000000002</ele><time>2026-04-21T12:00:12.347Z</time></trkpt><trkpt lat="43.3835598" lon="0.5757979"><ele>231.0</ele><time>2026-04-21T12:00:14.348Z</time></trkpt><trkpt lat="43.3834574" lon="0.5758107"><ele>231.0</ele><time>2026-04-21T12:00:16.347Z</time></trkpt><trkpt lat="43.3833565" lon="0.5758273"><ele>231.00000000000003</ele><time>2026-04-21T12:00:18.348Z</time></trkpt><trkpt lat="43.3832545" lon="0.5758364"><ele>231.00000000000003</ele><time>2026-04-21T12:00:20.347Z</time></trkpt><trkpt lat="43.3831589" lon="0.5758471"><ele>231.0</ele><time>2026-04-21T12:00:22.347Z</time></trkpt><trkpt lat="43.3830586" lon="0.5758554"><ele>231.0</ele><time>2026-04-21T12:00:24.347Z</time></trkpt><trkpt lat="43.382966" lon="0.5758704"><ele>231.0</ele><time>2026-04-21T12:00:26.347Z</time></trkpt><trkpt lat="43.3828721" lon="0.5758743"><ele>231.0</ele><time>2026-04-21T12:00:28.347Z</time></trkpt><trkpt lat="43.3827858" lon="0.5758851"><ele>231.0</ele><time>2026-04-21T12:00:30.347Z</time></trkpt><trkpt lat="43.3827026" lon="0.5758871"><ele>231.0</ele><time>2026-04-21T12:00:32.347Z</time></trkpt><trkpt lat="43.3826237" lon="0.5758761"><ele>231.0</ele><time>2026-04-21T12:00:34.347Z</time></trkpt><trkpt lat="43.3825407" lon="0.5758487"><ele>231.0</ele><time>2026-04-21T12:00:36.347Z</time></trkpt><trkpt lat="43.3824511" lon="0.5758099"><ele>231.0</ele><time>2026-04-21T12:00:38.347Z</time></trkpt><trkpt lat="43.382362" lon="0.575761"><ele>231.00000000000003</ele><time>2026-04-21T12:00:40.347Z</time></trkpt><trkpt lat="43.3822745" lon="0.5757059"><ele>231.00000000000003</ele><time>2026-04-21T12:00:42.347Z</time></trkpt><trkpt lat="43.382182" lon="0.5756508"><ele>231.0</ele><time>2026-04-21T12:00:44.348Z</time></trkpt><trkpt lat="43.3820901" lon="0.575605"><ele>231.0</ele><time>2026-04-21T12:00:46.347Z</time></trkpt><trkpt lat="43.3819987" lon="0.5755508"><ele>230.8</ele><time>2026-04-21T12:00:48.347Z</time></trkpt><trkpt lat="43.3819004" lon="0.5755054"><ele>230.60000000000002</ele><time>2026-04-21T12:00:50.348Z</time></trkpt><trkpt lat="43.3818098" lon="0.5754586"><ele>230.4</ele><time>2026-04-21T12:00:52.348Z</time></trkpt><trkpt lat="43.3817212" lon="0.5754036"><ele>230.2</ele><time>2026-04-21T12:00:54.347Z</time></trkpt><trkpt lat="43.3816297" lon="0.5753543"><ele>230.0</ele><time>2026-04-21T12:00:56.347Z</time></trkpt><trkpt lat="43.3815402" lon="0.5753078"><ele>229.4</ele><time>2026-04-21T12:00:58.347Z</time></trkpt><trkpt lat="43.3814553" lon="0.5752565"><ele>228.8</ele><time>2026-04-21T12:01:00.347Z</time></trkpt><trkpt lat="43.3813726" lon="0.5752061"><ele>228.2</ele><time>2026-04-21T12:01:02.347Z</time></trkpt><trkpt lat="43.3812846" lon="0.5751595"><ele>227.6</ele><time>2026-04-21T12:01:04.347Z</time></trkpt><trkpt lat="43.3811989" lon="0.5751156"><ele>227.0</ele><time>2026-04-21T12:01:06.347Z</time></trkpt><trkpt lat="43.3811167" lon="0.5750652"><ele>227.0</ele><time>2026-04-21T12:01:08.347Z</time></trkpt><trkpt lat="43.3810415" lon="0.5750193"><ele>227.00000000000003</ele><time>2026-04-21T12:01:10.347Z</time></trkpt><trkpt lat="43.3809833" lon="0.5749836"><ele>227.0</ele><time>2026-04-21T12:01:12.347Z</time></trkpt><trkpt lat="43.3809156" lon="0.5749479"><ele>227.0</ele><time>2026-04-21T12:01:15.348Z</time></trkpt><trkpt lat="43.3808615" lon="0.5750116"><ele>227.00000000000003</ele><time>2026-04-21T12:02:01.347Z</time></trkpt><trkpt lat="43.3808651" lon="0.5751062"><ele>227.0</ele><time>2026-04-21T12:02:04.347Z</time></trkpt><trkpt lat="43.3808603" lon="0.57521"><ele>227.0</ele><time>2026-04-21T12:02:07.347Z</time></trkpt><trkpt lat="43.3808378" lon="0.5753224"><ele>227.83333333333334</ele><time>2026-04-21T12:02:10.347Z</time></trkpt><trkpt lat="43.3808218" lon="0.5754328"><ele>228.66666666666669</ele><time>2026-04-21T12:02:13.348Z</time></trkpt><trkpt lat="43.3808121" lon="0.5755407"><ele>229.5</ele><time>2026-04-21T12:02:16.347Z</time></trkpt><trkpt lat="43.3807994" lon="0.5756501"><ele>230.33333333333331</ele><time>2026-04-21T12:02:19.347Z</time></trkpt><trkpt lat="43.3807983" lon="0.5757536"><ele>231.16666666666666</ele><time>2026-04-21T12:02:22.347Z</time></trkpt><trkpt lat="43.380798" lon="0.5758607"><ele>232.0</ele><time>2026-04-21T12:02:25.347Z</time></trkpt><trkpt lat="43.3808073" lon="0.5759651"><ele>231.99999999999997</ele><time>2026-04-21T12:02:28.347Z</time></trkpt><trkpt lat="43.3808226" lon="0.5760667"><ele>232.0</ele><time>2026-04-21T12:02:31.347Z</time></trkpt><trkpt lat="43.3808371" lon="0.5761732"><ele>232.0</ele><time>2026-04-21T12:02:34.347Z</time></trkpt><trkpt lat="43.3808591" lon="0.5762786"><ele>232.0</ele><time>2026-04-21T12:02:37.347Z</time></trkpt><trkpt lat="43.3808726" lon="0.5763802"><ele>231.99999999999997</ele><time>2026-04-21T12:02:40.347Z</time></trkpt><trkpt lat="43.380888" lon="0.5764785"><ele>232.0</ele><time>2026-04-21T12:02:43.347Z</time></trkpt><trkpt lat="43.3808978" lon="0.576579"><ele>232.99999999999997</ele><time>2026-04-21T12:02:46.347Z</time></trkpt><trkpt lat="43.3809031" lon="0.5766793"><ele>234.0</ele><time>2026-04-21T12:02:49.347Z</time></trkpt><trkpt lat="43.3809" lon="0.5767829"><ele>235.0</ele><time>2026-04-21T12:02:52.347Z</time></trkpt><trkpt lat="43.3808954" lon="0.57689"><ele>236.0</ele><time>2026-04-21T12:02:55.347Z</time></trkpt><trkpt lat="43.3808975" lon="0.5769956"><ele>236.99999999999997</ele><time>2026-04-21T12:02:58.347Z</time></trkpt><trkpt lat="43.3808992" lon="0.5771076"><ele>238.0</ele><time>2026-04-21T12:03:01.348Z</time></trkpt><trkpt lat="43.3809091" lon="0.5772133"><ele>238.42857142857144</ele><time>2026-04-21T12:03:04.347Z</time></trkpt><trkpt lat="43.3809135" lon="0.5773168"><ele>238.85714285714286</ele><time>2026-04-21T12:03:07.347Z</time></trkpt><trkpt lat="43.3809121" lon="0.5774201"><ele>239.28571428571428</ele><time>2026-04-21T12:03:10.347Z</time></trkpt><trkpt lat="43.380913" lon="0.5775194"><ele>239.71428571428572</ele><time>2026-04-21T12:03:13.347Z</time></trkpt><trkpt lat="43.3809161" lon="0.5776194"><ele>240.14285714285717</ele><time>2026-04-21T12:03:16.347Z</time></trkpt><trkpt lat="43.3809199" lon="0.5777219"><ele>240.57142857142858</ele><time>2026-04-21T12:03:19.347Z</time></trkpt><trkpt lat="43.3809166" lon="0.5778263"><ele>241.0</ele><time>2026-04-21T12:03:22.347Z</time></trkpt><trkpt lat="43.3809069" lon="0.5779339"><ele>241.16666666666666</ele><time>2026-04-21T12:03:25.347Z</time></trkpt><trkpt lat="43.3808965" lon="0.5780358"><ele>241.33333333333331</ele><time>2026-04-21T12:03:28.347Z</time></trkpt><trkpt lat="43.380877" lon="0.578144"><ele>241.5</ele><time>2026-04-21T12:03:31.347Z</time></trkpt><trkpt lat="43.3808543" lon="0.5782475"><ele>241.66666666666669</ele><time>2026-04-21T12:03:34.347Z</time></trkpt><trkpt lat="43.3808359" lon="0.578351"><ele>241.83333333333334</ele><time>2026-04-21T12:03:37.347Z</time></trkpt><trkpt lat="43.3808214" lon="0.5784558"><ele>242.0</ele><time>2026-04-21T12:03:40.347Z</time></trkpt><trkpt lat="43.3808033" lon="0.5785564"><ele>242.00000000000003</ele><time>2026-04-21T12:03:43.347Z</time></trkpt><trkpt lat="43.3807799" lon="0.5786557"><ele>242.0</ele><time>2026-04-21T12:03:46.347Z</time></trkpt><trkpt lat="43.380751" lon="0.5787469"><ele>242.0</ele><time>2026-04-21T12:03:49.347Z</time></trkpt><trkpt lat="43.3807249" lon="0.578841"><ele>242.0</ele><time>2026-04-21T12:03:52.347Z</time></trkpt><trkpt lat="43.380694" lon="0.5789425"><ele>242.00000000000003</ele><time>2026-04-21T12:03:55.347Z</time></trkpt><trkpt lat="43.3806544" lon="0.5790297"><ele>242.0</ele><time>2026-04-21T12:03:58.347Z</time></trkpt><trkpt lat="43.3806096" lon="0.5791239"><ele>243.0</ele><time>2026-04-21T12:04:01.347Z</time></trkpt><trkpt lat="43.3805657" lon="0.5792129"><ele>243.99999999999997</ele><time>2026-04-21T12:04:04.347Z</time></trkpt><trkpt lat="43.380508" lon="0.5792859"><ele>245.0</ele><time>2026-04-21T12:04:07.347Z</time></trkpt><trkpt lat="43.3804535" lon="0.5793535"><ele>246.0</ele><time>2026-04-21T12:04:10.347Z</time></trkpt><trkpt lat="43.3804116" lon="0.5794254"><ele>246.99999999999997</ele><time>2026-04-21T12:04:13.347Z</time></trkpt><trkpt lat="43.3803714" lon="0.5795042"><ele>248.0</ele><time>2026-04-21T12:04:16.348Z</time></trkpt><trkpt lat="43.3803225" lon="0.5795784"><ele>249.0</ele><time>2026-04-21T12:04:19.348Z</time></trkpt><trkpt lat="43.3802756" lon="0.5796464"><ele>250.57142857142856</ele><time>2026-04-21T12:04:22.347Z</time></trkpt><trkpt lat="43.3802233" lon="0.5797101"><ele>252.1428571428571</ele><time>2026-04-21T12:04:25.347Z</time></trkpt><trkpt lat="43.380174" lon="0.5797764"><ele>253.71428571428572</ele><time>2026-04-21T12:04:28.347Z</time></trkpt><trkpt lat="43.3801201" lon="0.579848"><ele>255.28571428571428</ele><time>2026-04-21T12:04:31.347Z</time></trkpt><trkpt lat="43.3800733" lon="0.5799275"><ele>256.8571428571429</ele><time>2026-04-21T12:04:34.347Z</time></trkpt><trkpt lat="43.3800296" lon="0.5800044"><ele>258.42857142857144</ele><time>2026-04-21T12:04:37.347Z</time></trkpt><trkpt lat="43.37999" lon="0.5800848"><ele>260.0</ele><time>2026-04-21T12:04:40.347Z</time></trkpt><trkpt lat="43.379953" lon="0.5801632"><ele>260.00000000000006</ele><time>2026-04-21T12:04:43.347Z</time></trkpt><trkpt lat="43.379932" lon="0.5802458"><ele>260.0</ele><time>2026-04-21T12:04:46.347Z</time></trkpt><trkpt lat="43.3799134" lon="0.5803359"><ele>260.0</ele><time>2026-04-21T12:04:49.347Z</time></trkpt><trkpt lat="43.37989" lon="0.5804294"><ele>260.0</ele><time>2026-04-21T12:04:52.347Z</time></trkpt><trkpt lat="43.3798678" lon="0.5805225"><ele>260.0</ele><time>2026-04-21T12:04:55.347Z</time></trkpt><trkpt lat="43.3798504" lon="0.5806158"><ele>260.00000000000006</ele><time>2026-04-21T12:04:58.347Z</time></trkpt><trkpt lat="43.3798377" lon="0.5807054"><ele>260.0</ele><time>2026-04-21T12:05:01.347Z</time></trkpt><trkpt lat="43.3798277" lon="0.5808011"><ele>261.42857142857144</ele><time>2026-04-21T12:05:04.347Z</time></trkpt><trkpt lat="43.3798061" lon="0.5808941"><ele>262.8571428571429</ele><time>2026-04-21T12:05:07.348Z</time></trkpt><trkpt lat="43.3797727" lon="0.5809846"><ele>264.2857142857143</ele><time>2026-04-21T12:05:10.347Z</time></trkpt><trkpt lat="43.3797452" lon="0.5810773"><ele>265.7142857142857</ele><time>2026-04-21T12:05:13.347Z</time></trkpt><trkpt lat="43.3797217" lon="0.5811687"><ele>267.1428571428571</ele><time>2026-04-21T12:05:16.347Z</time></trkpt><trkpt lat="43.3796982" lon="0.5812555"><ele>268.57142857142856</ele><time>2026-04-21T12:05:19.347Z</time></trkpt><trkpt lat="43.3796728" lon="0.5813465"><ele>270.0</ele><time>2026-04-21T12:05:22.347Z</time></trkpt><trkpt lat="43.379656" lon="0.5814357"><ele>271.2857142857143</ele><time>2026-04-21T12:05:25.348Z</time></trkpt><trkpt lat="43.3796312" lon="0.5815276"><ele>272.57142857142856</ele><time>2026-04-21T12:05:28.347Z</time></trkpt><trkpt lat="43.3795986" lon="0.5816171"><ele>273.85714285714283</ele><time>2026-04-21T12:05:31.347Z</time></trkpt><trkpt lat="43.3795781" lon="0.5817064"><ele>275.1428571428571</ele><time>2026-04-21T12:05:34.347Z</time></trkpt><trkpt lat="43.3795695" lon="0.5818038"><ele>276.42857142857144</ele><time>2026-04-21T12:05:37.347Z</time></trkpt><trkpt lat="43.3795502" lon="0.581904"><ele>277.71428571428567</ele><time>2026-04-21T12:05:40.348Z</time></trkpt><trkpt lat="43.3795336" lon="0.581994"><ele>279.0</ele><time>2026-04-21T12:05:43.347Z</time></trkpt><trkpt lat="43.3795064" lon="0.5820836"><ele>279.57142857142856</ele><time>2026-04-21T12:05:46.347Z</time></trkpt><trkpt lat="43.3794925" lon="0.5821811"><ele>280.1428571428571</ele><time>2026-04-21T12:05:49.347Z</time></trkpt><trkpt lat="43.3794922" lon="0.5822749"><ele>280.7142857142857</ele><time>2026-04-21T12:05:52.347Z</time></trkpt><trkpt lat="43.3795056" lon="0.5823692"><ele>281.2857142857143</ele><time>2026-04-21T12:05:55.347Z</time></trkpt><trkpt lat="43.3795194" lon="0.5824607"><ele>281.8571428571429</ele><time>2026-04-21T12:05:58.347Z</time></trkpt><trkpt lat="43.3795104" lon="0.5825516"><ele>282.42857142857144</ele><time>2026-04-21T12:06:01.347Z</time></trkpt><trkpt lat="43.3795093" lon="0.582644"><ele>283.0</ele><time>2026-04-21T12:06:04.347Z</time></trkpt><trkpt lat="43.3795138" lon="0.5827459"><ele>283.0</ele><time>2026-04-21T12:06:07.347Z</time></trkpt><trkpt lat="43.3795157" lon="0.5828443"><ele>283.0</ele><time>2026-04-21T12:06:10.348Z</time></trkpt><trkpt lat="43.3795168" lon="0.5829405"><ele>283.0</ele><time>2026-04-21T12:06:13.348Z</time></trkpt><trkpt lat="43.3795164" lon="0.5830381"><ele>283.0</ele><time>2026-04-21T12:06:16.347Z</time></trkpt><trkpt lat="43.3795154" lon="0.5831411"><ele>283.0</ele><time>2026-04-21T12:06:19.347Z</time></trkpt><trkpt lat="43.3795162" lon="0.5832422"><ele>283.0</ele><time>2026-04-21T12:06:22.347Z</time></trkpt><trkpt lat="43.3795005" lon="0.583339"><ele>283.0</ele><time>2026-04-21T12:06:25.347Z</time></trkpt><trkpt lat="43.3794896" lon="0.5834269"><ele>283.14285714285717</ele><time>2026-04-21T12:06:28.347Z</time></trkpt><trkpt lat="43.379471" lon="0.5835179"><ele>283.28571428571433</ele><time>2026-04-21T12:06:31.348Z</time></trkpt><trkpt lat="43.3794637" lon="0.5836126"><ele>283.42857142857144</ele><time>2026-04-21T12:06:34.347Z</time></trkpt><trkpt lat="43.3794496" lon="0.5837104"><ele>283.57142857142856</ele><time>2026-04-21T12:06:37.347Z</time></trkpt><trkpt lat="43.3794296" lon="0.5838092"><ele>283.71428571428567</ele><time>2026-04-21T12:06:40.348Z</time></trkpt><trkpt lat="43.379394" lon="0.5838993"><ele>283.85714285714283</ele><time>2026-04-21T12:06:43.348Z</time></trkpt><trkpt lat="43.3793583" lon="0.5839829"><ele>284.0</ele><time>2026-04-21T12:06:46.347Z</time></trkpt><trkpt lat="43.3793368" lon="0.5840843"><ele>284.2857142857143</ele><time>2026-04-21T12:06:50.347Z</time></trkpt><trkpt lat="43.3792885" lon="0.5841633"><ele>284.57142857142856</ele><time>2026-04-21T12:06:53.347Z</time></trkpt><trkpt lat="43.3792442" lon="0.5842389"><ele>284.85714285714283</ele><time>2026-04-21T12:06:56.347Z</time></trkpt><trkpt lat="43.3792054" lon="0.5843196"><ele>285.1428571428571</ele><time>2026-04-21T12:06:59.348Z</time></trkpt><trkpt lat="43.3791596" lon="0.5843945"><ele>285.42857142857144</ele><time>2026-04-21T12:07:02.347Z</time></trkpt><trkpt lat="43.3791204" lon="0.5844726"><ele>285.71428571428567</ele><time>2026-04-21T12:07:05.347Z</time></trkpt><trkpt lat="43.3790804" lon="0.5845513"><ele>286.0</ele><time>2026-04-21T12:07:08.347Z</time></trkpt><trkpt lat="43.3790366" lon="0.58463"><ele>286.2857142857143</ele><time>2026-04-21T12:07:11.347Z</time></trkpt><trkpt lat="43.3789862" lon="0.5847066"><ele>286.57142857142856</ele><time>2026-04-21T12:07:14.348Z</time></trkpt><trkpt lat="43.378943" lon="0.5847927"><ele>286.8571428571429</ele><time>2026-04-21T12:07:17.347Z</time></trkpt><trkpt lat="43.3789043" lon="0.5848743"><ele>287.1428571428571</ele><time>2026-04-21T12:07:20.347Z</time></trkpt><trkpt lat="43.3788702" lon="0.58496"><ele>287.42857142857144</ele><time>2026-04-21T12:07:23.347Z</time></trkpt><trkpt lat="43.3788316" lon="0.5850423"><ele>287.7142857142857</ele><time>2026-04-21T12:07:26.347Z</time></trkpt><trkpt lat="43.3787854" lon="0.5851202"><ele>288.0</ele><time>2026-04-21T12:07:29.347Z</time></trkpt><trkpt lat="43.3787358" lon="0.58519"><ele>289.8571428571429</ele><time>2026-04-21T12:07:32.348Z</time></trkpt><trkpt lat="43.3786796" lon="0.5852538"><ele>291.7142857142857</ele><time>2026-04-21T12:07:35.347Z</time></trkpt><trkpt lat="43.3786309" lon="0.5853211"><ele>293.57142857142856</ele><time>2026-04-21T12:07:38.347Z</time></trkpt><trkpt lat="43.3785828" lon="0.5854013"><ele>295.42857142857144</ele><time>2026-04-21T12:07:41.348Z</time></trkpt><trkpt lat="43.3785302" lon="0.5854793"><ele>297.2857142857143</ele><time>2026-04-21T12:07:44.347Z</time></trkpt><trkpt lat="43.3784924" lon="0.585562"><ele>299.14285714285717</ele><time>2026-04-21T12:07:47.347Z</time></trkpt><trkpt lat="43.3784522" lon="0.5856527"><ele>301.0</ele><time>2026-04-21T12:07:50.347Z</time></trkpt><trkpt lat="43.3784203" lon="0.5857468"><ele>301.42857142857144</ele><time>2026-04-21T12:07:53.347Z</time></trkpt><trkpt lat="43.3783957" lon="0.5858415"><ele>301.8571428571429</ele><time>2026-04-21T12:07:56.347Z</time></trkpt><trkpt lat="43.3783802" lon="0.5859401"><ele>302.2857142857143</ele><time>2026-04-21T12:07:59.347Z</time></trkpt><trkpt lat="43.37839" lon="0.5860331"><ele>302.7142857142857</ele><time>2026-04-21T12:08:02.347Z</time></trkpt><trkpt lat="43.3783989" lon="0.5861345"><ele>303.14285714285717</ele><time>2026-04-21T12:08:05.347Z</time></trkpt><trkpt lat="43.3783965" lon="0.5862492"><ele>303.57142857142856</ele><time>2026-04-21T12:08:09.348Z</time></trkpt><trkpt lat="43.378418" lon="0.5863392"><ele>304.0</ele><time>2026-04-21T12:08:12.347Z</time></trkpt><trkpt lat="43.3784573" lon="0.5864307"><ele>304.0</ele><time>2026-04-21T12:08:15.348Z</time></trkpt><trkpt lat="43.3784873" lon="0.5865255"><ele>304.0</ele><time>2026-04-21T12:08:18.347Z</time></trkpt><trkpt lat="43.3785257" lon="0.5866136"><ele>304.0</ele><time>2026-04-21T12:08:21.347Z</time></trkpt><trkpt lat="43.378565" lon="0.5867027"><ele>304.0</ele><time>2026-04-21T12:08:24.347Z</time></trkpt><trkpt lat="43.3786159" lon="0.5867968"><ele>304.0</ele><time>2026-04-21T12:08:27.347Z</time></trkpt><trkpt lat="43.3786579" lon="0.5868902"><ele>304.0</ele><time>2026-04-21T12:08:30.348Z</time></trkpt><trkpt lat="43.3787045" lon="0.5869924"><ele>304.0</ele><time>2026-04-21T12:08:33.347Z</time></trkpt><trkpt lat="43.3787477" lon="0.5870802"><ele>304.0</ele><time>2026-04-21T12:08:36.348Z</time></trkpt><trkpt lat="43.3787838" lon="0.5871611"><ele>304.0</ele><time>2026-04-21T12:08:39.348Z</time></trkpt><trkpt lat="43.3788246" lon="0.5872493"><ele>304.0</ele><time>2026-04-21T12:08:42.347Z</time></trkpt><trkpt lat="43.3788676" lon="0.5873435"><ele>304.0</ele><time>2026-04-21T12:08:45.347Z</time></trkpt><trkpt lat="43.3789076" lon="0.5874533"><ele>304.0</ele><time>2026-04-21T12:08:48.347Z</time></trkpt><trkpt lat="43.3789426" lon="0.5875396"><ele>304.3333333333333</ele><time>2026-04-21T12:08:50.347Z</time></trkpt><trkpt lat="43.378977" lon="0.5876348"><ele>304.66666666666663</ele><time>2026-04-21T12:08:52.347Z</time></trkpt><trkpt lat="43.3790047" lon="0.5877313"><ele>305.0</ele><time>2026-04-21T12:08:54.347Z</time></trkpt><trkpt lat="43.3790339" lon="0.5878322"><ele>305.3333333333333</ele><time>2026-04-21T12:08:56.347Z</time></trkpt><trkpt lat="43.3790558" lon="0.5879381"><ele>305.6666666666667</ele><time>2026-04-21T12:08:58.347Z</time></trkpt><trkpt lat="43.3790734" lon="0.5880471"><ele>306.0</ele><time>2026-04-21T12:09:00.347Z</time></trkpt><trkpt lat="43.3790945" lon="0.5881437"><ele>306.0</ele><time>2026-04-21T12:09:02.347Z</time></trkpt><trkpt lat="43.3791158" lon="0.5882532"><ele>306.0</ele><time>2026-04-21T12:09:04.347Z</time></trkpt><trkpt lat="43.3791351" lon="0.5883628"><ele>306.0</ele><time>2026-04-21T12:09:06.347Z</time></trkpt><trkpt lat="43.3791646" lon="0.5884864"><ele>306.0</ele><time>2026-04-21T12:09:08.347Z</time></trkpt><trkpt lat="43.3792022" lon="0.5886196"><ele>306.0</ele><time>2026-04-21T12:09:10.347Z</time></trkpt><trkpt lat="43.3792284" lon="0.5887375"><ele>306.0</ele><time>2026-04-21T12:09:12.347Z</time></trkpt><trkpt lat="43.3792608" lon="0.5888497"><ele>306.0</ele><time>2026-04-21T12:09:14.347Z</time></trkpt><trkpt lat="43.3792789" lon="0.588968"><ele>306.0</ele><time>2026-04-21T12:09:16.347Z</time></trkpt><trkpt lat="43.3793007" lon="0.5890801"><ele>306.0</ele><time>2026-04-21T12:09:18.347Z</time></trkpt><trkpt lat="43.37933" lon="0.5891886"><ele>306.0</ele><time>2026-04-21T12:09:20.347Z</time></trkpt><trkpt lat="43.3793583" lon="0.5892966"><ele>306.0</ele><time>2026-04-21T12:09:22.347Z</time></trkpt><trkpt lat="43.3793863" lon="0.5894049"><ele>305.6666666666667</ele><time>2026-04-21T12:09:24.347Z</time></trkpt><trkpt lat="43.3794139" lon="0.5895131"><ele>305.3333333333333</ele><time>2026-04-21T12:09:26.348Z</time></trkpt><trkpt lat="43.3794434" lon="0.5896199"><ele>305.0</ele><time>2026-04-21T12:09:28.347Z</time></trkpt><trkpt lat="43.3794702" lon="0.5897152"><ele>304.66666666666663</ele><time>2026-04-21T12:09:30.347Z</time></trkpt><trkpt lat="43.3794902" lon="0.5898124"><ele>304.3333333333333</ele><time>2026-04-21T12:09:32.348Z</time></trkpt><trkpt lat="43.379507" lon="0.589912"><ele>304.0</ele><time>2026-04-21T12:09:34.347Z</time></trkpt><trkpt lat="43.3795235" lon="0.5900102"><ele>304.0</ele><time>2026-04-21T12:09:36.347Z</time></trkpt><trkpt lat="43.3795379" lon="0.5901078"><ele>304.0</ele><time>2026-04-21T12:09:38.347Z</time></trkpt><trkpt lat="43.3795515" lon="0.5902062"><ele>304.0</ele><time>2026-04-21T12:09:40.347Z</time></trkpt><trkpt lat="43.3795688" lon="0.5903059"><ele>304.0</ele><time>2026-04-21T12:09:42.348Z</time></trkpt><trkpt lat="43.3795918" lon="0.5904093"><ele>304.0</ele><time>2026-04-21T12:09:44.347Z</time></trkpt><trkpt lat="43.3796165" lon="0.5905173"><ele>304.0</ele><time>2026-04-21T12:09:46.347Z</time></trkpt><trkpt lat="43.3796495" lon="0.5906283"><ele>303.8</ele><time>2026-04-21T12:09:48.347Z</time></trkpt><trkpt lat="43.3796942" lon="0.5907408"><ele>303.59999999999997</ele><time>2026-04-21T12:09:50.347Z</time></trkpt><trkpt lat="43.3797392" lon="0.5908612"><ele>303.4</ele><time>2026-04-21T12:09:52.347Z</time></trkpt><trkpt lat="43.3797923" lon="0.5909837"><ele>303.2</ele><time>2026-04-21T12:09:54.347Z</time></trkpt><trkpt lat="43.3798476" lon="0.5911094"><ele>303.0</ele><time>2026-04-21T12:09:56.348Z</time></trkpt><trkpt lat="43.3799096" lon="0.5912332"><ele>303.0</ele><time>2026-04-21T12:09:58.348Z</time></trkpt><trkpt lat="43.3799605" lon="0.5913488"><ele>303.0</ele><time>2026-04-21T12:10:00.347Z</time></trkpt><trkpt lat="43.380015" lon="0.5914724"><ele>303.0</ele><time>2026-04-21T12:10:02.347Z</time></trkpt><trkpt lat="43.3800683" lon="0.5915954"><ele>303.0</ele><time>2026-04-21T12:10:04.348Z</time></trkpt><trkpt lat="43.3801255" lon="0.5917163"><ele>303.0</ele><time>2026-04-21T12:10:06.347Z</time></trkpt><trkpt lat="43.3801732" lon="0.5918493"><ele>303.0</ele><time>2026-04-21T12:10:08.347Z</time></trkpt><trkpt lat="43.3802193" lon="0.5919832"><ele>303.0</ele><time>2026-04-21T12:10:10.347Z</time></trkpt><trkpt lat="43.3802616" lon="0.5921194"><ele>303.0</ele><time>2026-04-21T12:10:12.347Z</time></trkpt><trkpt lat="43.3802956" lon="0.5922451"><ele>303.0</ele><time>2026-04-21T12:10:14.347Z</time></trkpt><trkpt lat="43.3803221" lon="0.5923607"><ele>303.0</ele><time>2026-04-21T12:10:16.347Z</time></trkpt><trkpt lat="43.3803436" lon="0.5924664"><ele>303.0</ele><time>2026-04-21T12:10:18.347Z</time></trkpt><trkpt lat="43.380347" lon="0.5925733"><ele>303.0</ele><time>2026-04-21T12:10:20.347Z</time></trkpt><trkpt lat="43.3803539" lon="0.5926778"><ele>303.0</ele><time>2026-04-21T12:10:22.347Z</time></trkpt><trkpt lat="43.3803579" lon="0.5927751"><ele>303.0</ele><time>2026-04-21T12:10:24.347Z</time></trkpt><trkpt lat="43.3803618" lon="0.5928751"><ele>303.0</ele><time>2026-04-21T12:10:26.347Z</time></trkpt><trkpt lat="43.3803679" lon="0.5929716"><ele>303.0</ele><time>2026-04-21T12:10:28.347Z</time></trkpt><trkpt lat="43.3803714" lon="0.5930707"><ele>303.0</ele><time>2026-04-21T12:10:30.347Z</time></trkpt><trkpt lat="43.3803746" lon="0.5931676"><ele>303.5</ele><time>2026-04-21T12:10:32.348Z</time></trkpt><trkpt lat="43.3803779" lon="0.5932602"><ele>304.0</ele><time>2026-04-21T12:10:34.347Z</time></trkpt><trkpt lat="43.3803779" lon="0.5933567"><ele>304.5</ele><time>2026-04-21T12:10:36.347Z</time></trkpt><trkpt lat="43.3803711" lon="0.5934507"><ele>305.0</ele><time>2026-04-21T12:10:38.347Z</time></trkpt><trkpt lat="43.3803672" lon="0.5935474"><ele>305.5</ele><time>2026-04-21T12:10:40.347Z</time></trkpt><trkpt lat="43.3803616" lon="0.5936954"><ele>306.0</ele><time>2026-04-21T12:10:43.347Z</time></trkpt><trkpt lat="43.3803563" lon="0.593791"><ele>306.2857142857143</ele><time>2026-04-21T12:10:45.347Z</time></trkpt><trkpt lat="43.3803553" lon="0.593887"><ele>306.57142857142856</ele><time>2026-04-21T12:10:47.347Z</time></trkpt><trkpt lat="43.3803493" lon="0.5939846"><ele>306.8571428571429</ele><time>2026-04-21T12:10:49.347Z</time></trkpt><trkpt lat="43.3803434" lon="0.5940839"><ele>307.1428571428571</ele><time>2026-04-21T12:10:51.347Z</time></trkpt><trkpt lat="43.3803444" lon="0.5941841"><ele>307.42857142857144</ele><time>2026-04-21T12:10:53.347Z</time></trkpt><trkpt lat="43.380343" lon="0.5942811"><ele>307.7142857142857</ele><time>2026-04-21T12:10:55.348Z</time></trkpt><trkpt lat="43.3803347" lon="0.5943681"><ele>308.0</ele><time>2026-04-21T12:10:57.347Z</time></trkpt><trkpt lat="43.380329" lon="0.5944686"><ele>308.1666666666667</ele><time>2026-04-21T12:11:00.347Z</time></trkpt><trkpt lat="43.3803498" lon="0.5945584"><ele>308.33333333333337</ele><time>2026-04-21T12:11:03.347Z</time></trkpt><trkpt lat="43.3804166" lon="0.5946297"><ele>308.5</ele><time>2026-04-21T12:11:06.347Z</time></trkpt><trkpt lat="43.3804892" lon="0.5946986"><ele>308.6666666666667</ele><time>2026-04-21T12:11:09.347Z</time></trkpt><trkpt lat="43.3805541" lon="0.5947748"><ele>308.8333333333333</ele><time>2026-04-21T12:11:12.347Z</time></trkpt><trkpt lat="43.3806219" lon="0.5948506"><ele>309.0</ele><time>2026-04-21T12:11:15.347Z</time></trkpt><trkpt lat="43.3806904" lon="0.5949315"><ele>309.3333333333333</ele><time>2026-04-21T12:11:18.347Z</time></trkpt><trkpt lat="43.3807642" lon="0.5950122"><ele>309.6666666666667</ele><time>2026-04-21T12:11:21.347Z</time></trkpt><trkpt lat="43.3808157" lon="0.5950717"><ele>310.0</ele><time>2026-04-21T12:11:23.348Z</time></trkpt><trkpt lat="43.3808684" lon="0.595134"><ele>310.33333333333337</ele><time>2026-04-21T12:11:25.347Z</time></trkpt><trkpt lat="43.380924" lon="0.5951976"><ele>310.6666666666667</ele><time>2026-04-21T12:11:27.347Z</time></trkpt><trkpt lat="43.3809763" lon="0.5952672"><ele>311.0</ele><time>2026-04-21T12:11:29.347Z</time></trkpt><trkpt lat="43.3810277" lon="0.5953435"><ele>311.0</ele><time>2026-04-21T12:11:31.348Z</time></trkpt><trkpt lat="43.3810812" lon="0.5954238"><ele>311.0</ele><time>2026-04-21T12:11:33.348Z</time></trkpt><trkpt lat="43.3811342" lon="0.5955087"><ele>311.0</ele><time>2026-04-21T12:11:35.348Z</time></trkpt><trkpt lat="43.38118" lon="0.5955939"><ele>311.0</ele><time>2026-04-21T12:11:37.348Z</time></trkpt><trkpt lat="43.3812222" lon="0.5956791"><ele>311.0</ele><time>2026-04-21T12:11:39.347Z</time></trkpt><trkpt lat="43.3812646" lon="0.5957675"><ele>311.0</ele><time>2026-04-21T12:11:41.347Z</time></trkpt><trkpt lat="43.3813065" lon="0.5958552"><ele>311.2857142857143</ele><time>2026-04-21T12:11:43.347Z</time></trkpt><trkpt lat="43.3813494" lon="0.5959363"><ele>311.5714285714286</ele><time>2026-04-21T12:11:45.347Z</time></trkpt><trkpt lat="43.381395" lon="0.5960151"><ele>311.8571428571429</ele><time>2026-04-21T12:11:47.347Z</time></trkpt><trkpt lat="43.381446" lon="0.5960925"><ele>312.1428571428571</ele><time>2026-04-21T12:11:49.347Z</time></trkpt><trkpt lat="43.3814985" lon="0.596168"><ele>312.42857142857144</ele><time>2026-04-21T12:11:51.348Z</time></trkpt><trkpt lat="43.3815512" lon="0.5962419"><ele>312.7142857142857</ele><time>2026-04-21T12:11:53.347Z</time></trkpt><trkpt lat="43.3816063" lon="0.5963109"><ele>313.0</ele><time>2026-04-21T12:11:55.348Z</time></trkpt><trkpt lat="43.3816592" lon="0.5963744"><ele>313.0</ele><time>2026-04-21T12:11:57.347Z</time></trkpt><trkpt lat="43.3817091" lon="0.5964334"><ele>313.0</ele><time>2026-04-21T12:11:59.347Z</time></trkpt><trkpt lat="43.3817596" lon="0.5964922"><ele>313.0</ele><time>2026-04-21T12:12:01.347Z</time></trkpt><trkpt lat="43.3818118" lon="0.5965553"><ele>313.0</ele><time>2026-04-21T12:12:03.347Z</time></trkpt><trkpt lat="43.3818629" lon="0.5966223"><ele>313.0</ele><time>2026-04-21T12:12:05.348Z</time></trkpt><trkpt lat="43.3819158" lon="0.5966873"><ele>313.0</ele><time>2026-04-21T12:12:07.347Z</time></trkpt><trkpt lat="43.381969" lon="0.5967555"><ele>313.0</ele><time>2026-04-21T12:12:09.347Z</time></trkpt><trkpt lat="43.3820223" lon="0.5968269"><ele>313.0</ele><time>2026-04-21T12:12:11.348Z</time></trkpt><trkpt lat="43.3820804" lon="0.5969049"><ele>313.0</ele><time>2026-04-21T12:12:14.347Z</time></trkpt><trkpt lat="43.382128" lon="0.5969616"><ele>313.0</ele><time>2026-04-21T12:12:16.347Z</time></trkpt><trkpt lat="43.3821796" lon="0.5970321"><ele>313.0</ele><time>2026-04-21T12:12:18.347Z</time></trkpt><trkpt lat="43.382232" lon="0.5971199"><ele>313.0</ele><time>2026-04-21T12:12:20.348Z</time></trkpt><trkpt lat="43.3822908" lon="0.5971956"><ele>313.0</ele><time>2026-04-21T12:12:22.347Z</time></trkpt><trkpt lat="43.3823576" lon="0.5972684"><ele>312.66666666666663</ele><time>2026-04-21T12:12:24.348Z</time></trkpt><trkpt lat="43.3824323" lon="0.5973447"><ele>312.3333333333333</ele><time>2026-04-21T12:12:26.347Z</time></trkpt><trkpt lat="43.3825185" lon="0.5974113"><ele>312.0</ele><time>2026-04-21T12:12:28.347Z</time></trkpt><trkpt lat="43.3826292" lon="0.5974608"><ele>311.6666666666667</ele><time>2026-04-21T12:12:30.347Z</time></trkpt><trkpt lat="43.3826937" lon="0.5974677"><ele>311.33333333333337</ele><time>2026-04-21T12:12:31.347Z</time></trkpt><trkpt lat="43.382759" lon="0.5974825"><ele>311.0</ele><time>2026-04-21T12:12:32.347Z</time></trkpt><trkpt lat="43.3828269" lon="0.5974988"><ele>311.0</ele><time>2026-04-21T12:12:33.348Z</time></trkpt><trkpt lat="43.382898" lon="0.5975123"><ele>311.0</ele><time>2026-04-21T12:12:34.347Z</time></trkpt><trkpt lat="43.3829694" lon="0.5975408"><ele>311.0</ele><time>2026-04-21T12:12:35.347Z</time></trkpt><trkpt lat="43.3830366" lon="0.5975527"><ele>311.0</ele><time>2026-04-21T12:12:36.347Z</time></trkpt><trkpt lat="43.3831039" lon="0.5975742"><ele>311.0</ele><time>2026-04-21T12:12:37.347Z</time></trkpt><trkpt lat="43.3831708" lon="0.597599"><ele>311.0</ele><time>2026-04-21T12:12:38.347Z</time></trkpt><trkpt lat="43.3832355" lon="0.5976201"><ele>311.0</ele><time>2026-04-21T12:12:39.347Z</time></trkpt><trkpt lat="43.3833015" lon="0.5976446"><ele>310.40000000000003</ele><time>2026-04-21T12:12:40.347Z</time></trkpt><trkpt lat="43.3834156" lon="0.5976926"><ele>309.8</ele><time>2026-04-21T12:12:42.347Z</time></trkpt><trkpt lat="43.383534" lon="0.5977419"><ele>309.20000000000005</ele><time>2026-04-21T12:12:44.347Z</time></trkpt><trkpt lat="43.3836348" lon="0.5977843"><ele>308.6</ele><time>2026-04-21T12:12:46.347Z</time></trkpt><trkpt lat="43.3837255" lon="0.5978278"><ele>308.0</ele><time>2026-04-21T12:12:48.348Z</time></trkpt><trkpt lat="43.383806" lon="0.5978895"><ele>308.33333333333337</ele><time>2026-04-21T12:12:50.347Z</time></trkpt><trkpt lat="43.3838729" lon="0.5979625"><ele>308.6666666666667</ele><time>2026-04-21T12:12:52.347Z</time></trkpt><trkpt lat="43.3839236" lon="0.5980267"><ele>309.0</ele><time>2026-04-21T12:12:54.347Z</time></trkpt><trkpt lat="43.3839599" lon="0.5981066"><ele>309.3333333333333</ele><time>2026-04-21T12:12:56.347Z</time></trkpt><trkpt lat="43.3839851" lon="0.5982058"><ele>309.66666666666663</ele><time>2026-04-21T12:12:58.348Z</time></trkpt><trkpt lat="43.3840118" lon="0.5983104"><ele>310.0</ele><time>2026-04-21T12:13:00.348Z</time></trkpt><trkpt lat="43.3840417" lon="0.5984155"><ele>310.0</ele><time>2026-04-21T12:13:02.347Z</time></trkpt><trkpt lat="43.3840731" lon="0.5985201"><ele>310.0</ele><time>2026-04-21T12:13:04.347Z</time></trkpt><trkpt lat="43.3841017" lon="0.598619"><ele>310.0</ele><time>2026-04-21T12:13:06.347Z</time></trkpt><trkpt lat="43.3841293" lon="0.5987162"><ele>310.0</ele><time>2026-04-21T12:13:08.347Z</time></trkpt><trkpt lat="43.3841583" lon="0.5988047"><ele>310.0</ele><time>2026-04-21T12:13:10.347Z</time></trkpt><trkpt lat="43.3841905" lon="0.5988938"><ele>310.0</ele><time>2026-04-21T12:13:12.347Z</time></trkpt><trkpt lat="43.3842241" lon="0.5989831"><ele>309.7142857142857</ele><time>2026-04-21T12:13:14.347Z</time></trkpt><trkpt lat="43.3842571" lon="0.599075"><ele>309.42857142857144</ele><time>2026-04-21T12:13:16.347Z</time></trkpt><trkpt lat="43.3842958" lon="0.5991613"><ele>309.1428571428571</ele><time>2026-04-21T12:13:18.348Z</time></trkpt><trkpt lat="43.3843415" lon="0.5992414"><ele>308.8571428571429</ele><time>2026-04-21T12:13:20.347Z</time></trkpt><trkpt lat="43.3843966" lon="0.5993083"><ele>308.57142857142856</ele><time>2026-04-21T12:13:22.347Z</time></trkpt><trkpt lat="43.3844619" lon="0.5993625"><ele>308.2857142857143</ele><time>2026-04-21T12:13:24.348Z</time></trkpt><trkpt lat="43.3845297" lon="0.5994025"><ele>308.0</ele><time>2026-04-21T12:13:26.347Z</time></trkpt><trkpt lat="43.3845909" lon="0.5994389"><ele>308.0</ele><time>2026-04-21T12:13:28.347Z</time></trkpt><trkpt lat="43.3846702" lon="0.5994872"><ele>308.0</ele><time>2026-04-21T12:13:31.347Z</time></trkpt><trkpt lat="43.384744" lon="0.5995282"><ele>308.0</ele><time>2026-04-21T12:13:34.348Z</time></trkpt><trkpt lat="43.3848093" lon="0.5995663"><ele>308.0</ele><time>2026-04-21T12:13:37.347Z</time></trkpt><trkpt lat="43.3848756" lon="0.5995962"><ele>308.0</ele><time>2026-04-21T12:13:40.347Z</time></trkpt><trkpt lat="43.3849469" lon="0.5996095"><ele>308.0</ele><time>2026-04-21T12:13:43.347Z</time></trkpt><trkpt lat="43.3850305" lon="0.5996025"><ele>308.1666666666667</ele><time>2026-04-21T12:13:46.347Z</time></trkpt><trkpt lat="43.3851198" lon="0.5996073"><ele>308.33333333333337</ele><time>2026-04-21T12:13:49.347Z</time></trkpt><trkpt lat="43.3852123" lon="0.5996035"><ele>308.5</ele><time>2026-04-21T12:13:52.347Z</time></trkpt><trkpt lat="43.3853025" lon="0.5996065"><ele>308.6666666666667</ele><time>2026-04-21T12:13:55.347Z</time></trkpt><trkpt lat="43.3853948" lon="0.5996016"><ele>308.8333333333333</ele><time>2026-04-21T12:13:58.348Z</time></trkpt><trkpt lat="43.3854598" lon="0.5996025"><ele>309.0</ele><time>2026-04-21T12:14:00.347Z</time></trkpt><trkpt lat="43.385528" lon="0.5995952"><ele>309.0</ele><time>2026-04-21T12:14:02.347Z</time></trkpt><trkpt lat="43.3855999" lon="0.5995712"><ele>309.0</ele><time>2026-04-21T12:14:04.347Z</time></trkpt><trkpt lat="43.3856659" lon="0.5995369"><ele>309.0</ele><time>2026-04-21T12:14:06.348Z</time></trkpt><trkpt lat="43.3857435" lon="0.5994988"><ele>309.0</ele><time>2026-04-21T12:14:08.347Z</time></trkpt><trkpt lat="43.3858278" lon="0.5994629"><ele>309.0</ele><time>2026-04-21T12:14:10.347Z</time></trkpt><trkpt lat="43.3859092" lon="0.5994217"><ele>309.0</ele><time>2026-04-21T12:14:12.348Z</time></trkpt><trkpt lat="43.3859888" lon="0.5993835"><ele>309.0</ele><time>2026-04-21T12:14:14.348Z</time></trkpt><trkpt lat="43.3860704" lon="0.5993539"><ele>309.0</ele><time>2026-04-21T12:14:16.347Z</time></trkpt><trkpt lat="43.3861662" lon="0.59936"><ele>309.0</ele><time>2026-04-21T12:14:18.347Z</time></trkpt><trkpt lat="43.3862579" lon="0.5993786"><ele>309.0</ele><time>2026-04-21T12:14:20.347Z</time></trkpt><trkpt lat="43.3863491" lon="0.5994428"><ele>309.0</ele><time>2026-04-21T12:14:22.347Z</time></trkpt><trkpt lat="43.3864568" lon="0.5995343"><ele>308.8571428571429</ele><time>2026-04-21T12:14:24.347Z</time></trkpt><trkpt lat="43.3865107" lon="0.5995835"><ele>308.7142857142857</ele><time>2026-04-21T12:14:25.347Z</time></trkpt><trkpt lat="43.3865657" lon="0.5996355"><ele>308.57142857142856</ele><time>2026-04-21T12:14:26.347Z</time></trkpt><trkpt lat="43.3866231" lon="0.5996891"><ele>308.42857142857144</ele><time>2026-04-21T12:14:27.348Z</time></trkpt><trkpt lat="43.3866802" lon="0.5997448"><ele>308.2857142857143</ele><time>2026-04-21T12:14:28.347Z</time></trkpt><trkpt lat="43.3867393" lon="0.599792"><ele>308.14285714285717</ele><time>2026-04-21T12:14:29.348Z</time></trkpt><trkpt lat="43.3867965" lon="0.599843"><ele>308.0</ele><time>2026-04-21T12:14:30.347Z</time></trkpt><trkpt lat="43.386856" lon="0.5998914"><ele>308.0</ele><time>2026-04-21T12:14:31.347Z</time></trkpt><trkpt lat="43.3869109" lon="0.5999432"><ele>308.0</ele><time>2026-04-21T12:14:32.347Z</time></trkpt><trkpt lat="43.3870113" lon="0.6000363"><ele>308.0</ele><time>2026-04-21T12:14:34.347Z</time></trkpt><trkpt lat="43.3871061" lon="0.6001245"><ele>308.0</ele><time>2026-04-21T12:14:36.347Z</time></trkpt><trkpt lat="43.3871977" lon="0.6002071"><ele>308.0</ele><time>2026-04-21T12:14:38.347Z</time></trkpt><trkpt lat="43.387285" lon="0.6002909"><ele>308.4</ele><time>2026-04-21T12:14:40.347Z</time></trkpt><trkpt lat="43.3873735" lon="0.6003696"><ele>308.8</ele><time>2026-04-21T12:14:42.347Z</time></trkpt><trkpt lat="43.3874606" lon="0.6004462"><ele>309.2</ele><time>2026-04-21T12:14:44.348Z</time></trkpt><trkpt lat="43.3875368" lon="0.6005123"><ele>309.6</ele><time>2026-04-21T12:14:46.347Z</time></trkpt><trkpt lat="43.3876093" lon="0.6005824"><ele>310.0</ele><time>2026-04-21T12:14:48.347Z</time></trkpt><trkpt lat="43.3876891" lon="0.6006455"><ele>310.0</ele><time>2026-04-21T12:14:50.347Z</time></trkpt><trkpt lat="43.3877576" lon="0.6007071"><ele>310.0</ele><time>2026-04-21T12:14:52.347Z</time></trkpt><trkpt lat="43.3878229" lon="0.6007672"><ele>310.0</ele><time>2026-04-21T12:14:54.347Z</time></trkpt><trkpt lat="43.3878976" lon="0.6008273"><ele>310.0</ele><time>2026-04-21T12:14:56.347Z</time></trkpt><trkpt lat="43.3879713" lon="0.6008849"><ele>310.0</ele><time>2026-04-21T12:14:58.348Z</time></trkpt><trkpt lat="43.3880482" lon="0.6009536"><ele>310.0</ele><time>2026-04-21T12:15:00.348Z</time></trkpt><trkpt lat="43.3881274" lon="0.6010255"><ele>310.2</ele><time>2026-04-21T12:15:02.348Z</time></trkpt><trkpt lat="43.3882176" lon="0.6010881"><ele>310.4</ele><time>2026-04-21T12:15:04.347Z</time></trkpt><trkpt lat="43.3883098" lon="0.6011411"><ele>310.6</ele><time>2026-04-21T12:15:06.347Z</time></trkpt><trkpt lat="43.3884031" lon="0.6011961"><ele>310.8</ele><time>2026-04-21T12:15:08.347Z</time></trkpt><trkpt lat="43.3885013" lon="0.6012513"><ele>311.0</ele><time>2026-04-21T12:15:10.347Z</time></trkpt><trkpt lat="43.3886038" lon="0.6013192"><ele>310.6</ele><time>2026-04-21T12:15:12.348Z</time></trkpt><trkpt lat="43.3886959" lon="0.6013703"><ele>310.20000000000005</ele><time>2026-04-21T12:15:14.347Z</time></trkpt><trkpt lat="43.3887844" lon="0.601419"><ele>309.79999999999995</ele><time>2026-04-21T12:15:16.347Z</time></trkpt><trkpt lat="43.3888758" lon="0.6014677"><ele>309.4</ele><time>2026-04-21T12:15:18.347Z</time></trkpt><trkpt lat="43.388969" lon="0.6015305"><ele>309.0</ele><time>2026-04-21T12:15:20.347Z</time></trkpt><trkpt lat="43.3890525" lon="0.6015808"><ele>309.0</ele><time>2026-04-21T12:15:22.348Z</time></trkpt><trkpt lat="43.38913" lon="0.6016314"><ele>309.0</ele><time>2026-04-21T12:15:24.347Z</time></trkpt><trkpt lat="43.389216" lon="0.6016721"><ele>309.0</ele><time>2026-04-21T12:15:26.347Z</time></trkpt><trkpt lat="43.389293" lon="0.6017075"><ele>309.0</ele><time>2026-04-21T12:15:28.347Z</time></trkpt><trkpt lat="43.3893652" lon="0.6017516"><ele>309.0</ele><time>2026-04-21T12:15:30.347Z</time></trkpt><trkpt lat="43.3894437" lon="0.6018011"><ele>309.0</ele><time>2026-04-21T12:15:32.347Z</time></trkpt><trkpt lat="43.3895265" lon="0.6018493"><ele>309.0</ele><time>2026-04-21T12:15:34.348Z</time></trkpt><trkpt lat="43.3896007" lon="0.6018903"><ele>309.0</ele><time>2026-04-21T12:15:36.347Z</time></trkpt><trkpt lat="43.3896739" lon="0.6019427"><ele>309.0</ele><time>2026-04-21T12:15:38.347Z</time></trkpt><trkpt lat="43.3897475" lon="0.6019945"><ele>309.0</ele><time>2026-04-21T12:15:40.347Z</time></trkpt><trkpt lat="43.3898227" lon="0.6020499"><ele>309.0</ele><time>2026-04-21T12:15:42.347Z</time></trkpt><trkpt lat="43.3899035" lon="0.6021131"><ele>309.0</ele><time>2026-04-21T12:15:44.347Z</time></trkpt><trkpt lat="43.3899873" lon="0.6021703"><ele>309.1666666666667</ele><time>2026-04-21T12:15:46.347Z</time></trkpt><trkpt lat="43.3900655" lon="0.6022296"><ele>309.3333333333333</ele><time>2026-04-21T12:15:48.347Z</time></trkpt><trkpt lat="43.3901389" lon="0.6022803"><ele>309.5</ele><time>2026-04-21T12:15:50.347Z</time></trkpt><trkpt lat="43.3902125" lon="0.6023412"><ele>309.66666666666663</ele><time>2026-04-21T12:15:52.347Z</time></trkpt><trkpt lat="43.3902869" lon="0.6024036"><ele>309.8333333333333</ele><time>2026-04-21T12:15:54.348Z</time></trkpt><trkpt lat="43.3903705" lon="0.6024612"><ele>310.0</ele><time>2026-04-21T12:15:56.347Z</time></trkpt><trkpt lat="43.390444" lon="0.6025237"><ele>310.16666666666663</ele><time>2026-04-21T12:15:58.347Z</time></trkpt><trkpt lat="43.390519" lon="0.6025959"><ele>310.3333333333333</ele><time>2026-04-21T12:16:00.347Z</time></trkpt><trkpt lat="43.3905995" lon="0.602642"><ele>310.5</ele><time>2026-04-21T12:16:02.347Z</time></trkpt><trkpt lat="43.3906747" lon="0.6026956"><ele>310.6666666666667</ele><time>2026-04-21T12:16:04.348Z</time></trkpt><trkpt lat="43.3907449" lon="0.602751"><ele>310.83333333333337</ele><time>2026-04-21T12:16:06.347Z</time></trkpt><trkpt lat="43.3908167" lon="0.6028066"><ele>311.0</ele><time>2026-04-21T12:16:08.347Z</time></trkpt><trkpt lat="43.3908844" lon="0.6028619"><ele>311.1666666666667</ele><time>2026-04-21T12:16:10.347Z</time></trkpt><trkpt lat="43.3909558" lon="0.6029155"><ele>311.33333333333337</ele><time>2026-04-21T12:16:12.347Z</time></trkpt><trkpt lat="43.3910287" lon="0.602965"><ele>311.5</ele><time>2026-04-21T12:16:14.347Z</time></trkpt><trkpt lat="43.3911018" lon="0.6030143"><ele>311.6666666666667</ele><time>2026-04-21T12:16:16.347Z</time></trkpt><trkpt lat="43.3911744" lon="0.6030672"><ele>311.8333333333333</ele><time>2026-04-21T12:16:18.347Z</time></trkpt><trkpt lat="43.391251" lon="0.6031185"><ele>312.0</ele><time>2026-04-21T12:16:20.347Z</time></trkpt><trkpt lat="43.3913297" lon="0.6031644"><ele>311.8333333333333</ele><time>2026-04-21T12:16:22.347Z</time></trkpt><trkpt lat="43.3914078" lon="0.6032107"><ele>311.6666666666667</ele><time>2026-04-21T12:16:24.347Z</time></trkpt><trkpt lat="43.3914887" lon="0.603259"><ele>311.5</ele><time>2026-04-21T12:16:26.348Z</time></trkpt><trkpt lat="43.3915749" lon="0.603309"><ele>311.33333333333337</ele><time>2026-04-21T12:16:28.347Z</time></trkpt><trkpt lat="43.3916602" lon="0.6033465"><ele>311.1666666666667</ele><time>2026-04-21T12:16:30.347Z</time></trkpt><trkpt lat="43.3917509" lon="0.6033735"><ele>311.0</ele><time>2026-04-21T12:16:32.347Z</time></trkpt><trkpt lat="43.3918379" lon="0.6034029"><ele>311.0</ele><time>2026-04-21T12:16:34.347Z</time></trkpt><trkpt lat="43.3919295" lon="0.6034189"><ele>311.0</ele><time>2026-04-21T12:16:36.347Z</time></trkpt><trkpt lat="43.392018" lon="0.6034514"><ele>311.0</ele><time>2026-04-21T12:16:38.347Z</time></trkpt><trkpt lat="43.3921082" lon="0.6034772"><ele>311.0</ele><time>2026-04-21T12:16:40.348Z</time></trkpt><trkpt lat="43.392198" lon="0.6035084"><ele>311.0</ele><time>2026-04-21T12:16:42.347Z</time></trkpt><trkpt lat="43.3922922" lon="0.60354"><ele>310.25</ele><time>2026-04-21T12:16:44.347Z</time></trkpt><trkpt lat="43.3923885" lon="0.6035715"><ele>309.5</ele><time>2026-04-21T12:16:46.347Z</time></trkpt><trkpt lat="43.392499" lon="0.6036027"><ele>308.75</ele><time>2026-04-21T12:16:48.347Z</time></trkpt><trkpt lat="43.3926158" lon="0.6036343"><ele>308.0</ele><time>2026-04-21T12:16:50.347Z</time></trkpt><trkpt lat="43.3927397" lon="0.6036768"><ele>308.0</ele><time>2026-04-21T12:16:52.347Z</time></trkpt><trkpt lat="43.3928044" lon="0.6037039"><ele>308.0</ele><time>2026-04-21T12:16:53.347Z</time></trkpt><trkpt lat="43.3928696" lon="0.6037404"><ele>308.0</ele><time>2026-04-21T12:16:54.348Z</time></trkpt><trkpt lat="43.3929429" lon="0.6037694"><ele>308.0</ele><time>2026-04-21T12:16:55.348Z</time></trkpt><trkpt lat="43.3930139" lon="0.60381"><ele>308.0</ele><time>2026-04-21T12:16:56.347Z</time></trkpt><trkpt lat="43.3930884" lon="0.6038602"><ele>308.0</ele><time>2026-04-21T12:16:57.347Z</time></trkpt><trkpt lat="43.3931622" lon="0.6039173"><ele>306.6</ele><time>2026-04-21T12:16:58.347Z</time></trkpt><trkpt lat="43.3932369" lon="0.603981"><ele>305.20000000000005</ele><time>2026-04-21T12:16:59.347Z</time></trkpt><trkpt lat="43.3933085" lon="0.6040517"><ele>303.8</ele><time>2026-04-21T12:17:00.347Z</time></trkpt><trkpt lat="43.3933817" lon="0.6041211"><ele>302.40000000000003</ele><time>2026-04-21T12:17:01.348Z</time></trkpt><trkpt lat="43.3934556" lon="0.6042046"><ele>301.0</ele><time>2026-04-21T12:17:02.348Z</time></trkpt><trkpt lat="43.393528" lon="0.60429"><ele>301.0</ele><time>2026-04-21T12:17:03.347Z</time></trkpt><trkpt lat="43.3936003" lon="0.6043778"><ele>301.0</ele><time>2026-04-21T12:17:04.347Z</time></trkpt><trkpt lat="43.3936671" lon="0.6044663"><ele>301.0</ele><time>2026-04-21T12:17:05.347Z</time></trkpt><trkpt lat="43.393733" lon="0.6045532"><ele>301.0</ele><time>2026-04-21T12:17:06.347Z</time></trkpt><trkpt lat="43.3937951" lon="0.6046391"><ele>301.0</ele><time>2026-04-21T12:17:07.347Z</time></trkpt><trkpt lat="43.3938563" lon="0.6047241"><ele>300.66666666666663</ele><time>2026-04-21T12:17:08.348Z</time></trkpt><trkpt lat="43.3939181" lon="0.6048082"><ele>300.3333333333333</ele><time>2026-04-21T12:17:09.348Z</time></trkpt><trkpt lat="43.3939741" lon="0.6048888"><ele>300.0</ele><time>2026-04-21T12:17:10.347Z</time></trkpt><trkpt lat="43.3940315" lon="0.6049668"><ele>299.6666666666667</ele><time>2026-04-21T12:17:11.347Z</time></trkpt><trkpt lat="43.394082" lon="0.605059"><ele>299.33333333333337</ele><time>2026-04-21T12:17:12.347Z</time></trkpt><trkpt lat="43.3941371" lon="0.605131"><ele>299.0</ele><time>2026-04-21T12:17:13.347Z</time></trkpt><trkpt lat="43.3941881" lon="0.6051987"><ele>299.0</ele><time>2026-04-21T12:17:14.347Z</time></trkpt><trkpt lat="43.3942371" lon="0.6052638"><ele>299.0</ele><time>2026-04-21T12:17:15.347Z</time></trkpt><trkpt lat="43.3942891" lon="0.6053247"><ele>299.0</ele><time>2026-04-21T12:17:16.347Z</time></trkpt><trkpt lat="43.3943394" lon="0.6053963"><ele>299.0</ele><time>2026-04-21T12:17:17.347Z</time></trkpt><trkpt lat="43.394394" lon="0.6054554"><ele>299.0</ele><time>2026-04-21T12:17:18.347Z</time></trkpt><trkpt lat="43.3944434" lon="0.6055127"><ele>299.0</ele><time>2026-04-21T12:17:19.347Z</time></trkpt><trkpt lat="43.3945376" lon="0.6056154"><ele>299.0</ele><time>2026-04-21T12:17:21.347Z</time></trkpt><trkpt lat="43.3946357" lon="0.6057216"><ele>299.0</ele><time>2026-04-21T12:17:23.347Z</time></trkpt><trkpt lat="43.394737" lon="0.6058239"><ele>299.0</ele><time>2026-04-21T12:17:25.347Z</time></trkpt><trkpt lat="43.394837" lon="0.6059236"><ele>299.0</ele><time>2026-04-21T12:17:27.348Z</time></trkpt><trkpt lat="43.3949245" lon="0.606017"><ele>299.0</ele><time>2026-04-21T12:17:29.347Z</time></trkpt><trkpt lat="43.3950079" lon="0.6060951"><ele>299.0</ele><time>2026-04-21T12:17:31.347Z</time></trkpt><trkpt lat="43.3950902" lon="0.6061631"><ele>299.0</ele><time>2026-04-21T12:17:33.347Z</time></trkpt><trkpt lat="43.3951495" lon="0.6062415"><ele>299.0</ele><time>2026-04-21T12:17:35.347Z</time></trkpt><trkpt lat="43.3952141" lon="0.6063061"><ele>299.0</ele><time>2026-04-21T12:17:37.347Z</time></trkpt><trkpt lat="43.3952737" lon="0.6063707"><ele>299.0</ele><time>2026-04-21T12:17:39.347Z</time></trkpt><trkpt lat="43.395339" lon="0.606435"><ele>299.5</ele><time>2026-04-21T12:17:41.347Z</time></trkpt><trkpt lat="43.3954052" lon="0.6065012"><ele>300.0</ele><time>2026-04-21T12:17:43.347Z</time></trkpt><trkpt lat="43.3954691" lon="0.6065648"><ele>300.5</ele><time>2026-04-21T12:17:45.348Z</time></trkpt><trkpt lat="43.3955355" lon="0.6066271"><ele>301.0</ele><time>2026-04-21T12:17:47.347Z</time></trkpt><trkpt lat="43.395597" lon="0.606692"><ele>301.5</ele><time>2026-04-21T12:17:49.347Z</time></trkpt><trkpt lat="43.3956587" lon="0.6067551"><ele>302.0</ele><time>2026-04-21T12:17:51.347Z</time></trkpt><trkpt lat="43.395721" lon="0.606817"><ele>302.6666666666667</ele><time>2026-04-21T12:17:53.347Z</time></trkpt><trkpt lat="43.3957807" lon="0.6068838"><ele>303.33333333333337</ele><time>2026-04-21T12:17:55.347Z</time></trkpt><trkpt lat="43.395843" lon="0.6069516"><ele>304.0</ele><time>2026-04-21T12:17:57.347Z</time></trkpt><trkpt lat="43.3959064" lon="0.6070154"><ele>304.6666666666667</ele><time>2026-04-21T12:17:59.348Z</time></trkpt><trkpt lat="43.3959685" lon="0.6070745"><ele>305.3333333333333</ele><time>2026-04-21T12:18:01.347Z</time></trkpt><trkpt lat="43.3960241" lon="0.6071255"><ele>306.0</ele><time>2026-04-21T12:18:03.347Z</time></trkpt><trkpt lat="43.3960979" lon="0.6071794"><ele>306.3333333333333</ele><time>2026-04-21T12:18:06.347Z</time></trkpt><trkpt lat="43.3961585" lon="0.6072308"><ele>306.6666666666667</ele><time>2026-04-21T12:18:10.347Z</time></trkpt><trkpt lat="43.3962387" lon="0.6072706"><ele>307.0</ele><time>2026-04-21T12:18:14.347Z</time></trkpt><trkpt lat="43.3963202" lon="0.6073197"><ele>307.33333333333337</ele><time>2026-04-21T12:18:17.348Z</time></trkpt><trkpt lat="43.3963833" lon="0.6073543"><ele>307.6666666666667</ele><time>2026-04-21T12:18:19.347Z</time></trkpt><trkpt lat="43.396454" lon="0.6073859"><ele>308.0</ele><time>2026-04-21T12:18:21.347Z</time></trkpt><trkpt lat="43.3965292" lon="0.6074226"><ele>308.0</ele><time>2026-04-21T12:18:23.347Z</time></trkpt><trkpt lat="43.3966074" lon="0.6074575"><ele>308.0</ele><time>2026-04-21T12:18:25.347Z</time></trkpt><trkpt lat="43.3966873" lon="0.6074877"><ele>308.0</ele><time>2026-04-21T12:18:27.347Z</time></trkpt><trkpt lat="43.3967685" lon="0.6075185"><ele>308.0</ele><time>2026-04-21T12:18:29.347Z</time></trkpt><trkpt lat="43.3968553" lon="0.607542"><ele>308.0</ele><time>2026-04-21T12:18:31.347Z</time></trkpt><trkpt lat="43.3969471" lon="0.6075789"><ele>308.0</ele><time>2026-04-21T12:18:33.347Z</time></trkpt><trkpt lat="43.3970414" lon="0.6076158"><ele>308.0</ele><time>2026-04-21T12:18:35.347Z</time></trkpt><trkpt lat="43.3971373" lon="0.607661"><ele>308.0</ele><time>2026-04-21T12:18:37.347Z</time></trkpt><trkpt lat="43.3972308" lon="0.607719"><ele>308.0</ele><time>2026-04-21T12:18:39.347Z</time></trkpt><trkpt lat="43.3973125" lon="0.6077805"><ele>308.0</ele><time>2026-04-21T12:18:41.348Z</time></trkpt><trkpt lat="43.3973904" lon="0.6078467"><ele>308.0</ele><time>2026-04-21T12:18:43.348Z</time></trkpt><trkpt lat="43.3974613" lon="0.6079153"><ele>308.0</ele><time>2026-04-21T12:18:45.347Z</time></trkpt><trkpt lat="43.3975266" lon="0.6079868"><ele>308.0</ele><time>2026-04-21T12:18:47.347Z</time></trkpt><trkpt lat="43.3975832" lon="0.6080594"><ele>308.0</ele><time>2026-04-21T12:18:49.347Z</time></trkpt><trkpt lat="43.397643" lon="0.6081202"><ele>308.0</ele><time>2026-04-21T12:18:51.348Z</time></trkpt><trkpt lat="43.3977016" lon="0.6081867"><ele>308.0</ele><time>2026-04-21T12:18:53.347Z</time></trkpt><trkpt lat="43.3977569" lon="0.6082487"><ele>308.0</ele><time>2026-04-21T12:18:55.347Z</time></trkpt><trkpt lat="43.3978159" lon="0.6083118"><ele>308.0</ele><time>2026-04-21T12:18:57.347Z</time></trkpt><trkpt lat="43.3978766" lon="0.6083705"><ele>308.0</ele><time>2026-04-21T12:18:59.347Z</time></trkpt><trkpt lat="43.3979299" lon="0.6084344"><ele>308.0</ele><time>2026-04-21T12:19:01.347Z</time></trkpt><trkpt lat="43.3979812" lon="0.608499"><ele>308.0</ele><time>2026-04-21T12:19:03.347Z</time></trkpt><trkpt lat="43.3980307" lon="0.6085643"><ele>308.0</ele><time>2026-04-21T12:19:05.347Z</time></trkpt><trkpt lat="43.3980803" lon="0.6086304"><ele>308.0</ele><time>2026-04-21T12:19:07.347Z</time></trkpt><trkpt lat="43.3981286" lon="0.6087005"><ele>308.0</ele><time>2026-04-21T12:19:09.347Z</time></trkpt><trkpt lat="43.398171" lon="0.6087764"><ele>309.1666666666667</ele><time>2026-04-21T12:19:11.347Z</time></trkpt><trkpt lat="43.3982118" lon="0.6088524"><ele>310.33333333333337</ele><time>2026-04-21T12:19:13.347Z</time></trkpt><trkpt lat="43.3982487" lon="0.6089281"><ele>311.5</ele><time>2026-04-21T12:19:15.347Z</time></trkpt><trkpt lat="43.3982947" lon="0.6090368"><ele>312.6666666666667</ele><time>2026-04-21T12:19:18.347Z</time></trkpt><trkpt lat="43.3983401" lon="0.6091442"><ele>313.8333333333333</ele><time>2026-04-21T12:19:21.347Z</time></trkpt><trkpt lat="43.3983745" lon="0.6092171"><ele>315.0</ele><time>2026-04-21T12:19:23.347Z</time></trkpt><trkpt lat="43.3984262" lon="0.6093258"><ele>315.0</ele><time>2026-04-21T12:19:26.348Z</time></trkpt><trkpt lat="43.3984621" lon="0.6093999"><ele>315.0</ele><time>2026-04-21T12:19:28.347Z</time></trkpt><trkpt lat="43.3985002" lon="0.6094768"><ele>315.0</ele><time>2026-04-21T12:19:30.348Z</time></trkpt><trkpt lat="43.398543" lon="0.6095514"><ele>315.0</ele><time>2026-04-21T12:19:32.347Z</time></trkpt><trkpt lat="43.398582" lon="0.6096239"><ele>315.0</ele><time>2026-04-21T12:19:34.347Z</time></trkpt><trkpt lat="43.398636" lon="0.6097281"><ele>315.0</ele><time>2026-04-21T12:19:37.347Z</time></trkpt><trkpt lat="43.3986938" lon="0.6098255"><ele>314.6666666666667</ele><time>2026-04-21T12:19:40.347Z</time></trkpt><trkpt lat="43.398736" lon="0.6098908"><ele>314.3333333333333</ele><time>2026-04-21T12:19:42.347Z</time></trkpt><trkpt lat="43.3987806" lon="0.6099607"><ele>314.0</ele><time>2026-04-21T12:19:44.347Z</time></trkpt><trkpt lat="43.3988311" lon="0.6100324"><ele>313.66666666666663</ele><time>2026-04-21T12:19:46.348Z</time></trkpt><trkpt lat="43.3988846" lon="0.6101066"><ele>313.3333333333333</ele><time>2026-04-21T12:19:48.347Z</time></trkpt><trkpt lat="43.3989443" lon="0.6101815"><ele>313.0</ele><time>2026-04-21T12:19:50.347Z</time></trkpt><trkpt lat="43.3990466" lon="0.6103"><ele>312.2</ele><time>2026-04-21T12:19:53.347Z</time></trkpt><trkpt lat="43.3991198" lon="0.6103924"><ele>311.4</ele><time>2026-04-21T12:19:55.347Z</time></trkpt><trkpt lat="43.3991974" lon="0.6104991"><ele>310.59999999999997</ele><time>2026-04-21T12:19:57.347Z</time></trkpt><trkpt lat="43.3992825" lon="0.6105971"><ele>309.8</ele><time>2026-04-21T12:19:59.347Z</time></trkpt><trkpt lat="43.3993669" lon="0.6107068"><ele>309.0</ele><time>2026-04-21T12:20:01.347Z</time></trkpt><trkpt lat="43.3994559" lon="0.610812"><ele>309.0</ele><time>2026-04-21T12:20:03.347Z</time></trkpt><trkpt lat="43.3995395" lon="0.6109109"><ele>309.0</ele><time>2026-04-21T12:20:05.347Z</time></trkpt><trkpt lat="43.3996101" lon="0.6110173"><ele>309.0</ele><time>2026-04-21T12:20:07.347Z</time></trkpt><trkpt lat="43.3996748" lon="0.6111092"><ele>309.0</ele><time>2026-04-21T12:20:09.347Z</time></trkpt><trkpt lat="43.3997393" lon="0.6111932"><ele>309.0</ele><time>2026-04-21T12:20:11.347Z</time></trkpt><trkpt lat="43.3998091" lon="0.6112769"><ele>309.0</ele><time>2026-04-21T12:20:13.348Z</time></trkpt><trkpt lat="43.3998774" lon="0.6113602"><ele>309.0</ele><time>2026-04-21T12:20:15.348Z</time></trkpt><trkpt lat="43.399947" lon="0.6114403"><ele>309.0</ele><time>2026-04-21T12:20:17.347Z</time></trkpt><trkpt lat="43.4000092" lon="0.6115165"><ele>309.0</ele><time>2026-04-21T12:20:19.347Z</time></trkpt><trkpt lat="43.400065" lon="0.6115882"><ele>309.0</ele><time>2026-04-21T12:20:21.348Z</time></trkpt><trkpt lat="43.400121" lon="0.6116461"><ele>309.0</ele><time>2026-04-21T12:20:23.347Z</time></trkpt><trkpt lat="43.400171" lon="0.61171"><ele>309.0</ele><time>2026-04-21T12:20:25.347Z</time></trkpt><trkpt lat="43.4002432" lon="0.611793"><ele>309.0</ele><time>2026-04-21T12:20:28.348Z</time></trkpt><trkpt lat="43.4003094" lon="0.6118726"><ele>309.0</ele><time>2026-04-21T12:20:31.347Z</time></trkpt><trkpt lat="43.4003724" lon="0.6119688"><ele>309.0</ele><time>2026-04-21T12:20:34.347Z</time></trkpt><trkpt lat="43.400416" lon="0.6120313"><ele>309.0</ele><time>2026-04-21T12:20:36.347Z</time></trkpt><trkpt lat="43.4004937" lon="0.6121038"><ele>309.0</ele><time>2026-04-21T12:20:39.347Z</time></trkpt><trkpt lat="43.4005499" lon="0.6121627"><ele>308.5</ele><time>2026-04-21T12:20:41.348Z</time></trkpt><trkpt lat="43.4006056" lon="0.6122363"><ele>308.0</ele><time>2026-04-21T12:20:43.347Z</time></trkpt><trkpt lat="43.4006664" lon="0.612314"><ele>307.5</ele><time>2026-04-21T12:20:45.347Z</time></trkpt><trkpt lat="43.4007332" lon="0.6123865"><ele>307.0</ele><time>2026-04-21T12:20:47.348Z</time></trkpt><trkpt lat="43.4008058" lon="0.6124489"><ele>306.5</ele><time>2026-04-21T12:20:49.347Z</time></trkpt><trkpt lat="43.4008792" lon="0.6125089"><ele>306.0</ele><time>2026-04-21T12:20:51.347Z</time></trkpt><trkpt lat="43.4009492" lon="0.6125648"><ele>306.0</ele><time>2026-04-21T12:20:53.348Z</time></trkpt><trkpt lat="43.4010201" lon="0.6126024"><ele>306.0</ele><time>2026-04-21T12:20:55.348Z</time></trkpt><trkpt lat="43.401086" lon="0.6126305"><ele>306.0</ele><time>2026-04-21T12:20:57.347Z</time></trkpt><trkpt lat="43.4011567" lon="0.6126601"><ele>306.0</ele><time>2026-04-21T12:20:59.347Z</time></trkpt><trkpt lat="43.4012292" lon="0.6126865"><ele>306.0</ele><time>2026-04-21T12:21:01.348Z</time></trkpt><trkpt lat="43.4013032" lon="0.6127032"><ele>306.0</ele><time>2026-04-21T12:21:03.347Z</time></trkpt><trkpt lat="43.4013778" lon="0.6127237"><ele>306.0</ele><time>2026-04-21T12:21:05.347Z</time></trkpt><trkpt lat="43.4014518" lon="0.6127318"><ele>305.8</ele><time>2026-04-21T12:21:07.348Z</time></trkpt><trkpt lat="43.4015319" lon="0.6127288"><ele>305.6</ele><time>2026-04-21T12:21:09.347Z</time></trkpt><trkpt lat="43.4016164" lon="0.6127181"><ele>305.4</ele><time>2026-04-21T12:21:11.347Z</time></trkpt><trkpt lat="43.4017046" lon="0.6127048"><ele>305.2</ele><time>2026-04-21T12:21:13.347Z</time></trkpt><trkpt lat="43.4018012" lon="0.6126925"><ele>305.0</ele><time>2026-04-21T12:21:15.347Z</time></trkpt><trkpt lat="43.4019047" lon="0.6126721"><ele>305.0</ele><time>2026-04-21T12:21:17.347Z</time></trkpt><trkpt lat="43.4020181" lon="0.6126375"><ele>305.0</ele><time>2026-04-21T12:21:19.347Z</time></trkpt><trkpt lat="43.4021302" lon="0.6126078"><ele>305.0</ele><time>2026-04-21T12:21:21.348Z</time></trkpt><trkpt lat="43.4022574" lon="0.6125713"><ele>305.0</ele><time>2026-04-21T12:21:23.347Z</time></trkpt><trkpt lat="43.4023829" lon="0.6125394"><ele>304.5714285714286</ele><time>2026-04-21T12:21:25.347Z</time></trkpt><trkpt lat="43.4024479" lon="0.6125251"><ele>304.1428571428571</ele><time>2026-04-21T12:21:26.347Z</time></trkpt><trkpt lat="43.4025114" lon="0.6125086"><ele>303.7142857142857</ele><time>2026-04-21T12:21:27.347Z</time></trkpt><trkpt lat="43.4025777" lon="0.6124893"><ele>303.28571428571433</ele><time>2026-04-21T12:21:28.347Z</time></trkpt><trkpt lat="43.4026507" lon="0.6124755"><ele>302.8571428571429</ele><time>2026-04-21T12:21:29.347Z</time></trkpt><trkpt lat="43.402724" lon="0.6124611"><ele>302.42857142857144</ele><time>2026-04-21T12:21:30.348Z</time></trkpt><trkpt lat="43.4027966" lon="0.612445"><ele>302.0</ele><time>2026-04-21T12:21:31.348Z</time></trkpt><trkpt lat="43.4028695" lon="0.6124356"><ele>302.00000000000006</ele><time>2026-04-21T12:21:32.347Z</time></trkpt><trkpt lat="43.4029436" lon="0.6124278"><ele>302.0</ele><time>2026-04-21T12:21:33.347Z</time></trkpt><trkpt lat="43.4030162" lon="0.6124098"><ele>302.0</ele><time>2026-04-21T12:21:34.347Z</time></trkpt><trkpt lat="43.4030924" lon="0.6124068"><ele>302.0</ele><time>2026-04-21T12:21:35.347Z</time></trkpt><trkpt lat="43.4031671" lon="0.6124081"><ele>302.0</ele><time>2026-04-21T12:21:36.347Z</time></trkpt><trkpt lat="43.4032411" lon="0.6124158"><ele>302.00000000000006</ele><time>2026-04-21T12:21:37.347Z</time></trkpt><trkpt lat="43.4033131" lon="0.6124333"><ele>302.0</ele><time>2026-04-21T12:21:38.347Z</time></trkpt><trkpt lat="43.4033834" lon="0.6124526"><ele>301.83333333333337</ele><time>2026-04-21T12:21:39.347Z</time></trkpt><trkpt lat="43.4034497" lon="0.6124871"><ele>301.6666666666667</ele><time>2026-04-21T12:21:40.347Z</time></trkpt><trkpt lat="43.4035112" lon="0.6125243"><ele>301.5</ele><time>2026-04-21T12:21:41.348Z</time></trkpt><trkpt lat="43.4035756" lon="0.6125726"><ele>301.3333333333333</ele><time>2026-04-21T12:21:42.348Z</time></trkpt><trkpt lat="43.4036349" lon="0.6126141"><ele>301.16666666666663</ele><time>2026-04-21T12:21:43.347Z</time></trkpt><trkpt lat="43.4037302" lon="0.6127015"><ele>301.0</ele><time>2026-04-21T12:21:45.347Z</time></trkpt><trkpt lat="43.4038158" lon="0.6127871"><ele>301.40000000000003</ele><time>2026-04-21T12:21:47.347Z</time></trkpt><trkpt lat="43.4038895" lon="0.6128751"><ele>301.8</ele><time>2026-04-21T12:21:49.348Z</time></trkpt><trkpt lat="43.4039623" lon="0.6129658"><ele>302.20000000000005</ele><time>2026-04-21T12:21:51.347Z</time></trkpt><trkpt lat="43.4040366" lon="0.6130493"><ele>302.6</ele><time>2026-04-21T12:21:53.347Z</time></trkpt><trkpt lat="43.4041065" lon="0.6131404"><ele>303.0</ele><time>2026-04-21T12:21:55.347Z</time></trkpt><trkpt lat="43.4041747" lon="0.6132201"><ele>303.0</ele><time>2026-04-21T12:21:57.347Z</time></trkpt><trkpt lat="43.4042393" lon="0.613307"><ele>303.0</ele><time>2026-04-21T12:21:59.347Z</time></trkpt><trkpt lat="43.40431" lon="0.6133807"><ele>303.0</ele><time>2026-04-21T12:22:01.347Z</time></trkpt><trkpt lat="43.404375" lon="0.6134618"><ele>303.0</ele><time>2026-04-21T12:22:03.347Z</time></trkpt><trkpt lat="43.4044433" lon="0.6135361"><ele>303.0</ele><time>2026-04-21T12:22:05.348Z</time></trkpt><trkpt lat="43.4045062" lon="0.6136173"><ele>303.0</ele><time>2026-04-21T12:22:07.347Z</time></trkpt><trkpt lat="43.4045689" lon="0.6136883"><ele>303.1666666666667</ele><time>2026-04-21T12:22:09.347Z</time></trkpt><trkpt lat="43.4046251" lon="0.6137561"><ele>303.3333333333333</ele><time>2026-04-21T12:22:11.347Z</time></trkpt><trkpt lat="43.4046795" lon="0.6138094"><ele>303.5</ele><time>2026-04-21T12:22:13.347Z</time></trkpt><trkpt lat="43.4047609" lon="0.6138789"><ele>303.66666666666663</ele><time>2026-04-21T12:22:16.347Z</time></trkpt><trkpt lat="43.4048214" lon="0.6139204"><ele>303.8333333333333</ele><time>2026-04-21T12:22:18.347Z</time></trkpt><trkpt lat="43.4048855" lon="0.6139716"><ele>304.0</ele><time>2026-04-21T12:22:20.347Z</time></trkpt><trkpt lat="43.4049593" lon="0.6140466"><ele>304.4</ele><time>2026-04-21T12:22:22.347Z</time></trkpt><trkpt lat="43.4050234" lon="0.6141284"><ele>304.79999999999995</ele><time>2026-04-21T12:22:24.347Z</time></trkpt><trkpt lat="43.4050903" lon="0.6142237"><ele>305.20000000000005</ele><time>2026-04-21T12:22:26.347Z</time></trkpt><trkpt lat="43.4051551" lon="0.6143349"><ele>305.6</ele><time>2026-04-21T12:22:28.347Z</time></trkpt><trkpt lat="43.4052341" lon="0.6144205"><ele>306.0</ele><time>2026-04-21T12:22:30.347Z</time></trkpt><trkpt lat="43.405312" lon="0.6145136"><ele>306.40000000000003</ele><time>2026-04-21T12:22:32.348Z</time></trkpt><trkpt lat="43.4053874" lon="0.6145923"><ele>306.8</ele><time>2026-04-21T12:22:34.347Z</time></trkpt><trkpt lat="43.4054738" lon="0.6146718"><ele>307.20000000000005</ele><time>2026-04-21T12:22:36.347Z</time></trkpt><trkpt lat="43.405559" lon="0.6147423"><ele>307.6</ele><time>2026-04-21T12:22:38.347Z</time></trkpt><trkpt lat="43.4056443" lon="0.6148015"><ele>308.0</ele><time>2026-04-21T12:22:40.348Z</time></trkpt><trkpt lat="43.4057242" lon="0.6148589"><ele>307.2</ele><time>2026-04-21T12:22:42.347Z</time></trkpt><trkpt lat="43.4058147" lon="0.6148991"><ele>306.4</ele><time>2026-04-21T12:22:44.347Z</time></trkpt><trkpt lat="43.4059071" lon="0.6149278"><ele>305.59999999999997</ele><time>2026-04-21T12:22:46.347Z</time></trkpt><trkpt lat="43.4060022" lon="0.6149743"><ele>304.8</ele><time>2026-04-21T12:22:48.347Z</time></trkpt><trkpt lat="43.4061031" lon="0.6150044"><ele>304.0</ele><time>2026-04-21T12:22:50.347Z</time></trkpt><trkpt lat="43.4062042" lon="0.6150449"><ele>304.0</ele><time>2026-04-21T12:22:52.348Z</time></trkpt><trkpt lat="43.4063067" lon="0.6151126"><ele>304.0</ele><time>2026-04-21T12:22:54.347Z</time></trkpt><trkpt lat="43.4064129" lon="0.615159"><ele>304.0</ele><time>2026-04-21T12:22:56.347Z</time></trkpt><trkpt lat="43.4065201" lon="0.6152132"><ele>304.0</ele><time>2026-04-21T12:22:58.347Z</time></trkpt><trkpt lat="43.4065809" lon="0.6152393"><ele>304.0</ele><time>2026-04-21T12:22:59.347Z</time></trkpt><trkpt lat="43.4066412" lon="0.6152667"><ele>303.1428571428571</ele><time>2026-04-21T12:23:00.347Z</time></trkpt><trkpt lat="43.4067063" lon="0.6153004"><ele>302.28571428571433</ele><time>2026-04-21T12:23:01.347Z</time></trkpt><trkpt lat="43.4067668" lon="0.6153372"><ele>301.42857142857144</ele><time>2026-04-21T12:23:02.347Z</time></trkpt><trkpt lat="43.4068304" lon="0.6153775"><ele>300.57142857142856</ele><time>2026-04-21T12:23:03.347Z</time></trkpt><trkpt lat="43.4068965" lon="0.615417"><ele>299.71428571428567</ele><time>2026-04-21T12:23:04.347Z</time></trkpt><trkpt lat="43.4069635" lon="0.6154595"><ele>298.85714285714283</ele><time>2026-04-21T12:23:05.347Z</time></trkpt><trkpt lat="43.4070309" lon="0.6155045"><ele>298.0</ele><time>2026-04-21T12:23:06.347Z</time></trkpt><trkpt lat="43.4071003" lon="0.6155476"><ele>297.16666666666663</ele><time>2026-04-21T12:23:07.348Z</time></trkpt><trkpt lat="43.4071679" lon="0.6155932"><ele>296.3333333333333</ele><time>2026-04-21T12:23:08.347Z</time></trkpt><trkpt lat="43.4072343" lon="0.6156493"><ele>295.5</ele><time>2026-04-21T12:23:09.347Z</time></trkpt><trkpt lat="43.4073011" lon="0.6157004"><ele>294.6666666666667</ele><time>2026-04-21T12:23:10.347Z</time></trkpt><trkpt lat="43.4073694" lon="0.6157483"><ele>293.83333333333337</ele><time>2026-04-21T12:23:11.348Z</time></trkpt><trkpt lat="43.4074438" lon="0.6158023"><ele>293.0</ele><time>2026-04-21T12:23:12.347Z</time></trkpt><trkpt lat="43.4075108" lon="0.6158413"><ele>292.99999999999994</ele><time>2026-04-21T12:23:13.347Z</time></trkpt><trkpt lat="43.4075714" lon="0.6158916"><ele>293.0</ele><time>2026-04-21T12:23:14.347Z</time></trkpt><trkpt lat="43.4076393" lon="0.6159429"><ele>293.0</ele><time>2026-04-21T12:23:15.348Z</time></trkpt><trkpt lat="43.4077035" lon="0.6159996"><ele>293.0</ele><time>2026-04-21T12:23:16.347Z</time></trkpt><trkpt lat="43.4077631" lon="0.6160406"><ele>293.0</ele><time>2026-04-21T12:23:17.347Z</time></trkpt><trkpt lat="43.4078201" lon="0.6160827"><ele>292.99999999999994</ele><time>2026-04-21T12:23:18.347Z</time></trkpt><trkpt lat="43.4078779" lon="0.6161265"><ele>293.0</ele><time>2026-04-21T12:23:19.347Z</time></trkpt><trkpt lat="43.4079756" lon="0.6162053"><ele>293.6666666666667</ele><time>2026-04-21T12:23:21.347Z</time></trkpt><trkpt lat="43.4080589" lon="0.6162662"><ele>294.33333333333337</ele><time>2026-04-21T12:23:23.347Z</time></trkpt><trkpt lat="43.4081346" lon="0.6163269"><ele>295.0</ele><time>2026-04-21T12:23:25.347Z</time></trkpt><trkpt lat="43.4082026" lon="0.6163881"><ele>295.6666666666667</ele><time>2026-04-21T12:23:27.347Z</time></trkpt><trkpt lat="43.4082688" lon="0.6164452"><ele>296.3333333333333</ele><time>2026-04-21T12:23:29.347Z</time></trkpt><trkpt lat="43.4083456" lon="0.6164982"><ele>297.0</ele><time>2026-04-21T12:23:31.347Z</time></trkpt><trkpt lat="43.4084138" lon="0.6165624"><ele>297.0</ele><time>2026-04-21T12:23:33.347Z</time></trkpt><trkpt lat="43.4084836" lon="0.6166193"><ele>297.0</ele><time>2026-04-21T12:23:35.347Z</time></trkpt><trkpt lat="43.4085538" lon="0.6166802"><ele>297.0</ele><time>2026-04-21T12:23:37.347Z</time></trkpt><trkpt lat="43.4086227" lon="0.6167418"><ele>297.0</ele><time>2026-04-21T12:23:39.347Z</time></trkpt><trkpt lat="43.4086912" lon="0.6167987"><ele>297.0</ele><time>2026-04-21T12:23:41.347Z</time></trkpt><trkpt lat="43.40876" lon="0.6168586"><ele>297.0</ele><time>2026-04-21T12:23:43.347Z</time></trkpt><trkpt lat="43.4088292" lon="0.6169185"><ele>298.14285714285717</ele><time>2026-04-21T12:23:45.347Z</time></trkpt><trkpt lat="43.4088972" lon="0.616981"><ele>299.28571428571433</ele><time>2026-04-21T12:23:47.347Z</time></trkpt><trkpt lat="43.4089619" lon="0.6170399"><ele>300.42857142857144</ele><time>2026-04-21T12:23:49.348Z</time></trkpt><trkpt lat="43.4090271" lon="0.6170904"><ele>301.57142857142856</ele><time>2026-04-21T12:23:51.347Z</time></trkpt><trkpt lat="43.4090901" lon="0.6171347"><ele>302.71428571428567</ele><time>2026-04-21T12:23:53.347Z</time></trkpt><trkpt lat="43.4091569" lon="0.617179"><ele>303.8571428571429</ele><time>2026-04-21T12:23:55.347Z</time></trkpt><trkpt lat="43.4092199" lon="0.6172174"><ele>305.0</ele><time>2026-04-21T12:23:57.348Z</time></trkpt><trkpt lat="43.4092871" lon="0.6172602"><ele>305.0</ele><time>2026-04-21T12:23:59.347Z</time></trkpt><trkpt lat="43.4093471" lon="0.617291"><ele>305.0</ele><time>2026-04-21T12:24:01.347Z</time></trkpt><trkpt lat="43.4094366" lon="0.6173355"><ele>305.0</ele><time>2026-04-21T12:24:04.347Z</time></trkpt><trkpt lat="43.4094945" lon="0.617376"><ele>305.0</ele><time>2026-04-21T12:24:06.347Z</time></trkpt><trkpt lat="43.4095584" lon="0.6174132"><ele>305.0</ele><time>2026-04-21T12:24:09.347Z</time></trkpt><trkpt lat="43.4096306" lon="0.6174647"><ele>305.0</ele><time>2026-04-21T12:24:14.347Z</time></trkpt><trkpt lat="43.4096005" lon="0.6175468"><ele>305.0</ele><time>2026-04-21T12:24:17.347Z</time></trkpt><trkpt lat="43.40965" lon="0.6174876"><ele>304.6</ele><time>2026-04-21T12:24:24.347Z</time></trkpt><trkpt lat="43.4097322" lon="0.6175289"><ele>304.2</ele><time>2026-04-21T12:24:27.348Z</time></trkpt><trkpt lat="43.409804" lon="0.6175558"><ele>303.8</ele><time>2026-04-21T12:24:29.348Z</time></trkpt><trkpt lat="43.4099006" lon="0.6175584"><ele>303.4</ele><time>2026-04-21T12:24:31.348Z</time></trkpt><trkpt lat="43.4100056" lon="0.6175682"><ele>303.0</ele><time>2026-04-21T12:24:33.347Z</time></trkpt><trkpt lat="43.4101319" lon="0.6175755"><ele>303.0</ele><time>2026-04-21T12:24:35.347Z</time></trkpt><trkpt lat="43.4101998" lon="0.6175752"><ele>303.0</ele><time>2026-04-21T12:24:36.348Z</time></trkpt><trkpt lat="43.4102677" lon="0.6175827"><ele>303.0</ele><time>2026-04-21T12:24:37.347Z</time></trkpt><trkpt lat="43.4103362" lon="0.6175894"><ele>303.0</ele><time>2026-04-21T12:24:38.347Z</time></trkpt><trkpt lat="43.4104097" lon="0.6175922"><ele>303.0</ele><time>2026-04-21T12:24:39.347Z</time></trkpt><trkpt lat="43.4104818" lon="0.6175903"><ele>303.0</ele><time>2026-04-21T12:24:40.347Z</time></trkpt><trkpt lat="43.4105584" lon="0.6175909"><ele>303.0</ele><time>2026-04-21T12:24:41.347Z</time></trkpt><trkpt lat="43.4106332" lon="0.6175915"><ele>302.42857142857144</ele><time>2026-04-21T12:24:42.347Z</time></trkpt><trkpt lat="43.4107025" lon="0.617593"><ele>301.85714285714283</ele><time>2026-04-21T12:24:43.347Z</time></trkpt><trkpt lat="43.4107763" lon="0.6176091"><ele>301.2857142857143</ele><time>2026-04-21T12:24:44.347Z</time></trkpt><trkpt lat="43.410851" lon="0.6176097"><ele>300.7142857142857</ele><time>2026-04-21T12:24:45.347Z</time></trkpt><trkpt lat="43.4109195" lon="0.6176211"><ele>300.14285714285717</ele><time>2026-04-21T12:24:46.347Z</time></trkpt><trkpt lat="43.4109905" lon="0.6176283"><ele>299.57142857142856</ele><time>2026-04-21T12:24:47.347Z</time></trkpt><trkpt lat="43.411056" lon="0.6176337"><ele>299.0</ele><time>2026-04-21T12:24:48.348Z</time></trkpt><trkpt lat="43.4111262" lon="0.6176426"><ele>299.0</ele><time>2026-04-21T12:24:49.347Z</time></trkpt><trkpt lat="43.4111919" lon="0.6176564"><ele>299.0</ele><time>2026-04-21T12:24:50.347Z</time></trkpt><trkpt lat="43.4113129" lon="0.6176654"><ele>299.0</ele><time>2026-04-21T12:24:52.347Z</time></trkpt><trkpt lat="43.4113768" lon="0.6176714"><ele>299.0</ele><time>2026-04-21T12:24:53.347Z</time></trkpt><trkpt lat="43.4114936" lon="0.6176895"><ele>299.0</ele><time>2026-04-21T12:24:55.347Z</time></trkpt><trkpt lat="43.411598" lon="0.6177038"><ele>298.59999999999997</ele><time>2026-04-21T12:24:57.347Z</time></trkpt><trkpt lat="43.4117002" lon="0.6177179"><ele>298.2</ele><time>2026-04-21T12:24:59.347Z</time></trkpt><trkpt lat="43.4117963" lon="0.617723"><ele>297.79999999999995</ele><time>2026-04-21T12:25:01.347Z</time></trkpt><trkpt lat="43.4118923" lon="0.6177295"><ele>297.4</ele><time>2026-04-21T12:25:03.347Z</time></trkpt><trkpt lat="43.4119733" lon="0.6177297"><ele>297.0</ele><time>2026-04-21T12:25:05.347Z</time></trkpt><trkpt lat="43.4120512" lon="0.6177406"><ele>297.0</ele><time>2026-04-21T12:25:07.347Z</time></trkpt><trkpt lat="43.4121241" lon="0.6177326"><ele>297.0</ele><time>2026-04-21T12:25:09.347Z</time></trkpt><trkpt lat="43.4121875" lon="0.6177359"><ele>297.0</ele><time>2026-04-21T12:25:11.347Z</time></trkpt><trkpt lat="43.4122506" lon="0.6177423"><ele>297.0</ele><time>2026-04-21T12:25:13.348Z</time></trkpt><trkpt lat="43.4123173" lon="0.6177582"><ele>297.0</ele><time>2026-04-21T12:25:15.347Z</time></trkpt><trkpt lat="43.4123952" lon="0.6177967"><ele>297.0</ele><time>2026-04-21T12:25:17.347Z</time></trkpt><trkpt lat="43.4124859" lon="0.6178446"><ele>297.0</ele><time>2026-04-21T12:25:19.347Z</time></trkpt><trkpt lat="43.4125943" lon="0.6179147"><ele>297.1666666666667</ele><time>2026-04-21T12:25:21.347Z</time></trkpt><trkpt lat="43.4127148" lon="0.6179541"><ele>297.3333333333333</ele><time>2026-04-21T12:25:23.348Z</time></trkpt><trkpt lat="43.4127805" lon="0.6179661"><ele>297.5</ele><time>2026-04-21T12:25:24.347Z</time></trkpt><trkpt lat="43.4128518" lon="0.6179686"><ele>297.66666666666663</ele><time>2026-04-21T12:25:25.347Z</time></trkpt><trkpt lat="43.4129269" lon="0.6179677"><ele>297.8333333333333</ele><time>2026-04-21T12:25:26.347Z</time></trkpt><trkpt lat="43.413007" lon="0.6179529"><ele>298.0</ele><time>2026-04-21T12:25:27.347Z</time></trkpt><trkpt lat="43.4130898" lon="0.6179351"><ele>297.2</ele><time>2026-04-21T12:25:28.347Z</time></trkpt><trkpt lat="43.4131763" lon="0.6178961"><ele>296.4</ele><time>2026-04-21T12:25:29.347Z</time></trkpt><trkpt lat="43.4132641" lon="0.6178458"><ele>295.59999999999997</ele><time>2026-04-21T12:25:30.347Z</time></trkpt><trkpt lat="43.4133493" lon="0.617798"><ele>294.8</ele><time>2026-04-21T12:25:31.347Z</time></trkpt><trkpt lat="43.4134393" lon="0.6177504"><ele>294.0</ele><time>2026-04-21T12:25:32.347Z</time></trkpt><trkpt lat="43.4135249" lon="0.6177027"><ele>294.0</ele><time>2026-04-21T12:25:33.347Z</time></trkpt><trkpt lat="43.4136064" lon="0.6176494"><ele>294.0</ele><time>2026-04-21T12:25:34.347Z</time></trkpt><trkpt lat="43.4136909" lon="0.6176021"><ele>294.0</ele><time>2026-04-21T12:25:35.347Z</time></trkpt><trkpt lat="43.4137704" lon="0.6175491"><ele>294.0</ele><time>2026-04-21T12:25:36.347Z</time></trkpt><trkpt lat="43.4138446" lon="0.617508"><ele>294.0</ele><time>2026-04-21T12:25:37.347Z</time></trkpt><trkpt lat="43.4139235" lon="0.6174737"><ele>294.0</ele><time>2026-04-21T12:25:38.347Z</time></trkpt><trkpt lat="43.4139978" lon="0.6174352"><ele>293.8333333333333</ele><time>2026-04-21T12:25:39.348Z</time></trkpt><trkpt lat="43.4140754" lon="0.6174113"><ele>293.6666666666667</ele><time>2026-04-21T12:25:40.347Z</time></trkpt><trkpt lat="43.4142195" lon="0.6173929"><ele>293.5</ele><time>2026-04-21T12:25:42.348Z</time></trkpt><trkpt lat="43.4142848" lon="0.6173918"><ele>293.33333333333337</ele><time>2026-04-21T12:25:43.347Z</time></trkpt><trkpt lat="43.4143486" lon="0.6173947"><ele>293.1666666666667</ele><time>2026-04-21T12:25:44.347Z</time></trkpt><trkpt lat="43.4144431" lon="0.6173973"><ele>293.0</ele><time>2026-04-21T12:25:46.347Z</time></trkpt><trkpt lat="43.4145328" lon="0.6174144"><ele>292.99999999999994</ele><time>2026-04-21T12:25:48.347Z</time></trkpt><trkpt lat="43.4146004" lon="0.6174169"><ele>293.0</ele><time>2026-04-21T12:25:50.347Z</time></trkpt><trkpt lat="43.4146634" lon="0.6174323"><ele>293.0</ele><time>2026-04-21T12:25:52.347Z</time></trkpt><trkpt lat="43.4147578" lon="0.6174499"><ele>293.0</ele><time>2026-04-21T12:25:55.347Z</time></trkpt><trkpt lat="43.414823" lon="0.6174663"><ele>293.0</ele><time>2026-04-21T12:25:57.347Z</time></trkpt><trkpt lat="43.4148886" lon="0.617477"><ele>292.99999999999994</ele><time>2026-04-21T12:25:59.347Z</time></trkpt><trkpt lat="43.414954" lon="0.6174961"><ele>293.0</ele><time>2026-04-21T12:26:01.347Z</time></trkpt><trkpt lat="43.4150466" lon="0.6175221"><ele>293.57142857142856</ele><time>2026-04-21T12:26:04.347Z</time></trkpt><trkpt lat="43.4151105" lon="0.6175315"><ele>294.1428571428571</ele><time>2026-04-21T12:26:06.347Z</time></trkpt><trkpt lat="43.4152053" lon="0.6175369"><ele>294.7142857142857</ele><time>2026-04-21T12:26:09.347Z</time></trkpt><trkpt lat="43.4152712" lon="0.6175404"><ele>295.2857142857143</ele><time>2026-04-21T12:26:11.347Z</time></trkpt><trkpt lat="43.4153376" lon="0.6175433"><ele>295.8571428571429</ele><time>2026-04-21T12:26:13.348Z</time></trkpt><trkpt lat="43.4154065" lon="0.617542"><ele>296.42857142857144</ele><time>2026-04-21T12:26:15.347Z</time></trkpt><trkpt lat="43.415473" lon="0.6175368"><ele>297.0</ele><time>2026-04-21T12:26:17.347Z</time></trkpt><trkpt lat="43.41554" lon="0.6175296"><ele>298.0</ele><time>2026-04-21T12:26:19.347Z</time></trkpt><trkpt lat="43.4156043" lon="0.6175145"><ele>299.0</ele><time>2026-04-21T12:26:21.347Z</time></trkpt><trkpt lat="43.4156694" lon="0.6174962"><ele>300.0</ele><time>2026-04-21T12:26:23.347Z</time></trkpt><trkpt lat="43.4157323" lon="0.6174701"><ele>301.0</ele><time>2026-04-21T12:26:25.347Z</time></trkpt><trkpt lat="43.4157929" lon="0.6174426"><ele>302.0</ele><time>2026-04-21T12:26:27.347Z</time></trkpt><trkpt lat="43.4158538" lon="0.6174162"><ele>303.0</ele><time>2026-04-21T12:26:29.347Z</time></trkpt><trkpt lat="43.4159154" lon="0.617391"><ele>304.0</ele><time>2026-04-21T12:26:31.347Z</time></trkpt><trkpt lat="43.4159802" lon="0.6173801"><ele>304.0</ele><time>2026-04-21T12:26:33.347Z</time></trkpt><trkpt lat="43.4160449" lon="0.6173713"><ele>304.0</ele><time>2026-04-21T12:26:35.347Z</time></trkpt><trkpt lat="43.4161089" lon="0.6173529"><ele>304.0</ele><time>2026-04-21T12:26:37.347Z</time></trkpt><trkpt lat="43.4161703" lon="0.6173303"><ele>304.0</ele><time>2026-04-21T12:26:39.347Z</time></trkpt><trkpt lat="43.4162518" lon="0.6173039"><ele>304.0</ele><time>2026-04-21T12:26:42.348Z</time></trkpt><trkpt lat="43.4163325" lon="0.6172955"><ele>304.0</ele><time>2026-04-21T12:26:45.348Z</time></trkpt><trkpt lat="43.4164113" lon="0.6172867"><ele>304.0</ele><time>2026-04-21T12:26:48.347Z</time></trkpt><trkpt lat="43.4164817" lon="0.6172799"><ele>304.57142857142856</ele><time>2026-04-21T12:26:51.347Z</time></trkpt><trkpt lat="43.4165611" lon="0.6172946"><ele>305.14285714285717</ele><time>2026-04-21T12:26:55.347Z</time></trkpt><trkpt lat="43.4166231" lon="0.6173318"><ele>305.7142857142857</ele><time>2026-04-21T12:26:58.347Z</time></trkpt><trkpt lat="43.4166845" lon="0.6173689"><ele>306.2857142857143</ele><time>2026-04-21T12:27:01.347Z</time></trkpt><trkpt lat="43.4167465" lon="0.6174026"><ele>306.8571428571429</ele><time>2026-04-21T12:27:04.347Z</time></trkpt><trkpt lat="43.4167978" lon="0.617474"><ele>307.42857142857144</ele><time>2026-04-21T12:27:07.348Z</time></trkpt><trkpt lat="43.4168463" lon="0.6175467"><ele>308.0</ele><time>2026-04-21T12:27:10.347Z</time></trkpt><trkpt lat="43.4169001" lon="0.6176288"><ele>308.0</ele><time>2026-04-21T12:27:13.347Z</time></trkpt><trkpt lat="43.4169479" lon="0.6177197"><ele>308.0</ele><time>2026-04-21T12:27:16.347Z</time></trkpt><trkpt lat="43.4169958" lon="0.6178113"><ele>308.0</ele><time>2026-04-21T12:27:19.347Z</time></trkpt><trkpt lat="43.4170483" lon="0.6178951"><ele>308.0</ele><time>2026-04-21T12:27:22.347Z</time></trkpt><trkpt lat="43.4171013" lon="0.6179812"><ele>308.0</ele><time>2026-04-21T12:27:25.347Z</time></trkpt><trkpt lat="43.4171551" lon="0.6180709"><ele>308.0</ele><time>2026-04-21T12:27:28.347Z</time></trkpt><trkpt lat="43.4172143" lon="0.6181541"><ele>309.0</ele><time>2026-04-21T12:27:31.347Z</time></trkpt><trkpt lat="43.4172731" lon="0.6182468"><ele>310.0</ele><time>2026-04-21T12:27:34.347Z</time></trkpt><trkpt lat="43.4173327" lon="0.6183399"><ele>311.0</ele><time>2026-04-21T12:27:37.348Z</time></trkpt><trkpt lat="43.4173944" lon="0.6184316"><ele>312.0</ele><time>2026-04-21T12:27:40.347Z</time></trkpt><trkpt lat="43.4174603" lon="0.61852"><ele>313.0</ele><time>2026-04-21T12:27:43.344Z</time></trkpt><trkpt lat="43.4175271" lon="0.6186086"><ele>312.66666666666663</ele><time>2026-04-21T12:27:46.347Z</time></trkpt><trkpt lat="43.4175936" lon="0.6186953"><ele>312.3333333333333</ele><time>2026-04-21T12:27:49.347Z</time></trkpt><trkpt lat="43.4176653" lon="0.6187647"><ele>312.0</ele><time>2026-04-21T12:27:52.347Z</time></trkpt><trkpt lat="43.4177394" lon="0.6188341"><ele>311.6666666666667</ele><time>2026-04-21T12:27:55.348Z</time></trkpt><trkpt lat="43.4178077" lon="0.6189026"><ele>311.33333333333337</ele><time>2026-04-21T12:27:58.348Z</time></trkpt><trkpt lat="43.4178839" lon="0.6189561"><ele>311.0</ele><time>2026-04-21T12:28:01.347Z</time></trkpt><trkpt lat="43.417958" lon="0.6189946"><ele>311.1666666666667</ele><time>2026-04-21T12:28:04.347Z</time></trkpt><trkpt lat="43.4180333" lon="0.6190307"><ele>311.33333333333337</ele><time>2026-04-21T12:28:07.347Z</time></trkpt><trkpt lat="43.4181256" lon="0.619072"><ele>311.5</ele><time>2026-04-21T12:28:10.348Z</time></trkpt><trkpt lat="43.4181919" lon="0.619096"><ele>311.6666666666667</ele><time>2026-04-21T12:28:12.348Z</time></trkpt><trkpt lat="43.418262" lon="0.6191069"><ele>311.8333333333333</ele><time>2026-04-21T12:28:14.347Z</time></trkpt><trkpt lat="43.4183409" lon="0.6190981"><ele>312.0</ele><time>2026-04-21T12:28:16.347Z</time></trkpt><trkpt lat="43.4184267" lon="0.6190849"><ele>312.0</ele><time>2026-04-21T12:28:18.347Z</time></trkpt><trkpt lat="43.4185051" lon="0.6190582"><ele>312.0</ele><time>2026-04-21T12:28:20.347Z</time></trkpt><trkpt lat="43.4185767" lon="0.6190091"><ele>312.0</ele><time>2026-04-21T12:28:22.347Z</time></trkpt><trkpt lat="43.4186415" lon="0.6189573"><ele>312.0</ele><time>2026-04-21T12:28:24.347Z</time></trkpt><trkpt lat="43.418724" lon="0.618928"><ele>312.0</ele><time>2026-04-21T12:28:27.347Z</time></trkpt><trkpt lat="43.4188075" lon="0.6189504"><ele>312.0</ele><time>2026-04-21T12:28:29.348Z</time></trkpt><trkpt lat="43.4189078" lon="0.6189401"><ele>311.5</ele><time>2026-04-21T12:28:31.347Z</time></trkpt><trkpt lat="43.4190215" lon="0.6189572"><ele>311.0</ele><time>2026-04-21T12:28:33.347Z</time></trkpt><trkpt lat="43.4191368" lon="0.6189812"><ele>310.5</ele><time>2026-04-21T12:28:35.348Z</time></trkpt><trkpt lat="43.4192518" lon="0.6190196"><ele>310.0</ele><time>2026-04-21T12:28:37.347Z</time></trkpt><trkpt lat="43.4193631" lon="0.6190714"><ele>310.0</ele><time>2026-04-21T12:28:39.347Z</time></trkpt><trkpt lat="43.4194638" lon="0.6191371"><ele>310.0</ele><time>2026-04-21T12:28:41.348Z</time></trkpt><trkpt lat="43.4195641" lon="0.6191861"><ele>310.0</ele><time>2026-04-21T12:28:43.347Z</time></trkpt><trkpt lat="43.4196525" lon="0.6192352"><ele>310.0</ele><time>2026-04-21T12:28:45.347Z</time></trkpt><trkpt lat="43.4197311" lon="0.6192843"><ele>310.0</ele><time>2026-04-21T12:28:47.348Z</time></trkpt><trkpt lat="43.4198004" lon="0.6193258"><ele>310.66666666666663</ele><time>2026-04-21T12:28:49.347Z</time></trkpt><trkpt lat="43.419859" lon="0.6193651"><ele>311.3333333333333</ele><time>2026-04-21T12:28:51.347Z</time></trkpt><trkpt lat="43.4199175" lon="0.6194147"><ele>312.0</ele><time>2026-04-21T12:28:53.348Z</time></trkpt><trkpt lat="43.4199941" lon="0.6194796"><ele>312.6666666666667</ele><time>2026-04-21T12:28:56.347Z</time></trkpt><trkpt lat="43.4200602" lon="0.6195415"><ele>313.33333333333337</ele><time>2026-04-21T12:28:59.348Z</time></trkpt><trkpt lat="43.4201368" lon="0.6196265"><ele>314.0</ele><time>2026-04-21T12:29:02.348Z</time></trkpt><trkpt lat="43.4201965" lon="0.619687"><ele>314.4285714285714</ele><time>2026-04-21T12:29:04.347Z</time></trkpt><trkpt lat="43.4202593" lon="0.6197411"><ele>314.85714285714283</ele><time>2026-04-21T12:29:06.346Z</time></trkpt><trkpt lat="43.4203285" lon="0.6197974"><ele>315.2857142857143</ele><time>2026-04-21T12:29:08.347Z</time></trkpt><trkpt lat="43.4203776" lon="0.619854"><ele>315.71428571428567</ele><time>2026-04-21T12:29:10.347Z</time></trkpt><trkpt lat="43.4204223" lon="0.6199161"><ele>316.1428571428571</ele><time>2026-04-21T12:29:14.347Z</time></trkpt><trkpt lat="43.420482" lon="0.6200018"><ele>316.57142857142856</ele><time>2026-04-21T12:29:17.348Z</time></trkpt><trkpt lat="43.4205411" lon="0.6200632"><ele>317.0</ele><time>2026-04-21T12:29:19.348Z</time></trkpt><trkpt lat="43.4206075" lon="0.6201215"><ele>315.83333333333337</ele><time>2026-04-21T12:29:21.347Z</time></trkpt><trkpt lat="43.4206742" lon="0.620192"><ele>314.6666666666667</ele><time>2026-04-21T12:29:23.347Z</time></trkpt><trkpt lat="43.4207423" lon="0.620272"><ele>313.5</ele><time>2026-04-21T12:29:25.348Z</time></trkpt><trkpt lat="43.4208163" lon="0.6203598"><ele>312.3333333333333</ele><time>2026-04-21T12:29:27.347Z</time></trkpt><trkpt lat="43.420876" lon="0.6204325"><ele>311.16666666666663</ele><time>2026-04-21T12:29:29.348Z</time></trkpt><trkpt lat="43.4209346" lon="0.6204836"><ele>310.0</ele><time>2026-04-21T12:29:31.347Z</time></trkpt><trkpt lat="43.4210111" lon="0.620542"><ele>309.66666666666663</ele><time>2026-04-21T12:29:34.347Z</time></trkpt><trkpt lat="43.4210679" lon="0.6206003"><ele>309.3333333333333</ele><time>2026-04-21T12:29:37.347Z</time></trkpt><trkpt lat="43.4211231" lon="0.6206458"><ele>309.0</ele><time>2026-04-21T12:29:41.347Z</time></trkpt><trkpt lat="43.4211828" lon="0.6207705"><ele>308.6666666666667</ele><time>2026-04-21T12:31:31.346Z</time></trkpt><trkpt lat="43.4212293" lon="0.6208306"><ele>308.33333333333337</ele><time>2026-04-21T12:31:33.347Z</time></trkpt><trkpt lat="43.4212891" lon="0.620895"><ele>308.0</ele><time>2026-04-21T12:31:35.347Z</time></trkpt><trkpt lat="43.421353" lon="0.6209531"><ele>308.0</ele><time>2026-04-21T12:31:37.347Z</time></trkpt><trkpt lat="43.4214062" lon="0.6210099"><ele>308.0</ele><time>2026-04-21T12:31:39.347Z</time></trkpt><trkpt lat="43.4214656" lon="0.621078"><ele>308.0</ele><time>2026-04-21T12:31:41.344Z</time></trkpt><trkpt lat="43.421529" lon="0.6211446"><ele>308.0</ele><time>2026-04-21T12:31:43.347Z</time></trkpt><trkpt lat="43.4215943" lon="0.6212117"><ele>308.0</ele><time>2026-04-21T12:31:45.347Z</time></trkpt><trkpt lat="43.4216623" lon="0.6212834"><ele>308.0</ele><time>2026-04-21T12:31:47.347Z</time></trkpt><trkpt lat="43.421732" lon="0.6213604"><ele>307.2</ele><time>2026-04-21T12:31:49.347Z</time></trkpt><trkpt lat="43.4218027" lon="0.6214414"><ele>306.4</ele><time>2026-04-21T12:31:51.347Z</time></trkpt><trkpt lat="43.421889" lon="0.6215121"><ele>305.59999999999997</ele><time>2026-04-21T12:31:53.347Z</time></trkpt><trkpt lat="43.4219707" lon="0.6215922"><ele>304.8</ele><time>2026-04-21T12:31:55.347Z</time></trkpt><trkpt lat="43.4220443" lon="0.6216944"><ele>304.0</ele><time>2026-04-21T12:31:57.344Z</time></trkpt><trkpt lat="43.4221366" lon="0.6217796"><ele>304.2</ele><time>2026-04-21T12:31:59.347Z</time></trkpt><trkpt lat="43.4222231" lon="0.6218688"><ele>304.4</ele><time>2026-04-21T12:32:01.347Z</time></trkpt><trkpt lat="43.4222976" lon="0.6219708"><ele>304.6</ele><time>2026-04-21T12:32:03.347Z</time></trkpt><trkpt lat="43.422385" lon="0.6220705"><ele>304.8</ele><time>2026-04-21T12:32:05.346Z</time></trkpt><trkpt lat="43.422472" lon="0.6221634"><ele>305.0</ele><time>2026-04-21T12:32:07.348Z</time></trkpt><trkpt lat="43.4225586" lon="0.6222576"><ele>305.0</ele><time>2026-04-21T12:32:09.348Z</time></trkpt><trkpt lat="43.422637" lon="0.6223566"><ele>305.0</ele><time>2026-04-21T12:32:11.347Z</time></trkpt><trkpt lat="43.4227376" lon="0.6224344"><ele>305.0</ele><time>2026-04-21T12:32:13.347Z</time></trkpt><trkpt lat="43.4228184" lon="0.6225276"><ele>305.0</ele><time>2026-04-21T12:32:15.348Z</time></trkpt><trkpt lat="43.422904" lon="0.622623"><ele>305.0</ele><time>2026-04-21T12:32:17.348Z</time></trkpt><trkpt lat="43.4229853" lon="0.6227133"><ele>305.2</ele><time>2026-04-21T12:32:19.347Z</time></trkpt><trkpt lat="43.423076" lon="0.6228077"><ele>305.4</ele><time>2026-04-21T12:32:21.347Z</time></trkpt><trkpt lat="43.4231685" lon="0.6228888"><ele>305.6</ele><time>2026-04-21T12:32:23.348Z</time></trkpt><trkpt lat="43.4232525" lon="0.6229734"><ele>305.8</ele><time>2026-04-21T12:32:25.347Z</time></trkpt><trkpt lat="43.4233334" lon="0.6230656"><ele>306.0</ele><time>2026-04-21T12:32:27.347Z</time></trkpt><trkpt lat="43.4234289" lon="0.6231254"><ele>305.8333333333333</ele><time>2026-04-21T12:32:29.347Z</time></trkpt><trkpt lat="43.4235063" lon="0.6231894"><ele>305.6666666666667</ele><time>2026-04-21T12:32:31.347Z</time></trkpt><trkpt lat="43.4236019" lon="0.6232203"><ele>305.5</ele><time>2026-04-21T12:32:34.348Z</time></trkpt><trkpt lat="43.4236705" lon="0.6232631"><ele>305.33333333333337</ele><time>2026-04-21T12:32:37.347Z</time></trkpt><trkpt lat="43.4237188" lon="0.6233194"><ele>305.1666666666667</ele><time>2026-04-21T12:32:40.348Z</time></trkpt><trkpt lat="43.4237811" lon="0.6233875"><ele>305.0</ele><time>2026-04-21T12:32:43.348Z</time></trkpt><trkpt lat="43.4238485" lon="0.6234475"><ele>305.0</ele><time>2026-04-21T12:32:46.347Z</time></trkpt><trkpt lat="43.4239179" lon="0.6235143"><ele>305.0</ele><time>2026-04-21T12:32:49.348Z</time></trkpt><trkpt lat="43.4239934" lon="0.6235999"><ele>305.0</ele><time>2026-04-21T12:32:52.347Z</time></trkpt><trkpt lat="43.4240588" lon="0.6236492"><ele>305.0</ele><time>2026-04-21T12:32:54.347Z</time></trkpt><trkpt lat="43.4241265" lon="0.6237088"><ele>305.0</ele><time>2026-04-21T12:32:56.347Z</time></trkpt><trkpt lat="43.4242017" lon="0.6237805"><ele>305.0</ele><time>2026-04-21T12:32:58.347Z</time></trkpt><trkpt lat="43.4242829" lon="0.6238515"><ele>305.2</ele><time>2026-04-21T12:33:00.347Z</time></trkpt><trkpt lat="43.4243666" lon="0.6239432"><ele>305.4</ele><time>2026-04-21T12:33:02.347Z</time></trkpt><trkpt lat="43.4244368" lon="0.6240153"><ele>305.6</ele><time>2026-04-21T12:33:04.347Z</time></trkpt><trkpt lat="43.4245313" lon="0.6240862"><ele>305.8</ele><time>2026-04-21T12:33:06.347Z</time></trkpt><trkpt lat="43.4246147" lon="0.624145"><ele>306.0</ele><time>2026-04-21T12:33:08.348Z</time></trkpt><trkpt lat="43.4246921" lon="0.624219"><ele>305.6666666666667</ele><time>2026-04-21T12:33:10.347Z</time></trkpt><trkpt lat="43.4247679" lon="0.6242926"><ele>305.3333333333333</ele><time>2026-04-21T12:33:12.347Z</time></trkpt><trkpt lat="43.4248496" lon="0.624352"><ele>305.0</ele><time>2026-04-21T12:33:14.347Z</time></trkpt><trkpt lat="43.4249308" lon="0.6244122"><ele>304.66666666666663</ele><time>2026-04-21T12:33:16.347Z</time></trkpt><trkpt lat="43.4250085" lon="0.6244623"><ele>304.3333333333333</ele><time>2026-04-21T12:33:18.348Z</time></trkpt><trkpt lat="43.4250567" lon="0.6245239"><ele>304.0</ele><time>2026-04-21T12:33:20.347Z</time></trkpt><trkpt lat="43.4251116" lon="0.624582"><ele>303.3333333333333</ele><time>2026-04-21T12:33:24.347Z</time></trkpt><trkpt lat="43.4251897" lon="0.6246118"><ele>302.66666666666663</ele><time>2026-04-21T12:33:29.347Z</time></trkpt><trkpt lat="43.4252582" lon="0.6246551"><ele>302.0</ele><time>2026-04-21T12:33:32.347Z</time></trkpt><trkpt lat="43.4253322" lon="0.6247039"><ele>301.3333333333333</ele><time>2026-04-21T12:33:35.347Z</time></trkpt><trkpt lat="43.4254169" lon="0.6247713"><ele>300.6666666666667</ele><time>2026-04-21T12:33:38.348Z</time></trkpt><trkpt lat="43.4254819" lon="0.6248338"><ele>300.0</ele><time>2026-04-21T12:33:40.347Z</time></trkpt><trkpt lat="43.425548" lon="0.6249044"><ele>300.0</ele><time>2026-04-21T12:33:42.347Z</time></trkpt><trkpt lat="43.4256163" lon="0.6249732"><ele>300.0</ele><time>2026-04-21T12:33:44.347Z</time></trkpt><trkpt lat="43.4256708" lon="0.6250394"><ele>300.0</ele><time>2026-04-21T12:33:46.347Z</time></trkpt><trkpt lat="43.4257211" lon="0.6251071"><ele>300.0</ele><time>2026-04-21T12:33:48.347Z</time></trkpt><trkpt lat="43.425778" lon="0.6251778"><ele>300.0</ele><time>2026-04-21T12:33:50.348Z</time></trkpt><trkpt lat="43.4258357" lon="0.6252618"><ele>300.0</ele><time>2026-04-21T12:33:52.347Z</time></trkpt><trkpt lat="43.4258898" lon="0.6253587"><ele>299.4</ele><time>2026-04-21T12:33:54.347Z</time></trkpt><trkpt lat="43.4259416" lon="0.6254636"><ele>298.8</ele><time>2026-04-21T12:33:56.347Z</time></trkpt><trkpt lat="43.4259833" lon="0.6255865"><ele>298.2</ele><time>2026-04-21T12:33:58.347Z</time></trkpt><trkpt lat="43.4260182" lon="0.6256904"><ele>297.6</ele><time>2026-04-21T12:34:00.348Z</time></trkpt><trkpt lat="43.4260499" lon="0.6258071"><ele>297.0</ele><time>2026-04-21T12:34:02.348Z</time></trkpt><trkpt lat="43.4260845" lon="0.6259352"><ele>297.0</ele><time>2026-04-21T12:34:04.347Z</time></trkpt><trkpt lat="43.4261239" lon="0.6260764"><ele>297.0</ele><time>2026-04-21T12:34:06.347Z</time></trkpt><trkpt lat="43.4261606" lon="0.626209"><ele>297.0</ele><time>2026-04-21T12:34:08.347Z</time></trkpt><trkpt lat="43.4262036" lon="0.6263452"><ele>297.0</ele><time>2026-04-21T12:34:10.348Z</time></trkpt><trkpt lat="43.4262412" lon="0.6264798"><ele>297.0</ele><time>2026-04-21T12:34:12.348Z</time></trkpt><trkpt lat="43.4262913" lon="0.6266051"><ele>295.4</ele><time>2026-04-21T12:34:14.347Z</time></trkpt><trkpt lat="43.4263421" lon="0.6267386"><ele>293.79999999999995</ele><time>2026-04-21T12:34:16.347Z</time></trkpt><trkpt lat="43.4263965" lon="0.6268661"><ele>292.2</ele><time>2026-04-21T12:34:18.347Z</time></trkpt><trkpt lat="43.4264504" lon="0.6269954"><ele>290.59999999999997</ele><time>2026-04-21T12:34:20.347Z</time></trkpt><trkpt lat="43.4265165" lon="0.6271074"><ele>289.0</ele><time>2026-04-21T12:34:22.347Z</time></trkpt><trkpt lat="43.4265816" lon="0.6272096"><ele>289.0</ele><time>2026-04-21T12:34:24.348Z</time></trkpt><trkpt lat="43.4266526" lon="0.6273047"><ele>289.0</ele><time>2026-04-21T12:34:26.347Z</time></trkpt><trkpt lat="43.4267285" lon="0.627386"><ele>289.0</ele><time>2026-04-21T12:34:28.347Z</time></trkpt><trkpt lat="43.4268006" lon="0.6274703"><ele>289.0</ele><time>2026-04-21T12:34:30.347Z</time></trkpt><trkpt lat="43.4268705" lon="0.6275535"><ele>289.0</ele><time>2026-04-21T12:34:32.347Z</time></trkpt><trkpt lat="43.42693" lon="0.6276254"><ele>289.0</ele><time>2026-04-21T12:34:34.347Z</time></trkpt><trkpt lat="43.426996" lon="0.6276976"><ele>289.0</ele><time>2026-04-21T12:34:36.348Z</time></trkpt><trkpt lat="43.4270701" lon="0.6277731"><ele>289.0</ele><time>2026-04-21T12:34:38.347Z</time></trkpt><trkpt lat="43.4271355" lon="0.6278391"><ele>289.0</ele><time>2026-04-21T12:34:40.347Z</time></trkpt><trkpt lat="43.4272002" lon="0.6279117"><ele>289.0</ele><time>2026-04-21T12:34:42.347Z</time></trkpt><trkpt lat="43.4272642" lon="0.6279794"><ele>289.0</ele><time>2026-04-21T12:34:44.348Z</time></trkpt><trkpt lat="43.4273407" lon="0.6280457"><ele>289.0</ele><time>2026-04-21T12:34:46.347Z</time></trkpt><trkpt lat="43.4274183" lon="0.6281129"><ele>289.0</ele><time>2026-04-21T12:34:48.347Z</time></trkpt><trkpt lat="43.4275004" lon="0.6281778"><ele>289.0</ele><time>2026-04-21T12:34:50.347Z</time></trkpt><trkpt lat="43.4275885" lon="0.6282469"><ele>289.0</ele><time>2026-04-21T12:34:52.347Z</time></trkpt><trkpt lat="43.4276765" lon="0.6283182"><ele>289.0</ele><time>2026-04-21T12:34:54.347Z</time></trkpt><trkpt lat="43.4277644" lon="0.6283787"><ele>289.0</ele><time>2026-04-21T12:34:56.347Z</time></trkpt><trkpt lat="43.4278499" lon="0.6284425"><ele>289.0</ele><time>2026-04-21T12:34:58.347Z</time></trkpt><trkpt lat="43.4279299" lon="0.6284978"><ele>289.0</ele><time>2026-04-21T12:35:00.347Z</time></trkpt><trkpt lat="43.4279886" lon="0.6285519"><ele>289.0</ele><time>2026-04-21T12:35:02.347Z</time></trkpt><trkpt lat="43.4280412" lon="0.6286009"><ele>289.0</ele><time>2026-04-21T12:35:05.347Z</time></trkpt><trkpt lat="43.4281038" lon="0.6286719"><ele>289.0</ele><time>2026-04-21T12:36:26.343Z</time></trkpt><trkpt lat="43.428122" lon="0.6287842"><ele>288.16666666666663</ele><time>2026-04-21T12:36:29.347Z</time></trkpt><trkpt lat="43.4281368" lon="0.6288793"><ele>287.3333333333333</ele><time>2026-04-21T12:36:31.347Z</time></trkpt><trkpt lat="43.4281475" lon="0.6289916"><ele>286.5</ele><time>2026-04-21T12:36:33.348Z</time></trkpt><trkpt lat="43.4281615" lon="0.629113"><ele>285.6666666666667</ele><time>2026-04-21T12:36:35.347Z</time></trkpt><trkpt lat="43.4281676" lon="0.6292423"><ele>284.83333333333337</ele><time>2026-04-21T12:36:37.344Z</time></trkpt><trkpt lat="43.4281744" lon="0.6293729"><ele>284.0</ele><time>2026-04-21T12:36:39.347Z</time></trkpt><trkpt lat="43.4281781" lon="0.6295093"><ele>283.59999999999997</ele><time>2026-04-21T12:36:41.347Z</time></trkpt><trkpt lat="43.4281889" lon="0.6296539"><ele>283.2</ele><time>2026-04-21T12:36:43.347Z</time></trkpt><trkpt lat="43.4282049" lon="0.6298"><ele>282.79999999999995</ele><time>2026-04-21T12:36:45.347Z</time></trkpt><trkpt lat="43.4282165" lon="0.6299484"><ele>282.4</ele><time>2026-04-21T12:36:47.347Z</time></trkpt><trkpt lat="43.4282208" lon="0.6300915"><ele>282.0</ele><time>2026-04-21T12:36:49.346Z</time></trkpt><trkpt lat="43.4282299" lon="0.6302421"><ele>281.4</ele><time>2026-04-21T12:36:51.347Z</time></trkpt><trkpt lat="43.4282459" lon="0.6303904"><ele>280.79999999999995</ele><time>2026-04-21T12:36:53.347Z</time></trkpt><trkpt lat="43.4282575" lon="0.6305404"><ele>280.2</ele><time>2026-04-21T12:36:55.347Z</time></trkpt><trkpt lat="43.4282654" lon="0.6306916"><ele>279.59999999999997</ele><time>2026-04-21T12:36:57.347Z</time></trkpt><trkpt lat="43.4282762" lon="0.6308489"><ele>279.0</ele><time>2026-04-21T12:36:59.347Z</time></trkpt><trkpt lat="43.4282873" lon="0.6309957"><ele>278.25</ele><time>2026-04-21T12:37:01.347Z</time></trkpt><trkpt lat="43.4283" lon="0.6311437"><ele>277.5</ele><time>2026-04-21T12:37:03.347Z</time></trkpt><trkpt lat="43.4283127" lon="0.6313105"><ele>276.75</ele><time>2026-04-21T12:37:05.347Z</time></trkpt><trkpt lat="43.4283204" lon="0.6314657"><ele>276.0</ele><time>2026-04-21T12:37:07.348Z</time></trkpt><trkpt lat="43.4283295" lon="0.6316243"><ele>276.0</ele><time>2026-04-21T12:37:09.346Z</time></trkpt><trkpt lat="43.4283345" lon="0.6317908"><ele>276.0</ele><time>2026-04-21T12:37:11.347Z</time></trkpt><trkpt lat="43.4283434" lon="0.6319554"><ele>276.0</ele><time>2026-04-21T12:37:13.347Z</time></trkpt><trkpt lat="43.4283532" lon="0.6321161"><ele>276.0</ele><time>2026-04-21T12:37:15.347Z</time></trkpt><trkpt lat="43.4283677" lon="0.6322885"><ele>275.5</ele><time>2026-04-21T12:37:17.347Z</time></trkpt><trkpt lat="43.4283731" lon="0.6324523"><ele>275.0</ele><time>2026-04-21T12:37:19.347Z</time></trkpt><trkpt lat="43.4283833" lon="0.6326237"><ele>274.5</ele><time>2026-04-21T12:37:21.347Z</time></trkpt><trkpt lat="43.4283892" lon="0.6327148"><ele>274.0</ele><time>2026-04-21T12:37:22.347Z</time></trkpt><trkpt lat="43.4283957" lon="0.632807"><ele>273.5</ele><time>2026-04-21T12:37:23.347Z</time></trkpt><trkpt lat="43.4284006" lon="0.6329038"><ele>273.0</ele><time>2026-04-21T12:37:24.347Z</time></trkpt><trkpt lat="43.4284091" lon="0.6330832"><ele>272.5</ele><time>2026-04-21T12:37:26.346Z</time></trkpt><trkpt lat="43.4284207" lon="0.633169"><ele>272.0</ele><time>2026-04-21T12:37:27.347Z</time></trkpt><trkpt lat="43.4284137" lon="0.6332627"><ele>271.5</ele><time>2026-04-21T12:37:28.345Z</time></trkpt><trkpt lat="43.4284254" lon="0.6333527"><ele>271.0</ele><time>2026-04-21T12:37:29.347Z</time></trkpt><trkpt lat="43.4284446" lon="0.6335174"><ele>270.5</ele><time>2026-04-21T12:37:31.347Z</time></trkpt><trkpt lat="43.4284494" lon="0.6336689"><ele>270.0</ele><time>2026-04-21T12:37:33.347Z</time></trkpt><trkpt lat="43.4284628" lon="0.6338244"><ele>269.5</ele><time>2026-04-21T12:37:35.348Z</time></trkpt><trkpt lat="43.4284676" lon="0.6339761"><ele>269.0</ele><time>2026-04-21T12:37:37.347Z</time></trkpt><trkpt lat="43.428469" lon="0.6341101"><ele>268.5</ele><time>2026-04-21T12:37:39.347Z</time></trkpt><trkpt lat="43.4285005" lon="0.6342042"><ele>268.0</ele><time>2026-04-21T12:37:41.347Z</time></trkpt><trkpt lat="43.428577" lon="0.6342368"><ele>267.5</ele><time>2026-04-21T12:37:43.347Z</time></trkpt><trkpt lat="43.428657" lon="0.6342013"><ele>267.0</ele><time>2026-04-21T12:37:45.347Z</time></trkpt><trkpt lat="43.4287321" lon="0.6341723"><ele>266.8333333333333</ele><time>2026-04-21T12:37:47.347Z</time></trkpt><trkpt lat="43.4288159" lon="0.6341462"><ele>266.6666666666667</ele><time>2026-04-21T12:37:49.347Z</time></trkpt><trkpt lat="43.4288967" lon="0.6341309"><ele>266.5</ele><time>2026-04-21T12:37:51.347Z</time></trkpt><trkpt lat="43.4289754" lon="0.6341215"><ele>266.33333333333337</ele><time>2026-04-21T12:37:53.347Z</time></trkpt><trkpt lat="43.4290505" lon="0.6341161"><ele>266.1666666666667</ele><time>2026-04-21T12:37:55.347Z</time></trkpt><trkpt lat="43.4291216" lon="0.6341212"><ele>266.0</ele><time>2026-04-21T12:37:57.347Z</time></trkpt><trkpt lat="43.4291957" lon="0.6341341"><ele>266.0</ele><time>2026-04-21T12:37:59.346Z</time></trkpt><trkpt lat="43.4292757" lon="0.6341408"><ele>266.0</ele><time>2026-04-21T12:38:01.347Z</time></trkpt><trkpt lat="43.4293689" lon="0.6341446"><ele>266.0</ele><time>2026-04-21T12:38:03.346Z</time></trkpt><trkpt lat="43.4294697" lon="0.6341574"><ele>266.0</ele><time>2026-04-21T12:38:05.347Z</time></trkpt><trkpt lat="43.4295773" lon="0.6341667"><ele>266.0</ele><time>2026-04-21T12:38:07.348Z</time></trkpt><trkpt lat="43.4296891" lon="0.634172"><ele>265.2</ele><time>2026-04-21T12:38:09.348Z</time></trkpt><trkpt lat="43.429796" lon="0.634165"><ele>264.40000000000003</ele><time>2026-04-21T12:38:11.347Z</time></trkpt><trkpt lat="43.4298943" lon="0.6341361"><ele>263.6</ele><time>2026-04-21T12:38:13.347Z</time></trkpt><trkpt lat="43.4299926" lon="0.6340655"><ele>262.8</ele><time>2026-04-21T12:38:15.347Z</time></trkpt><trkpt lat="43.4300821" lon="0.633977"><ele>262.0</ele><time>2026-04-21T12:38:17.347Z</time></trkpt><trkpt lat="43.4301646" lon="0.6338657"><ele>262.0</ele><time>2026-04-21T12:38:19.347Z</time></trkpt><trkpt lat="43.4302329" lon="0.6337395"><ele>262.0</ele><time>2026-04-21T12:38:21.347Z</time></trkpt><trkpt lat="43.4302964" lon="0.633603"><ele>262.0</ele><time>2026-04-21T12:38:23.347Z</time></trkpt><trkpt lat="43.430359" lon="0.6334817"><ele>262.0</ele><time>2026-04-21T12:38:25.347Z</time></trkpt><trkpt lat="43.4304179" lon="0.6333348"><ele>263.2</ele><time>2026-04-21T12:38:27.347Z</time></trkpt><trkpt lat="43.430472" lon="0.6331863"><ele>264.4</ele><time>2026-04-21T12:38:29.347Z</time></trkpt><trkpt lat="43.4305025" lon="0.6331007"><ele>265.6</ele><time>2026-04-21T12:38:30.347Z</time></trkpt><trkpt lat="43.4305357" lon="0.6329809"><ele>266.8</ele><time>2026-04-21T12:38:32.347Z</time></trkpt><trkpt lat="43.4305576" lon="0.6328988"><ele>268.0</ele><time>2026-04-21T12:38:33.347Z</time></trkpt><trkpt lat="43.4305879" lon="0.6327279"><ele>265.4</ele><time>2026-04-21T12:38:35.347Z</time></trkpt><trkpt lat="43.4306088" lon="0.6326353"><ele>262.8</ele><time>2026-04-21T12:38:36.347Z</time></trkpt><trkpt lat="43.4306369" lon="0.6324791"><ele>260.2</ele><time>2026-04-21T12:38:38.347Z</time></trkpt><trkpt lat="43.4306598" lon="0.6323052"><ele>257.6</ele><time>2026-04-21T12:38:40.347Z</time></trkpt><trkpt lat="43.4306595" lon="0.6322155"><ele>255.0</ele><time>2026-04-21T12:38:41.348Z</time></trkpt><trkpt lat="43.4306737" lon="0.6321156"><ele>254.6</ele><time>2026-04-21T12:38:42.347Z</time></trkpt><trkpt lat="43.4306647" lon="0.6319404"><ele>254.2</ele><time>2026-04-21T12:38:44.347Z</time></trkpt><trkpt lat="43.4306668" lon="0.6318472"><ele>253.8</ele><time>2026-04-21T12:38:45.347Z</time></trkpt><trkpt lat="43.430683" lon="0.6317564"><ele>253.4</ele><time>2026-04-21T12:38:46.348Z</time></trkpt><trkpt lat="43.4306997" lon="0.6315989"><ele>253.0</ele><time>2026-04-21T12:38:48.348Z</time></trkpt><trkpt lat="43.43071" lon="0.6314569"><ele>252.99999999999997</ele><time>2026-04-21T12:38:50.347Z</time></trkpt><trkpt lat="43.430742" lon="0.6313463"><ele>253.0</ele><time>2026-04-21T12:38:52.347Z</time></trkpt><trkpt lat="43.4307815" lon="0.6312218"><ele>253.0</ele><time>2026-04-21T12:38:54.347Z</time></trkpt><trkpt lat="43.4308314" lon="0.6311591"><ele>253.0</ele><time>2026-04-21T12:38:55.347Z</time></trkpt><trkpt lat="43.4309394" lon="0.6310852"><ele>252.99999999999997</ele><time>2026-04-21T12:38:57.347Z</time></trkpt><trkpt lat="43.4310044" lon="0.6310691"><ele>253.0</ele><time>2026-04-21T12:38:58.348Z</time></trkpt><trkpt lat="43.4311263" lon="0.631072"><ele>252.99999999999997</ele><time>2026-04-21T12:39:00.347Z</time></trkpt><trkpt lat="43.4312312" lon="0.6310547"><ele>253.0</ele><time>2026-04-21T12:39:02.348Z</time></trkpt><trkpt lat="43.4313201" lon="0.6310348"><ele>253.0</ele><time>2026-04-21T12:39:04.348Z</time></trkpt><trkpt lat="43.4313896" lon="0.6310131"><ele>253.0</ele><time>2026-04-21T12:39:06.347Z</time></trkpt><trkpt lat="43.4314562" lon="0.6309816"><ele>252.99999999999997</ele><time>2026-04-21T12:39:09.347Z</time></trkpt><trkpt lat="43.431538" lon="0.6309753"><ele>253.0</ele><time>2026-04-21T12:39:12.347Z</time></trkpt><trkpt lat="43.4316046" lon="0.6309546"><ele>252.14285714285717</ele><time>2026-04-21T12:39:15.347Z</time></trkpt><trkpt lat="43.4316703" lon="0.6309288"><ele>251.28571428571428</ele><time>2026-04-21T12:39:18.348Z</time></trkpt><trkpt lat="43.4317365" lon="0.6308959"><ele>250.42857142857144</ele><time>2026-04-21T12:39:21.347Z</time></trkpt><trkpt lat="43.4318" lon="0.630858"><ele>249.57142857142858</ele><time>2026-04-21T12:39:24.348Z</time></trkpt><trkpt lat="43.4318602" lon="0.6308182"><ele>248.71428571428572</ele><time>2026-04-21T12:39:27.347Z</time></trkpt><trkpt lat="43.4319172" lon="0.6307709"><ele>247.85714285714286</ele><time>2026-04-21T12:39:30.346Z</time></trkpt><trkpt lat="43.4319677" lon="0.6307178"><ele>247.0</ele><time>2026-04-21T12:39:33.347Z</time></trkpt><trkpt lat="43.4320177" lon="0.6306638"><ele>247.0</ele><time>2026-04-21T12:39:36.347Z</time></trkpt><trkpt lat="43.432068" lon="0.6306078"><ele>247.0</ele><time>2026-04-21T12:39:39.347Z</time></trkpt><trkpt lat="43.4321185" lon="0.6305546"><ele>247.0</ele><time>2026-04-21T12:39:42.347Z</time></trkpt><trkpt lat="43.4321658" lon="0.6304925"><ele>247.0</ele><time>2026-04-21T12:39:45.347Z</time></trkpt><trkpt lat="43.4322063" lon="0.630417"><ele>247.0</ele><time>2026-04-21T12:39:48.347Z</time></trkpt><trkpt lat="43.4322545" lon="0.6303476"><ele>247.0</ele><time>2026-04-21T12:39:51.347Z</time></trkpt><trkpt lat="43.4323067" lon="0.6302777"><ele>247.0</ele><time>2026-04-21T12:39:54.347Z</time></trkpt><trkpt lat="43.4323504" lon="0.6302114"><ele>248.66666666666666</ele><time>2026-04-21T12:39:57.347Z</time></trkpt><trkpt lat="43.4323854" lon="0.6301308"><ele>250.33333333333331</ele><time>2026-04-21T12:40:00.347Z</time></trkpt><trkpt lat="43.4324321" lon="0.6300269"><ele>252.0</ele><time>2026-04-21T12:40:04.347Z</time></trkpt><trkpt lat="43.4324734" lon="0.6299288"><ele>253.66666666666669</ele><time>2026-04-21T12:40:07.347Z</time></trkpt><trkpt lat="43.4325089" lon="0.6298253"><ele>255.33333333333334</ele><time>2026-04-21T12:40:10.347Z</time></trkpt><trkpt lat="43.4325473" lon="0.6297085"><ele>257.0</ele><time>2026-04-21T12:40:13.347Z</time></trkpt><trkpt lat="43.4325725" lon="0.6296201"><ele>257.0</ele><time>2026-04-21T12:40:15.347Z</time></trkpt><trkpt lat="43.4326081" lon="0.6294974"><ele>257.0</ele><time>2026-04-21T12:40:18.348Z</time></trkpt><trkpt lat="43.4326399" lon="0.6294014"><ele>257.0</ele><time>2026-04-21T12:40:21.348Z</time></trkpt><trkpt lat="43.4326805" lon="0.6293005"><ele>257.0</ele><time>2026-04-21T12:40:24.347Z</time></trkpt><trkpt lat="43.4327247" lon="0.6292164"><ele>257.0</ele><time>2026-04-21T12:40:27.347Z</time></trkpt><trkpt lat="43.4327619" lon="0.6291237"><ele>257.0</ele><time>2026-04-21T12:40:30.347Z</time></trkpt><trkpt lat="43.4328155" lon="0.6290372"><ele>258.1666666666667</ele><time>2026-04-21T12:40:33.347Z</time></trkpt><trkpt lat="43.4328651" lon="0.6289403"><ele>259.33333333333337</ele><time>2026-04-21T12:40:36.347Z</time></trkpt><trkpt lat="43.432924" lon="0.6288633"><ele>260.5</ele><time>2026-04-21T12:40:39.348Z</time></trkpt><trkpt lat="43.4329841" lon="0.6288003"><ele>261.6666666666667</ele><time>2026-04-21T12:40:42.347Z</time></trkpt><trkpt lat="43.4330497" lon="0.6287403"><ele>262.8333333333333</ele><time>2026-04-21T12:40:45.347Z</time></trkpt><trkpt lat="43.4331204" lon="0.628697"><ele>264.0</ele><time>2026-04-21T12:40:48.347Z</time></trkpt><trkpt lat="43.4331964" lon="0.6286697"><ele>264.3333333333333</ele><time>2026-04-21T12:40:51.347Z</time></trkpt><trkpt lat="43.4332738" lon="0.6286949"><ele>264.6666666666667</ele><time>2026-04-21T12:40:54.347Z</time></trkpt><trkpt lat="43.4333399" lon="0.6287665"><ele>265.0</ele><time>2026-04-21T12:40:57.348Z</time></trkpt><trkpt lat="43.4333983" lon="0.6288396"><ele>265.33333333333337</ele><time>2026-04-21T12:41:00.347Z</time></trkpt><trkpt lat="43.4334424" lon="0.62893"><ele>265.6666666666667</ele><time>2026-04-21T12:41:03.348Z</time></trkpt><trkpt lat="43.4334688" lon="0.6290366"><ele>266.0</ele><time>2026-04-21T12:41:06.347Z</time></trkpt><trkpt lat="43.433483" lon="0.6291452"><ele>266.0</ele><time>2026-04-21T12:41:09.347Z</time></trkpt><trkpt lat="43.433483" lon="0.6292595"><ele>266.0</ele><time>2026-04-21T12:41:12.348Z</time></trkpt><trkpt lat="43.4334817" lon="0.6293585"><ele>266.0</ele><time>2026-04-21T12:41:15.348Z</time></trkpt><trkpt lat="43.4334813" lon="0.6294655"><ele>266.0</ele><time>2026-04-21T12:41:18.346Z</time></trkpt><trkpt lat="43.4334833" lon="0.6295678"><ele>266.0</ele><time>2026-04-21T12:41:21.347Z</time></trkpt><trkpt lat="43.4334735" lon="0.6296768"><ele>266.0</ele><time>2026-04-21T12:41:24.347Z</time></trkpt><trkpt lat="43.4334599" lon="0.629788"><ele>266.5</ele><time>2026-04-21T12:41:27.347Z</time></trkpt><trkpt lat="43.4334477" lon="0.6298986"><ele>267.0</ele><time>2026-04-21T12:41:30.348Z</time></trkpt><trkpt lat="43.4334368" lon="0.630008"><ele>267.5</ele><time>2026-04-21T12:41:33.347Z</time></trkpt><trkpt lat="43.4334247" lon="0.6301126"><ele>268.0</ele><time>2026-04-21T12:41:36.347Z</time></trkpt><trkpt lat="43.4334107" lon="0.6302164"><ele>268.5</ele><time>2026-04-21T12:41:39.347Z</time></trkpt><trkpt lat="43.4334024" lon="0.6303226"><ele>269.0</ele><time>2026-04-21T12:41:42.347Z</time></trkpt><trkpt lat="43.4333961" lon="0.6304267"><ele>269.6666666666667</ele><time>2026-04-21T12:41:45.347Z</time></trkpt><trkpt lat="43.4333987" lon="0.6305309"><ele>270.33333333333337</ele><time>2026-04-21T12:41:48.348Z</time></trkpt><trkpt lat="43.4334117" lon="0.6306317"><ele>271.0</ele><time>2026-04-21T12:41:51.347Z</time></trkpt><trkpt lat="43.4334543" lon="0.6307228"><ele>271.6666666666667</ele><time>2026-04-21T12:41:54.347Z</time></trkpt><trkpt lat="43.433508" lon="0.6307998"><ele>272.3333333333333</ele><time>2026-04-21T12:41:57.347Z</time></trkpt><trkpt lat="43.4335717" lon="0.6308585"><ele>273.0</ele><time>2026-04-21T12:42:00.347Z</time></trkpt><trkpt lat="43.4336474" lon="0.6308937"><ele>273.0</ele><time>2026-04-21T12:42:03.347Z</time></trkpt><trkpt lat="43.4337271" lon="0.6309115"><ele>273.0</ele><time>2026-04-21T12:42:06.347Z</time></trkpt><trkpt lat="43.4337951" lon="0.6309223"><ele>273.0</ele><time>2026-04-21T12:42:09.347Z</time></trkpt><trkpt lat="43.4338748" lon="0.6309242"><ele>273.0</ele><time>2026-04-21T12:42:13.347Z</time></trkpt><trkpt lat="43.4339389" lon="0.6309336"><ele>273.0</ele><time>2026-04-21T12:42:16.347Z</time></trkpt><trkpt lat="43.434022" lon="0.630951"><ele>273.0</ele><time>2026-04-21T12:42:19.348Z</time></trkpt><trkpt lat="43.4341083" lon="0.6309507"><ele>274.0</ele><time>2026-04-21T12:42:22.347Z</time></trkpt><trkpt lat="43.4341868" lon="0.6309757"><ele>275.0</ele><time>2026-04-21T12:42:25.347Z</time></trkpt><trkpt lat="43.4342822" lon="0.6309816"><ele>276.0</ele><time>2026-04-21T12:42:28.347Z</time></trkpt><trkpt lat="43.4343519" lon="0.6309865"><ele>277.0</ele><time>2026-04-21T12:42:30.348Z</time></trkpt><trkpt lat="43.4344274" lon="0.6309882"><ele>278.0</ele><time>2026-04-21T12:42:32.347Z</time></trkpt><trkpt lat="43.4345002" lon="0.6309869"><ele>279.0</ele><time>2026-04-21T12:42:34.347Z</time></trkpt><trkpt lat="43.4345714" lon="0.6309808"><ele>278.99999999999994</ele><time>2026-04-21T12:42:36.348Z</time></trkpt><trkpt lat="43.434639" lon="0.6309765"><ele>279.0</ele><time>2026-04-21T12:42:38.347Z</time></trkpt><trkpt lat="43.4347046" lon="0.6309737"><ele>279.0</ele><time>2026-04-21T12:42:40.347Z</time></trkpt><trkpt lat="43.434771" lon="0.6309681"><ele>279.0</ele><time>2026-04-21T12:42:42.347Z</time></trkpt><trkpt lat="43.4348388" lon="0.6309605"><ele>279.0</ele><time>2026-04-21T12:42:44.348Z</time></trkpt><trkpt lat="43.4349064" lon="0.6309525"><ele>278.99999999999994</ele><time>2026-04-21T12:42:46.347Z</time></trkpt><trkpt lat="43.4349734" lon="0.6309443"><ele>279.0</ele><time>2026-04-21T12:42:48.347Z</time></trkpt><trkpt lat="43.4350436" lon="0.6309367"><ele>279.0</ele><time>2026-04-21T12:42:50.347Z</time></trkpt><trkpt lat="43.4351229" lon="0.6309279"><ele>279.0</ele><time>2026-04-21T12:42:52.347Z</time></trkpt><trkpt lat="43.4352093" lon="0.6309221"><ele>279.0</ele><time>2026-04-21T12:42:54.347Z</time></trkpt><trkpt lat="43.4352973" lon="0.6309206"><ele>279.0</ele><time>2026-04-21T12:42:56.347Z</time></trkpt><trkpt lat="43.4353883" lon="0.6309248"><ele>279.0</ele><time>2026-04-21T12:42:58.347Z</time></trkpt><trkpt lat="43.43548" lon="0.6309279"><ele>279.0</ele><time>2026-04-21T12:43:00.347Z</time></trkpt><trkpt lat="43.4355655" lon="0.6309231"><ele>278.6666666666667</ele><time>2026-04-21T12:43:02.347Z</time></trkpt><trkpt lat="43.4356551" lon="0.6309179"><ele>278.3333333333333</ele><time>2026-04-21T12:43:04.347Z</time></trkpt><trkpt lat="43.4357416" lon="0.6309134"><ele>278.0</ele><time>2026-04-21T12:43:06.347Z</time></trkpt><trkpt lat="43.4358248" lon="0.6309079"><ele>277.66666666666663</ele><time>2026-04-21T12:43:08.347Z</time></trkpt><trkpt lat="43.4359084" lon="0.6309018"><ele>277.3333333333333</ele><time>2026-04-21T12:43:10.341Z</time></trkpt><trkpt lat="43.4359908" lon="0.6308912"><ele>277.0</ele><time>2026-04-21T12:43:12.343Z</time></trkpt><trkpt lat="43.4360729" lon="0.6308802"><ele>277.0</ele><time>2026-04-21T12:43:14.347Z</time></trkpt><trkpt lat="43.4361591" lon="0.6308716"><ele>277.0</ele><time>2026-04-21T12:43:16.347Z</time></trkpt><trkpt lat="43.4362529" lon="0.6308622"><ele>277.0</ele><time>2026-04-21T12:43:18.348Z</time></trkpt><trkpt lat="43.4363607" lon="0.6308565"><ele>277.0</ele><time>2026-04-21T12:43:20.347Z</time></trkpt><trkpt lat="43.436476" lon="0.6308421"><ele>277.0</ele><time>2026-04-21T12:43:22.347Z</time></trkpt><trkpt lat="43.4365401" lon="0.6308393"><ele>276.66666666666663</ele><time>2026-04-21T12:43:23.344Z</time></trkpt><trkpt lat="43.436604" lon="0.6308391"><ele>276.3333333333333</ele><time>2026-04-21T12:43:24.345Z</time></trkpt><trkpt lat="43.4367164" lon="0.6308195"><ele>276.0</ele><time>2026-04-21T12:43:26.348Z</time></trkpt><trkpt lat="43.4367805" lon="0.6308224"><ele>275.6666666666667</ele><time>2026-04-21T12:43:27.347Z</time></trkpt><trkpt lat="43.4368698" lon="0.6308123"><ele>275.33333333333337</ele><time>2026-04-21T12:43:29.347Z</time></trkpt><trkpt lat="43.4369645" lon="0.6307752"><ele>275.0</ele><time>2026-04-21T12:43:31.347Z</time></trkpt><trkpt lat="43.437056" lon="0.6307059"><ele>274.33333333333337</ele><time>2026-04-21T12:43:33.347Z</time></trkpt><trkpt lat="43.4371514" lon="0.6306308"><ele>273.6666666666667</ele><time>2026-04-21T12:43:35.347Z</time></trkpt><trkpt lat="43.437235" lon="0.6305325"><ele>273.0</ele><time>2026-04-21T12:43:37.344Z</time></trkpt><trkpt lat="43.4372784" lon="0.6304691"><ele>272.3333333333333</ele><time>2026-04-21T12:43:38.347Z</time></trkpt><trkpt lat="43.4373166" lon="0.6303912"><ele>271.66666666666663</ele><time>2026-04-21T12:43:39.347Z</time></trkpt><trkpt lat="43.4373561" lon="0.630322"><ele>271.0</ele><time>2026-04-21T12:43:40.347Z</time></trkpt><trkpt lat="43.4373934" lon="0.6302512"><ele>271.0</ele><time>2026-04-21T12:43:41.347Z</time></trkpt><trkpt lat="43.4374374" lon="0.6301744"><ele>271.0</ele><time>2026-04-21T12:43:42.347Z</time></trkpt><trkpt lat="43.4375139" lon="0.630045"><ele>271.0</ele><time>2026-04-21T12:43:44.347Z</time></trkpt><trkpt lat="43.4375586" lon="0.6299795"><ele>271.0</ele><time>2026-04-21T12:43:45.347Z</time></trkpt><trkpt lat="43.4376153" lon="0.6299196"><ele>271.0</ele><time>2026-04-21T12:43:46.347Z</time></trkpt><trkpt lat="43.4376675" lon="0.6298677"><ele>271.0</ele><time>2026-04-21T12:43:47.346Z</time></trkpt><trkpt lat="43.437783" lon="0.6298024"><ele>271.0</ele><time>2026-04-21T12:43:49.348Z</time></trkpt><trkpt lat="43.4378677" lon="0.6297726"><ele>271.0</ele><time>2026-04-21T12:43:51.347Z</time></trkpt><trkpt lat="43.4379513" lon="0.6297584"><ele>271.0</ele><time>2026-04-21T12:43:54.347Z</time></trkpt><trkpt lat="43.4380224" lon="0.6297564"><ele>271.0</ele><time>2026-04-21T12:43:57.347Z</time></trkpt><trkpt lat="43.4380854" lon="0.6297894"><ele>271.0</ele><time>2026-04-21T12:44:00.347Z</time></trkpt><trkpt lat="43.4381507" lon="0.6298309"><ele>271.0</ele><time>2026-04-21T12:44:03.347Z</time></trkpt><trkpt lat="43.4382004" lon="0.6299048"><ele>271.16666666666663</ele><time>2026-04-21T12:44:06.347Z</time></trkpt><trkpt lat="43.4382396" lon="0.6299881"><ele>271.3333333333333</ele><time>2026-04-21T12:44:09.347Z</time></trkpt><trkpt lat="43.4382624" lon="0.6300811"><ele>271.5</ele><time>2026-04-21T12:44:12.347Z</time></trkpt><trkpt lat="43.438287" lon="0.6301724"><ele>271.6666666666667</ele><time>2026-04-21T12:44:15.347Z</time></trkpt><trkpt lat="43.438309" lon="0.6302929"><ele>271.83333333333337</ele><time>2026-04-21T12:44:18.347Z</time></trkpt><trkpt lat="43.4383553" lon="0.6303916"><ele>272.0</ele><time>2026-04-21T12:44:21.347Z</time></trkpt><trkpt lat="43.4384056" lon="0.6304654"><ele>272.0</ele><time>2026-04-21T12:44:24.348Z</time></trkpt><trkpt lat="43.4384698" lon="0.6305215"><ele>272.0</ele><time>2026-04-21T12:44:27.347Z</time></trkpt><trkpt lat="43.4385501" lon="0.6305531"><ele>272.0</ele><time>2026-04-21T12:44:30.347Z</time></trkpt><trkpt lat="43.4386265" lon="0.6305745"><ele>272.0</ele><time>2026-04-21T12:44:33.347Z</time></trkpt><trkpt lat="43.4387053" lon="0.6305613"><ele>272.0</ele><time>2026-04-21T12:44:36.347Z</time></trkpt><trkpt lat="43.4387793" lon="0.6305379"><ele>272.0</ele><time>2026-04-21T12:44:39.347Z</time></trkpt><trkpt lat="43.4388468" lon="0.630507"><ele>272.5</ele><time>2026-04-21T12:44:42.347Z</time></trkpt><trkpt lat="43.438904" lon="0.6304575"><ele>273.0</ele><time>2026-04-21T12:44:45.347Z</time></trkpt><trkpt lat="43.4389328" lon="0.6303535"><ele>273.5</ele><time>2026-04-21T12:44:48.347Z</time></trkpt><trkpt lat="43.4389358" lon="0.6302383"><ele>274.0</ele><time>2026-04-21T12:44:51.347Z</time></trkpt><trkpt lat="43.4389409" lon="0.6301274"><ele>274.5</ele><time>2026-04-21T12:44:54.347Z</time></trkpt><trkpt lat="43.4389524" lon="0.6300122"><ele>275.0</ele><time>2026-04-21T12:44:57.347Z</time></trkpt><trkpt lat="43.4389619" lon="0.6298911"><ele>275.8</ele><time>2026-04-21T12:45:00.347Z</time></trkpt><trkpt lat="43.4389685" lon="0.6297687"><ele>276.6</ele><time>2026-04-21T12:45:03.348Z</time></trkpt><trkpt lat="43.4389753" lon="0.629646"><ele>277.4</ele><time>2026-04-21T12:45:06.347Z</time></trkpt><trkpt lat="43.4389862" lon="0.6295203"><ele>278.2</ele><time>2026-04-21T12:45:09.347Z</time></trkpt><trkpt lat="43.4389939" lon="0.6293944"><ele>279.0</ele><time>2026-04-21T12:45:12.347Z</time></trkpt><trkpt lat="43.4390033" lon="0.6292659"><ele>279.3333333333333</ele><time>2026-04-21T12:45:15.347Z</time></trkpt><trkpt lat="43.4390149" lon="0.6291789"><ele>279.6666666666667</ele><time>2026-04-21T12:45:17.347Z</time></trkpt><trkpt lat="43.4390299" lon="0.6290511"><ele>280.0</ele><time>2026-04-21T12:45:20.347Z</time></trkpt><trkpt lat="43.439044" lon="0.6289215"><ele>280.33333333333337</ele><time>2026-04-21T12:45:23.347Z</time></trkpt><trkpt lat="43.4390521" lon="0.6288329"><ele>280.6666666666667</ele><time>2026-04-21T12:45:25.347Z</time></trkpt><trkpt lat="43.4390604" lon="0.6287381"><ele>281.0</ele><time>2026-04-21T12:45:27.347Z</time></trkpt><trkpt lat="43.4390669" lon="0.6286425"><ele>281.28571428571433</ele><time>2026-04-21T12:45:29.347Z</time></trkpt><trkpt lat="43.4390728" lon="0.6285471"><ele>281.57142857142856</ele><time>2026-04-21T12:45:31.347Z</time></trkpt><trkpt lat="43.4390816" lon="0.6284511"><ele>281.8571428571429</ele><time>2026-04-21T12:45:33.347Z</time></trkpt><trkpt lat="43.4390939" lon="0.6283562"><ele>282.14285714285717</ele><time>2026-04-21T12:45:35.347Z</time></trkpt><trkpt lat="43.4391053" lon="0.6282587"><ele>282.42857142857144</ele><time>2026-04-21T12:45:37.348Z</time></trkpt><trkpt lat="43.4391158" lon="0.6281637"><ele>282.7142857142857</ele><time>2026-04-21T12:45:39.348Z</time></trkpt><trkpt lat="43.4391274" lon="0.6280708"><ele>283.0</ele><time>2026-04-21T12:45:41.348Z</time></trkpt><trkpt lat="43.4391358" lon="0.6279778"><ele>283.0</ele><time>2026-04-21T12:45:43.347Z</time></trkpt><trkpt lat="43.4391477" lon="0.6278856"><ele>283.0</ele><time>2026-04-21T12:45:45.348Z</time></trkpt><trkpt lat="43.4391589" lon="0.6277916"><ele>283.0</ele><time>2026-04-21T12:45:47.348Z</time></trkpt><trkpt lat="43.4391685" lon="0.6276944"><ele>283.0</ele><time>2026-04-21T12:45:49.347Z</time></trkpt><trkpt lat="43.4391806" lon="0.6275951"><ele>283.0</ele><time>2026-04-21T12:45:51.348Z</time></trkpt><trkpt lat="43.4391896" lon="0.6274951"><ele>283.0</ele><time>2026-04-21T12:45:53.347Z</time></trkpt><trkpt lat="43.4391971" lon="0.6273965"><ele>283.0</ele><time>2026-04-21T12:45:55.347Z</time></trkpt><trkpt lat="43.4392032" lon="0.6272916"><ele>283.42857142857144</ele><time>2026-04-21T12:45:57.347Z</time></trkpt><trkpt lat="43.4392128" lon="0.6271936"><ele>283.8571428571429</ele><time>2026-04-21T12:45:59.348Z</time></trkpt><trkpt lat="43.4392256" lon="0.6270956"><ele>284.2857142857143</ele><time>2026-04-21T12:46:01.347Z</time></trkpt><trkpt lat="43.4392366" lon="0.6269959"><ele>284.7142857142857</ele><time>2026-04-21T12:46:03.347Z</time></trkpt><trkpt lat="43.4392465" lon="0.6268932"><ele>285.1428571428571</ele><time>2026-04-21T12:46:05.347Z</time></trkpt><trkpt lat="43.4392579" lon="0.6267913"><ele>285.57142857142856</ele><time>2026-04-21T12:46:07.347Z</time></trkpt><trkpt lat="43.4392685" lon="0.6266896"><ele>286.0</ele><time>2026-04-21T12:46:09.347Z</time></trkpt><trkpt lat="43.4392745" lon="0.6265888"><ele>286.4285714285714</ele><time>2026-04-21T12:46:11.348Z</time></trkpt><trkpt lat="43.4392827" lon="0.6264866"><ele>286.85714285714283</ele><time>2026-04-21T12:46:13.347Z</time></trkpt><trkpt lat="43.4392933" lon="0.6263892"><ele>287.2857142857143</ele><time>2026-04-21T12:46:15.347Z</time></trkpt><trkpt lat="43.4393034" lon="0.6262906"><ele>287.71428571428567</ele><time>2026-04-21T12:46:17.347Z</time></trkpt><trkpt lat="43.4393136" lon="0.6261928"><ele>288.1428571428571</ele><time>2026-04-21T12:46:19.347Z</time></trkpt><trkpt lat="43.4393223" lon="0.6261015"><ele>288.57142857142856</ele><time>2026-04-21T12:46:21.347Z</time></trkpt><trkpt lat="43.4393323" lon="0.6260089"><ele>289.0</ele><time>2026-04-21T12:46:23.347Z</time></trkpt><trkpt lat="43.4393488" lon="0.6259191"><ele>288.66666666666663</ele><time>2026-04-21T12:46:25.348Z</time></trkpt><trkpt lat="43.4393613" lon="0.6257926"><ele>288.3333333333333</ele><time>2026-04-21T12:46:28.347Z</time></trkpt><trkpt lat="43.4393683" lon="0.6256681"><ele>288.0</ele><time>2026-04-21T12:46:31.347Z</time></trkpt><trkpt lat="43.4393641" lon="0.6255421"><ele>287.6666666666667</ele><time>2026-04-21T12:46:34.347Z</time></trkpt><trkpt lat="43.4393505" lon="0.6254431"><ele>287.33333333333337</ele><time>2026-04-21T12:46:36.347Z</time></trkpt><trkpt lat="43.439338" lon="0.6253282"><ele>287.0</ele><time>2026-04-21T12:46:38.348Z</time></trkpt><trkpt lat="43.4393275" lon="0.6251976"><ele>287.0</ele><time>2026-04-21T12:46:40.347Z</time></trkpt><trkpt lat="43.439321" lon="0.6250635"><ele>287.0</ele><time>2026-04-21T12:46:42.347Z</time></trkpt><trkpt lat="43.4393176" lon="0.6249214"><ele>287.0</ele><time>2026-04-21T12:46:44.347Z</time></trkpt><trkpt lat="43.4393087" lon="0.6247714"><ele>287.0</ele><time>2026-04-21T12:46:46.347Z</time></trkpt><trkpt lat="43.4393028" lon="0.6246176"><ele>287.0</ele><time>2026-04-21T12:46:48.347Z</time></trkpt><trkpt lat="43.4392925" lon="0.6244534"><ele>286.75</ele><time>2026-04-21T12:46:50.347Z</time></trkpt><trkpt lat="43.4392741" lon="0.6242911"><ele>286.5</ele><time>2026-04-21T12:46:52.347Z</time></trkpt><trkpt lat="43.4392595" lon="0.6241238"><ele>286.25</ele><time>2026-04-21T12:46:54.347Z</time></trkpt><trkpt lat="43.4392546" lon="0.623957"><ele>286.0</ele><time>2026-04-21T12:46:56.347Z</time></trkpt><trkpt lat="43.4392476" lon="0.6237951"><ele>286.25</ele><time>2026-04-21T12:46:58.347Z</time></trkpt><trkpt lat="43.439231" lon="0.6236379"><ele>286.5</ele><time>2026-04-21T12:47:00.346Z</time></trkpt><trkpt lat="43.4392205" lon="0.6234853"><ele>286.75</ele><time>2026-04-21T12:47:02.348Z</time></trkpt><trkpt lat="43.4392034" lon="0.623335"><ele>287.0</ele><time>2026-04-21T12:47:04.348Z</time></trkpt><trkpt lat="43.4391887" lon="0.6231791"><ele>287.0</ele><time>2026-04-21T12:47:06.347Z</time></trkpt><trkpt lat="43.4391611" lon="0.6230313"><ele>287.0</ele><time>2026-04-21T12:47:08.347Z</time></trkpt><trkpt lat="43.4391309" lon="0.6228934"><ele>287.0</ele><time>2026-04-21T12:47:10.347Z</time></trkpt><trkpt lat="43.4390735" lon="0.622761"><ele>287.0</ele><time>2026-04-21T12:47:12.347Z</time></trkpt><trkpt lat="43.4389957" lon="0.6226454"><ele>287.0</ele><time>2026-04-21T12:47:14.347Z</time></trkpt><trkpt lat="43.438902" lon="0.6225532"><ele>287.0</ele><time>2026-04-21T12:47:16.348Z</time></trkpt><trkpt lat="43.4387979" lon="0.6224872"><ele>287.0</ele><time>2026-04-21T12:47:18.347Z</time></trkpt><trkpt lat="43.4386802" lon="0.622443"><ele>287.0</ele><time>2026-04-21T12:47:20.347Z</time></trkpt><trkpt lat="43.4385864" lon="0.6223839"><ele>287.0</ele><time>2026-04-21T12:47:22.347Z</time></trkpt><trkpt lat="43.4384955" lon="0.6223538"><ele>287.0</ele><time>2026-04-21T12:47:24.347Z</time></trkpt><trkpt lat="43.4383974" lon="0.6223011"><ele>287.0</ele><time>2026-04-21T12:47:26.347Z</time></trkpt><trkpt lat="43.4383034" lon="0.6222356"><ele>287.0</ele><time>2026-04-21T12:47:28.347Z</time></trkpt><trkpt lat="43.4382122" lon="0.6221864"><ele>287.0</ele><time>2026-04-21T12:47:30.347Z</time></trkpt><trkpt lat="43.4381169" lon="0.6221229"><ele>287.0</ele><time>2026-04-21T12:47:32.347Z</time></trkpt><trkpt lat="43.4380228" lon="0.6220745"><ele>287.0</ele><time>2026-04-21T12:47:34.347Z</time></trkpt><trkpt lat="43.4379245" lon="0.6220068"><ele>287.0</ele><time>2026-04-21T12:47:36.347Z</time></trkpt><trkpt lat="43.437824" lon="0.6219371"><ele>287.0</ele><time>2026-04-21T12:47:38.347Z</time></trkpt><trkpt lat="43.4377214" lon="0.6218677"><ele>287.0</ele><time>2026-04-21T12:47:40.348Z</time></trkpt><trkpt lat="43.4376158" lon="0.6218015"><ele>287.0</ele><time>2026-04-21T12:47:42.347Z</time></trkpt><trkpt lat="43.4375115" lon="0.621733"><ele>287.0</ele><time>2026-04-21T12:47:44.347Z</time></trkpt><trkpt lat="43.4374112" lon="0.6216704"><ele>287.0</ele><time>2026-04-21T12:47:46.347Z</time></trkpt><trkpt lat="43.4373109" lon="0.6216027"><ele>287.0</ele><time>2026-04-21T12:47:48.348Z</time></trkpt><trkpt lat="43.4372055" lon="0.6215325"><ele>287.0</ele><time>2026-04-21T12:47:50.347Z</time></trkpt><trkpt lat="43.4371019" lon="0.6214658"><ele>287.0</ele><time>2026-04-21T12:47:52.347Z</time></trkpt><trkpt lat="43.4370107" lon="0.6214057"><ele>287.0</ele><time>2026-04-21T12:47:54.348Z</time></trkpt><trkpt lat="43.4369161" lon="0.6213438"><ele>287.0</ele><time>2026-04-21T12:47:56.347Z</time></trkpt><trkpt lat="43.4368223" lon="0.6212881"><ele>287.0</ele><time>2026-04-21T12:47:58.347Z</time></trkpt><trkpt lat="43.436724" lon="0.6212269"><ele>287.0</ele><time>2026-04-21T12:48:00.347Z</time></trkpt><trkpt lat="43.4366288" lon="0.6211695"><ele>287.4</ele><time>2026-04-21T12:48:02.347Z</time></trkpt><trkpt lat="43.4365354" lon="0.6211164"><ele>287.79999999999995</ele><time>2026-04-21T12:48:04.347Z</time></trkpt><trkpt lat="43.4364402" lon="0.6210606"><ele>288.2</ele><time>2026-04-21T12:48:06.347Z</time></trkpt><trkpt lat="43.4363488" lon="0.6210088"><ele>288.59999999999997</ele><time>2026-04-21T12:48:08.347Z</time></trkpt><trkpt lat="43.4362622" lon="0.620966"><ele>289.0</ele><time>2026-04-21T12:48:10.347Z</time></trkpt><trkpt lat="43.4361808" lon="0.6209165"><ele>289.66666666666663</ele><time>2026-04-21T12:48:12.347Z</time></trkpt><trkpt lat="43.4361074" lon="0.6208773"><ele>290.3333333333333</ele><time>2026-04-21T12:48:14.347Z</time></trkpt><trkpt lat="43.4360326" lon="0.6208469"><ele>291.0</ele><time>2026-04-21T12:48:16.348Z</time></trkpt><trkpt lat="43.435954" lon="0.6208166"><ele>291.6666666666667</ele><time>2026-04-21T12:48:18.347Z</time></trkpt><trkpt lat="43.4358815" lon="0.6207831"><ele>292.33333333333337</ele><time>2026-04-21T12:48:20.347Z</time></trkpt><trkpt lat="43.4358088" lon="0.6207502"><ele>293.0</ele><time>2026-04-21T12:48:22.347Z</time></trkpt><trkpt lat="43.4357386" lon="0.620721"><ele>292.99999999999994</ele><time>2026-04-21T12:48:24.347Z</time></trkpt><trkpt lat="43.4356683" lon="0.6206995"><ele>293.0</ele><time>2026-04-21T12:48:26.347Z</time></trkpt><trkpt lat="43.4355985" lon="0.6206779"><ele>293.0</ele><time>2026-04-21T12:48:28.347Z</time></trkpt><trkpt lat="43.4355286" lon="0.6206524"><ele>293.0</ele><time>2026-04-21T12:48:30.347Z</time></trkpt><trkpt lat="43.4354585" lon="0.6206281"><ele>293.0</ele><time>2026-04-21T12:48:32.347Z</time></trkpt><trkpt lat="43.4353866" lon="0.620609"><ele>292.99999999999994</ele><time>2026-04-21T12:48:34.348Z</time></trkpt><trkpt lat="43.4353148" lon="0.6205879"><ele>293.0</ele><time>2026-04-21T12:48:36.347Z</time></trkpt><trkpt lat="43.4352427" lon="0.6205653"><ele>294.0</ele><time>2026-04-21T12:48:38.347Z</time></trkpt><trkpt lat="43.4351709" lon="0.6205435"><ele>295.0</ele><time>2026-04-21T12:48:40.347Z</time></trkpt><trkpt lat="43.4350985" lon="0.6205239"><ele>296.0</ele><time>2026-04-21T12:48:42.347Z</time></trkpt><trkpt lat="43.4350216" lon="0.6204985"><ele>297.0</ele><time>2026-04-21T12:48:44.348Z</time></trkpt><trkpt lat="43.4349464" lon="0.6204697"><ele>298.0</ele><time>2026-04-21T12:48:46.347Z</time></trkpt><trkpt lat="43.4348698" lon="0.6204398"><ele>299.0</ele><time>2026-04-21T12:48:48.348Z</time></trkpt><trkpt lat="43.4347933" lon="0.6204039"><ele>299.0</ele><time>2026-04-21T12:48:50.348Z</time></trkpt><trkpt lat="43.4347231" lon="0.6203452"><ele>299.0</ele><time>2026-04-21T12:48:52.347Z</time></trkpt><trkpt lat="43.4346638" lon="0.6202656"><ele>299.0</ele><time>2026-04-21T12:48:54.347Z</time></trkpt><trkpt lat="43.4346191" lon="0.6201717"><ele>299.0</ele><time>2026-04-21T12:48:56.348Z</time></trkpt><trkpt lat="43.4345878" lon="0.6200674"><ele>299.0</ele><time>2026-04-21T12:48:58.347Z</time></trkpt><trkpt lat="43.4345673" lon="0.6199606"><ele>299.0</ele><time>2026-04-21T12:49:00.347Z</time></trkpt><trkpt lat="43.4345533" lon="0.6198537"><ele>299.85714285714283</ele><time>2026-04-21T12:49:02.347Z</time></trkpt><trkpt lat="43.4345382" lon="0.619748"><ele>300.7142857142857</ele><time>2026-04-21T12:49:04.347Z</time></trkpt><trkpt lat="43.4345225" lon="0.6196474"><ele>301.57142857142856</ele><time>2026-04-21T12:49:06.347Z</time></trkpt><trkpt lat="43.4345113" lon="0.6195559"><ele>302.42857142857144</ele><time>2026-04-21T12:49:08.347Z</time></trkpt><trkpt lat="43.4344866" lon="0.6194663"><ele>303.2857142857143</ele><time>2026-04-21T12:49:10.347Z</time></trkpt><trkpt lat="43.4344649" lon="0.6193712"><ele>304.14285714285717</ele><time>2026-04-21T12:49:12.347Z</time></trkpt><trkpt lat="43.4344433" lon="0.6192693"><ele>305.0</ele><time>2026-04-21T12:49:15.347Z</time></trkpt><trkpt lat="43.4344236" lon="0.6191869"><ele>305.0</ele><time>2026-04-21T12:49:17.347Z</time></trkpt><trkpt lat="43.4344031" lon="0.6190838"><ele>305.0</ele><time>2026-04-21T12:49:19.347Z</time></trkpt><trkpt lat="43.434383" lon="0.6189818"><ele>305.0</ele><time>2026-04-21T12:49:21.347Z</time></trkpt><trkpt lat="43.4343586" lon="0.6188847"><ele>305.0</ele><time>2026-04-21T12:49:23.347Z</time></trkpt><trkpt lat="43.4343336" lon="0.618781"><ele>305.0</ele><time>2026-04-21T12:49:25.347Z</time></trkpt><trkpt lat="43.4343142" lon="0.6186778"><ele>305.0</ele><time>2026-04-21T12:49:27.347Z</time></trkpt><trkpt lat="43.4342941" lon="0.6185674"><ele>305.0</ele><time>2026-04-21T12:49:29.347Z</time></trkpt><trkpt lat="43.434274" lon="0.61847"><ele>305.0</ele><time>2026-04-21T12:49:31.347Z</time></trkpt><trkpt lat="43.4342519" lon="0.6183758"><ele>305.0</ele><time>2026-04-21T12:49:33.347Z</time></trkpt><trkpt lat="43.4342361" lon="0.618281"><ele>305.0</ele><time>2026-04-21T12:49:35.347Z</time></trkpt><trkpt lat="43.4342257" lon="0.6181803"><ele>305.0</ele><time>2026-04-21T12:49:37.347Z</time></trkpt><trkpt lat="43.434209" lon="0.6180722"><ele>305.0</ele><time>2026-04-21T12:49:39.347Z</time></trkpt><trkpt lat="43.4341905" lon="0.6179612"><ele>305.0</ele><time>2026-04-21T12:49:41.348Z</time></trkpt><trkpt lat="43.4341827" lon="0.617816"><ele>305.0</ele><time>2026-04-21T12:49:43.347Z</time></trkpt><trkpt lat="43.4341588" lon="0.6176811"><ele>305.0</ele><time>2026-04-21T12:49:45.347Z</time></trkpt><trkpt lat="43.43413" lon="0.6175405"><ele>305.0</ele><time>2026-04-21T12:49:47.348Z</time></trkpt><trkpt lat="43.4341153" lon="0.617374"><ele>305.0</ele><time>2026-04-21T12:49:49.347Z</time></trkpt><trkpt lat="43.4341174" lon="0.6172862"><ele>305.0</ele><time>2026-04-21T12:49:50.347Z</time></trkpt><trkpt lat="43.4341125" lon="0.6171901"><ele>305.0</ele><time>2026-04-21T12:49:51.348Z</time></trkpt><trkpt lat="43.434099" lon="0.6170979"><ele>305.0</ele><time>2026-04-21T12:49:52.347Z</time></trkpt><trkpt lat="43.4340856" lon="0.6169204"><ele>305.0</ele><time>2026-04-21T12:49:54.348Z</time></trkpt><trkpt lat="43.4340704" lon="0.6167553"><ele>305.0</ele><time>2026-04-21T12:49:56.348Z</time></trkpt><trkpt lat="43.4340536" lon="0.6165836"><ele>304.0</ele><time>2026-04-21T12:49:58.347Z</time></trkpt><trkpt lat="43.4340448" lon="0.6164178"><ele>303.0</ele><time>2026-04-21T12:50:00.348Z</time></trkpt><trkpt lat="43.4340344" lon="0.6162541"><ele>302.0</ele><time>2026-04-21T12:50:02.348Z</time></trkpt><trkpt lat="43.434023" lon="0.6161638"><ele>301.0</ele><time>2026-04-21T12:50:03.347Z</time></trkpt><trkpt lat="43.4339934" lon="0.6159858"><ele>300.0</ele><time>2026-04-21T12:50:05.347Z</time></trkpt><trkpt lat="43.4339675" lon="0.615896"><ele>299.4285714285714</ele><time>2026-04-21T12:50:06.347Z</time></trkpt><trkpt lat="43.4339347" lon="0.61581"><ele>298.85714285714283</ele><time>2026-04-21T12:50:07.347Z</time></trkpt><trkpt lat="43.4339072" lon="0.6157214"><ele>298.2857142857143</ele><time>2026-04-21T12:50:08.347Z</time></trkpt><trkpt lat="43.4338657" lon="0.6156453"><ele>297.71428571428567</ele><time>2026-04-21T12:50:09.347Z</time></trkpt><trkpt lat="43.4338247" lon="0.6155741"><ele>297.1428571428571</ele><time>2026-04-21T12:50:10.347Z</time></trkpt><trkpt lat="43.4337844" lon="0.6155031"><ele>296.57142857142856</ele><time>2026-04-21T12:50:11.347Z</time></trkpt><trkpt lat="43.4337456" lon="0.6154315"><ele>296.0</ele><time>2026-04-21T12:50:12.347Z</time></trkpt><trkpt lat="43.4336945" lon="0.6153677"><ele>296.0</ele><time>2026-04-21T12:50:13.347Z</time></trkpt><trkpt lat="43.4336455" lon="0.6153098"><ele>296.0</ele><time>2026-04-21T12:50:14.348Z</time></trkpt><trkpt lat="43.4335932" lon="0.6152497"><ele>296.0</ele><time>2026-04-21T12:50:15.348Z</time></trkpt><trkpt lat="43.4335448" lon="0.6151918"><ele>296.0</ele><time>2026-04-21T12:50:16.348Z</time></trkpt><trkpt lat="43.4334923" lon="0.6151347"><ele>296.0</ele><time>2026-04-21T12:50:17.347Z</time></trkpt><trkpt lat="43.4334401" lon="0.6150782"><ele>296.0</ele><time>2026-04-21T12:50:18.348Z</time></trkpt><trkpt lat="43.4333875" lon="0.6150192"><ele>296.0</ele><time>2026-04-21T12:50:19.347Z</time></trkpt><trkpt lat="43.4333389" lon="0.6149569"><ele>296.0</ele><time>2026-04-21T12:50:20.347Z</time></trkpt><trkpt lat="43.4332883" lon="0.6148949"><ele>296.0</ele><time>2026-04-21T12:50:21.347Z</time></trkpt><trkpt lat="43.4332349" lon="0.6148271"><ele>296.0</ele><time>2026-04-21T12:50:22.347Z</time></trkpt><trkpt lat="43.4331807" lon="0.6147609"><ele>296.0</ele><time>2026-04-21T12:50:23.347Z</time></trkpt><trkpt lat="43.4331232" lon="0.6146889"><ele>296.0</ele><time>2026-04-21T12:50:24.347Z</time></trkpt><trkpt lat="43.4330671" lon="0.6146178"><ele>296.0</ele><time>2026-04-21T12:50:25.347Z</time></trkpt><trkpt lat="43.433012" lon="0.6145427"><ele>296.0</ele><time>2026-04-21T12:50:26.347Z</time></trkpt><trkpt lat="43.4329542" lon="0.6144678"><ele>296.0</ele><time>2026-04-21T12:50:27.347Z</time></trkpt><trkpt lat="43.4328975" lon="0.6143884"><ele>296.0</ele><time>2026-04-21T12:50:28.347Z</time></trkpt><trkpt lat="43.4328409" lon="0.6143088"><ele>296.0</ele><time>2026-04-21T12:50:29.347Z</time></trkpt><trkpt lat="43.4327878" lon="0.6142278"><ele>296.0</ele><time>2026-04-21T12:50:30.347Z</time></trkpt><trkpt lat="43.4327377" lon="0.6141435"><ele>296.0</ele><time>2026-04-21T12:50:31.347Z</time></trkpt><trkpt lat="43.4326869" lon="0.614064"><ele>296.0</ele><time>2026-04-21T12:50:32.347Z</time></trkpt><trkpt lat="43.4326371" lon="0.6139795"><ele>296.0</ele><time>2026-04-21T12:50:33.348Z</time></trkpt><trkpt lat="43.4325885" lon="0.6138951"><ele>296.0</ele><time>2026-04-21T12:50:34.348Z</time></trkpt><trkpt lat="43.4325401" lon="0.6138058"><ele>296.0</ele><time>2026-04-21T12:50:35.347Z</time></trkpt><trkpt lat="43.4324878" lon="0.6137183"><ele>296.0</ele><time>2026-04-21T12:50:36.348Z</time></trkpt><trkpt lat="43.4324425" lon="0.6136274"><ele>296.0</ele><time>2026-04-21T12:50:37.347Z</time></trkpt><trkpt lat="43.4323993" lon="0.6135387"><ele>296.0</ele><time>2026-04-21T12:50:38.348Z</time></trkpt><trkpt lat="43.4323579" lon="0.61345"><ele>295.8571428571429</ele><time>2026-04-21T12:50:39.345Z</time></trkpt><trkpt lat="43.4323171" lon="0.6133611"><ele>295.7142857142857</ele><time>2026-04-21T12:50:40.348Z</time></trkpt><trkpt lat="43.4322778" lon="0.6132687"><ele>295.57142857142856</ele><time>2026-04-21T12:50:41.347Z</time></trkpt><trkpt lat="43.4322415" lon="0.6131778"><ele>295.42857142857144</ele><time>2026-04-21T12:50:42.347Z</time></trkpt><trkpt lat="43.4322052" lon="0.6130882"><ele>295.2857142857143</ele><time>2026-04-21T12:50:43.347Z</time></trkpt><trkpt lat="43.4321695" lon="0.6130027"><ele>295.14285714285717</ele><time>2026-04-21T12:50:44.347Z</time></trkpt><trkpt lat="43.432131" lon="0.6129175"><ele>295.0</ele><time>2026-04-21T12:50:45.347Z</time></trkpt><trkpt lat="43.4320973" lon="0.6128368"><ele>296.16666666666663</ele><time>2026-04-21T12:50:46.347Z</time></trkpt><trkpt lat="43.4320629" lon="0.6127564"><ele>297.3333333333333</ele><time>2026-04-21T12:50:47.347Z</time></trkpt><trkpt lat="43.4320347" lon="0.6126778"><ele>298.5</ele><time>2026-04-21T12:50:48.348Z</time></trkpt><trkpt lat="43.4320023" lon="0.6126024"><ele>299.6666666666667</ele><time>2026-04-21T12:50:49.347Z</time></trkpt><trkpt lat="43.4319575" lon="0.6124582"><ele>300.83333333333337</ele><time>2026-04-21T12:50:51.347Z</time></trkpt><trkpt lat="43.4319122" lon="0.6123255"><ele>302.0</ele><time>2026-04-21T12:50:53.345Z</time></trkpt><trkpt lat="43.4318614" lon="0.6121992"><ele>302.0</ele><time>2026-04-21T12:50:55.347Z</time></trkpt><trkpt lat="43.4318142" lon="0.6120814"><ele>302.0</ele><time>2026-04-21T12:50:57.347Z</time></trkpt><trkpt lat="43.4317825" lon="0.6119711"><ele>302.0</ele><time>2026-04-21T12:50:59.347Z</time></trkpt><trkpt lat="43.4317422" lon="0.6118807"><ele>302.0</ele><time>2026-04-21T12:51:01.348Z</time></trkpt><trkpt lat="43.4317093" lon="0.6117971"><ele>302.0</ele><time>2026-04-21T12:51:03.347Z</time></trkpt><trkpt lat="43.4316556" lon="0.611674"><ele>302.0</ele><time>2026-04-21T12:51:06.348Z</time></trkpt><trkpt lat="43.4316211" lon="0.6115957"><ele>302.14285714285717</ele><time>2026-04-21T12:51:08.347Z</time></trkpt><trkpt lat="43.4315893" lon="0.6115158"><ele>302.2857142857143</ele><time>2026-04-21T12:51:10.348Z</time></trkpt><trkpt lat="43.4315612" lon="0.6114295"><ele>302.42857142857144</ele><time>2026-04-21T12:51:12.347Z</time></trkpt><trkpt lat="43.4315235" lon="0.6113423"><ele>302.57142857142856</ele><time>2026-04-21T12:51:14.347Z</time></trkpt><trkpt lat="43.4314815" lon="0.6112558"><ele>302.7142857142857</ele><time>2026-04-21T12:51:16.347Z</time></trkpt><trkpt lat="43.4314441" lon="0.6111694"><ele>302.8571428571429</ele><time>2026-04-21T12:51:18.347Z</time></trkpt><trkpt lat="43.4314009" lon="0.6110682"><ele>303.0</ele><time>2026-04-21T12:51:21.347Z</time></trkpt><trkpt lat="43.4313691" lon="0.6109924"><ele>302.8333333333333</ele><time>2026-04-21T12:51:23.348Z</time></trkpt><trkpt lat="43.4313335" lon="0.6109107"><ele>302.6666666666667</ele><time>2026-04-21T12:51:25.347Z</time></trkpt><trkpt lat="43.4312961" lon="0.6108165"><ele>302.5</ele><time>2026-04-21T12:51:27.347Z</time></trkpt><trkpt lat="43.4312518" lon="0.6106993"><ele>302.33333333333337</ele><time>2026-04-21T12:51:29.346Z</time></trkpt><trkpt lat="43.4312185" lon="0.6105806"><ele>302.1666666666667</ele><time>2026-04-21T12:51:31.347Z</time></trkpt><trkpt lat="43.4311898" lon="0.6104605"><ele>302.0</ele><time>2026-04-21T12:51:33.347Z</time></trkpt><trkpt lat="43.4311623" lon="0.610332"><ele>301.8</ele><time>2026-04-21T12:51:35.348Z</time></trkpt><trkpt lat="43.4311355" lon="0.6102061"><ele>301.6</ele><time>2026-04-21T12:51:37.347Z</time></trkpt><trkpt lat="43.4311172" lon="0.6100713"><ele>301.40000000000003</ele><time>2026-04-21T12:51:39.346Z</time></trkpt><trkpt lat="43.4310913" lon="0.6099387"><ele>301.2</ele><time>2026-04-21T12:51:41.347Z</time></trkpt><trkpt lat="43.4310796" lon="0.6098046"><ele>301.0</ele><time>2026-04-21T12:51:43.345Z</time></trkpt><trkpt lat="43.4310759" lon="0.609668"><ele>301.0</ele><time>2026-04-21T12:51:45.347Z</time></trkpt><trkpt lat="43.4310885" lon="0.6095276"><ele>301.0</ele><time>2026-04-21T12:51:47.347Z</time></trkpt><trkpt lat="43.4311033" lon="0.6093989"><ele>301.0</ele><time>2026-04-21T12:51:49.348Z</time></trkpt><trkpt lat="43.4311177" lon="0.6093065"><ele>301.0</ele><time>2026-04-21T12:51:50.347Z</time></trkpt><trkpt lat="43.4311428" lon="0.6091905"><ele>301.0</ele><time>2026-04-21T12:51:52.347Z</time></trkpt><trkpt lat="43.4311595" lon="0.609083"><ele>301.0</ele><time>2026-04-21T12:51:54.347Z</time></trkpt><trkpt lat="43.4311803" lon="0.6089826"><ele>300.40000000000003</ele><time>2026-04-21T12:51:56.347Z</time></trkpt><trkpt lat="43.4311999" lon="0.6088688"><ele>299.8</ele><time>2026-04-21T12:51:58.347Z</time></trkpt><trkpt lat="43.4312336" lon="0.6087528"><ele>299.20000000000005</ele><time>2026-04-21T12:52:00.348Z</time></trkpt><trkpt lat="43.4312776" lon="0.6086338"><ele>298.6</ele><time>2026-04-21T12:52:02.347Z</time></trkpt><trkpt lat="43.4313164" lon="0.6084997"><ele>298.0</ele><time>2026-04-21T12:52:04.347Z</time></trkpt><trkpt lat="43.4313597" lon="0.6083652"><ele>296.8</ele><time>2026-04-21T12:52:06.347Z</time></trkpt><trkpt lat="43.4314001" lon="0.6082245"><ele>295.6</ele><time>2026-04-21T12:52:08.347Z</time></trkpt><trkpt lat="43.4314557" lon="0.6080699"><ele>294.4</ele><time>2026-04-21T12:52:10.347Z</time></trkpt><trkpt lat="43.4314921" lon="0.6079122"><ele>293.2</ele><time>2026-04-21T12:52:12.347Z</time></trkpt><trkpt lat="43.4315096" lon="0.6078286"><ele>292.0</ele><time>2026-04-21T12:52:13.348Z</time></trkpt><trkpt lat="43.4315564" lon="0.6076787"><ele>291.8</ele><time>2026-04-21T12:52:15.348Z</time></trkpt><trkpt lat="43.4315937" lon="0.6075178"><ele>291.6</ele><time>2026-04-21T12:52:17.347Z</time></trkpt><trkpt lat="43.4316234" lon="0.6073518"><ele>291.40000000000003</ele><time>2026-04-21T12:52:19.346Z</time></trkpt><trkpt lat="43.4316495" lon="0.6071944"><ele>291.2</ele><time>2026-04-21T12:52:21.347Z</time></trkpt><trkpt lat="43.4316639" lon="0.6071027"><ele>291.0</ele><time>2026-04-21T12:52:22.347Z</time></trkpt><trkpt lat="43.4316778" lon="0.6070149"><ele>291.1666666666667</ele><time>2026-04-21T12:52:23.348Z</time></trkpt><trkpt lat="43.4316906" lon="0.6069286"><ele>291.3333333333333</ele><time>2026-04-21T12:52:24.347Z</time></trkpt><trkpt lat="43.4317094" lon="0.606839"><ele>291.5</ele><time>2026-04-21T12:52:25.347Z</time></trkpt><trkpt lat="43.4317363" lon="0.6066734"><ele>291.66666666666663</ele><time>2026-04-21T12:52:27.347Z</time></trkpt><trkpt lat="43.4317609" lon="0.6065846"><ele>291.8333333333333</ele><time>2026-04-21T12:52:28.347Z</time></trkpt><trkpt lat="43.4317807" lon="0.6064934"><ele>292.0</ele><time>2026-04-21T12:52:29.347Z</time></trkpt><trkpt lat="43.4318129" lon="0.60633"><ele>292.0</ele><time>2026-04-21T12:52:31.347Z</time></trkpt><trkpt lat="43.431844" lon="0.6061623"><ele>292.0</ele><time>2026-04-21T12:52:33.347Z</time></trkpt><trkpt lat="43.4318553" lon="0.6060731"><ele>292.0</ele><time>2026-04-21T12:52:34.347Z</time></trkpt><trkpt lat="43.431871" lon="0.6059879"><ele>292.0</ele><time>2026-04-21T12:52:35.343Z</time></trkpt><trkpt lat="43.4319007" lon="0.605823"><ele>292.0</ele><time>2026-04-21T12:52:37.347Z</time></trkpt><trkpt lat="43.4319237" lon="0.605655"><ele>292.0</ele><time>2026-04-21T12:52:39.347Z</time></trkpt><trkpt lat="43.4319597" lon="0.6054918"><ele>292.0</ele><time>2026-04-21T12:52:41.347Z</time></trkpt><trkpt lat="43.4319744" lon="0.6054028"><ele>292.0</ele><time>2026-04-21T12:52:42.347Z</time></trkpt><trkpt lat="43.4319927" lon="0.6053184"><ele>292.0</ele><time>2026-04-21T12:52:43.347Z</time></trkpt><trkpt lat="43.432003" lon="0.6051728"><ele>292.0</ele><time>2026-04-21T12:52:45.347Z</time></trkpt><trkpt lat="43.4320308" lon="0.6049991"><ele>291.0</ele><time>2026-04-21T12:52:47.347Z</time></trkpt><trkpt lat="43.4320429" lon="0.6048303"><ele>290.0</ele><time>2026-04-21T12:52:49.347Z</time></trkpt><trkpt lat="43.4320535" lon="0.6046673"><ele>289.0</ele><time>2026-04-21T12:52:51.341Z</time></trkpt><trkpt lat="43.4320671" lon="0.6044979"><ele>288.0</ele><time>2026-04-21T12:52:53.347Z</time></trkpt><trkpt lat="43.4320901" lon="0.6043364"><ele>288.0</ele><time>2026-04-21T12:52:55.347Z</time></trkpt><trkpt lat="43.43211" lon="0.6042486"><ele>288.0</ele><time>2026-04-21T12:52:56.347Z</time></trkpt><trkpt lat="43.4321194" lon="0.6041578"><ele>288.0</ele><time>2026-04-21T12:52:57.347Z</time></trkpt><trkpt lat="43.4321364" lon="0.6040685"><ele>288.0</ele><time>2026-04-21T12:52:58.347Z</time></trkpt><trkpt lat="43.4321799" lon="0.6039226"><ele>288.0</ele><time>2026-04-21T12:53:00.345Z</time></trkpt><trkpt lat="43.4322241" lon="0.6037606"><ele>288.0</ele><time>2026-04-21T12:53:02.347Z</time></trkpt><trkpt lat="43.4322482" lon="0.60367"><ele>287.0</ele><time>2026-04-21T12:53:03.347Z</time></trkpt><trkpt lat="43.4322749" lon="0.6035832"><ele>286.0</ele><time>2026-04-21T12:53:04.347Z</time></trkpt><trkpt lat="43.4323037" lon="0.6034983"><ele>285.0</ele><time>2026-04-21T12:53:05.347Z</time></trkpt><trkpt lat="43.432334" lon="0.6033355"><ele>284.0</ele><time>2026-04-21T12:53:07.347Z</time></trkpt><trkpt lat="43.4323693" lon="0.6032508"><ele>283.0</ele><time>2026-04-21T12:53:08.347Z</time></trkpt><trkpt lat="43.4324068" lon="0.6031667"><ele>282.0</ele><time>2026-04-21T12:53:09.347Z</time></trkpt><trkpt lat="43.4324429" lon="0.6030809"><ele>282.0</ele><time>2026-04-21T12:53:10.348Z</time></trkpt><trkpt lat="43.4324814" lon="0.6030114"><ele>282.0</ele><time>2026-04-21T12:53:11.348Z</time></trkpt><trkpt lat="43.432517" lon="0.6029332"><ele>282.0</ele><time>2026-04-21T12:53:12.348Z</time></trkpt><trkpt lat="43.4325941" lon="0.602789"><ele>282.0</ele><time>2026-04-21T12:53:14.347Z</time></trkpt><trkpt lat="43.4326281" lon="0.6027086"><ele>282.0</ele><time>2026-04-21T12:53:15.347Z</time></trkpt><trkpt lat="43.4326644" lon="0.6026344"><ele>282.0</ele><time>2026-04-21T12:53:16.347Z</time></trkpt><trkpt lat="43.4326963" lon="0.6025516"><ele>279.8</ele><time>2026-04-21T12:53:17.347Z</time></trkpt><trkpt lat="43.4327438" lon="0.6023863"><ele>277.6</ele><time>2026-04-21T12:53:19.347Z</time></trkpt><trkpt lat="43.4327698" lon="0.6022932"><ele>275.40000000000003</ele><time>2026-04-21T12:53:20.346Z</time></trkpt><trkpt lat="43.4327943" lon="0.6021262"><ele>273.2</ele><time>2026-04-21T12:53:22.347Z</time></trkpt><trkpt lat="43.4328044" lon="0.6019734"><ele>271.0</ele><time>2026-04-21T12:53:24.347Z</time></trkpt><trkpt lat="43.4328095" lon="0.6018859"><ele>268.5</ele><time>2026-04-21T12:53:25.347Z</time></trkpt><trkpt lat="43.4328142" lon="0.601726"><ele>266.0</ele><time>2026-04-21T12:53:27.347Z</time></trkpt><trkpt lat="43.4328351" lon="0.6015436"><ele>263.5</ele><time>2026-04-21T12:53:29.341Z</time></trkpt><trkpt lat="43.4328458" lon="0.6013713"><ele>261.0</ele><time>2026-04-21T12:53:31.345Z</time></trkpt><trkpt lat="43.4328826" lon="0.6012055"><ele>259.40000000000003</ele><time>2026-04-21T12:53:33.347Z</time></trkpt><trkpt lat="43.4329121" lon="0.6010391"><ele>257.8</ele><time>2026-04-21T12:53:35.347Z</time></trkpt><trkpt lat="43.4329426" lon="0.6008662"><ele>256.20000000000005</ele><time>2026-04-21T12:53:37.347Z</time></trkpt><trkpt lat="43.4329592" lon="0.6006953"><ele>254.60000000000002</ele><time>2026-04-21T12:53:39.348Z</time></trkpt><trkpt lat="43.4329691" lon="0.6006013"><ele>253.0</ele><time>2026-04-21T12:53:40.347Z</time></trkpt><trkpt lat="43.4329683" lon="0.6005097"><ele>252.99999999999997</ele><time>2026-04-21T12:53:41.347Z</time></trkpt><trkpt lat="43.4329487" lon="0.6003471"><ele>253.0</ele><time>2026-04-21T12:53:43.347Z</time></trkpt><trkpt lat="43.4329158" lon="0.6001787"><ele>253.0</ele><time>2026-04-21T12:53:45.346Z</time></trkpt><trkpt lat="43.4328947" lon="0.6000935"><ele>253.0</ele><time>2026-04-21T12:53:46.347Z</time></trkpt><trkpt lat="43.4328844" lon="0.6000028"><ele>252.99999999999997</ele><time>2026-04-21T12:53:47.348Z</time></trkpt><trkpt lat="43.4328714" lon="0.5999093"><ele>253.0</ele><time>2026-04-21T12:53:48.348Z</time></trkpt><trkpt lat="43.4328514" lon="0.5998231"><ele>252.28571428571433</ele><time>2026-04-21T12:53:49.348Z</time></trkpt><trkpt lat="43.432842" lon="0.5997298"><ele>251.57142857142858</ele><time>2026-04-21T12:53:50.347Z</time></trkpt><trkpt lat="43.4328274" lon="0.5996396"><ele>250.8571428571429</ele><time>2026-04-21T12:53:51.348Z</time></trkpt><trkpt lat="43.4328158" lon="0.5995497"><ele>250.14285714285717</ele><time>2026-04-21T12:53:52.342Z</time></trkpt><trkpt lat="43.4328095" lon="0.5994284"><ele>249.42857142857144</ele><time>2026-04-21T12:53:53.347Z</time></trkpt><trkpt lat="43.4327947" lon="0.5993285"><ele>248.71428571428572</ele><time>2026-04-21T12:53:54.347Z</time></trkpt><trkpt lat="43.4327791" lon="0.5992335"><ele>248.0</ele><time>2026-04-21T12:53:55.347Z</time></trkpt><trkpt lat="43.4327652" lon="0.5991341"><ele>247.83333333333334</ele><time>2026-04-21T12:53:56.347Z</time></trkpt><trkpt lat="43.4327548" lon="0.5990293"><ele>247.66666666666669</ele><time>2026-04-21T12:53:57.347Z</time></trkpt><trkpt lat="43.4327425" lon="0.5989357"><ele>247.5</ele><time>2026-04-21T12:53:58.347Z</time></trkpt><trkpt lat="43.432727" lon="0.5988398"><ele>247.33333333333331</ele><time>2026-04-21T12:53:59.347Z</time></trkpt><trkpt lat="43.4327119" lon="0.5987369"><ele>247.16666666666666</ele><time>2026-04-21T12:54:00.347Z</time></trkpt><trkpt lat="43.432691" lon="0.5985458"><ele>247.0</ele><time>2026-04-21T12:54:02.347Z</time></trkpt><trkpt lat="43.432684" lon="0.5984488"><ele>246.28571428571428</ele><time>2026-04-21T12:54:03.348Z</time></trkpt><trkpt lat="43.432678" lon="0.5983546"><ele>245.57142857142856</ele><time>2026-04-21T12:54:04.347Z</time></trkpt><trkpt lat="43.4326703" lon="0.5982617"><ele>244.85714285714283</ele><time>2026-04-21T12:54:05.347Z</time></trkpt><trkpt lat="43.4326605" lon="0.5981621"><ele>244.14285714285714</ele><time>2026-04-21T12:54:06.347Z</time></trkpt><trkpt lat="43.4326522" lon="0.5980628"><ele>243.4285714285714</ele><time>2026-04-21T12:54:07.347Z</time></trkpt><trkpt lat="43.4326423" lon="0.5979693"><ele>242.7142857142857</ele><time>2026-04-21T12:54:08.347Z</time></trkpt><trkpt lat="43.4326262" lon="0.5978796"><ele>242.0</ele><time>2026-04-21T12:54:09.347Z</time></trkpt><trkpt lat="43.4326326" lon="0.59776"><ele>241.75</ele><time>2026-04-21T12:54:10.347Z</time></trkpt><trkpt lat="43.4326336" lon="0.5976485"><ele>241.5</ele><time>2026-04-21T12:54:11.347Z</time></trkpt><trkpt lat="43.4326031" lon="0.5975716"><ele>241.25</ele><time>2026-04-21T12:54:12.347Z</time></trkpt><trkpt lat="43.4325417" lon="0.5972981"><ele>241.0</ele><time>2026-04-21T12:54:15.348Z</time></trkpt><trkpt lat="43.4325061" lon="0.5971246"><ele>241.0</ele><time>2026-04-21T12:54:17.345Z</time></trkpt><trkpt lat="43.4324975" lon="0.5970311"><ele>241.00000000000003</ele><time>2026-04-21T12:54:18.348Z</time></trkpt><trkpt lat="43.4324955" lon="0.5969339"><ele>241.0</ele><time>2026-04-21T12:54:19.348Z</time></trkpt><trkpt lat="43.4324994" lon="0.5968315"><ele>241.0</ele><time>2026-04-21T12:54:20.347Z</time></trkpt><trkpt lat="43.4325138" lon="0.5967318"><ele>241.00000000000003</ele><time>2026-04-21T12:54:21.346Z</time></trkpt><trkpt lat="43.4325254" lon="0.596634"><ele>241.0</ele><time>2026-04-21T12:54:22.347Z</time></trkpt><trkpt lat="43.4325437" lon="0.5965254"><ele>241.0</ele><time>2026-04-21T12:54:23.347Z</time></trkpt><trkpt lat="43.4325706" lon="0.5964298"><ele>240.42857142857144</ele><time>2026-04-21T12:54:24.348Z</time></trkpt><trkpt lat="43.4326002" lon="0.5963381"><ele>239.8571428571429</ele><time>2026-04-21T12:54:25.347Z</time></trkpt><trkpt lat="43.4326323" lon="0.5962419"><ele>239.28571428571428</ele><time>2026-04-21T12:54:26.347Z</time></trkpt><trkpt lat="43.4326649" lon="0.5961503"><ele>238.71428571428572</ele><time>2026-04-21T12:54:27.348Z</time></trkpt><trkpt lat="43.4326933" lon="0.5960647"><ele>238.14285714285714</ele><time>2026-04-21T12:54:28.347Z</time></trkpt><trkpt lat="43.4327234" lon="0.5959689"><ele>237.57142857142856</ele><time>2026-04-21T12:54:29.348Z</time></trkpt><trkpt lat="43.4327567" lon="0.5958753"><ele>236.99999999999997</ele><time>2026-04-21T12:54:30.347Z</time></trkpt><trkpt lat="43.4327906" lon="0.5957759"><ele>236.4285714285714</ele><time>2026-04-21T12:54:31.347Z</time></trkpt><trkpt lat="43.4328245" lon="0.5956829"><ele>235.85714285714283</ele><time>2026-04-21T12:54:32.348Z</time></trkpt><trkpt lat="43.4328558" lon="0.5955953"><ele>235.28571428571428</ele><time>2026-04-21T12:54:33.347Z</time></trkpt><trkpt lat="43.4328852" lon="0.5954995"><ele>234.7142857142857</ele><time>2026-04-21T12:54:34.347Z</time></trkpt><trkpt lat="43.4329113" lon="0.5954079"><ele>234.1428571428571</ele><time>2026-04-21T12:54:35.346Z</time></trkpt><trkpt lat="43.4329397" lon="0.5953179"><ele>233.57142857142858</ele><time>2026-04-21T12:54:36.347Z</time></trkpt><trkpt lat="43.4329687" lon="0.5952238"><ele>233.0</ele><time>2026-04-21T12:54:37.347Z</time></trkpt><trkpt lat="43.4329985" lon="0.5951283"><ele>234.66666666666669</ele><time>2026-04-21T12:54:38.347Z</time></trkpt><trkpt lat="43.4330213" lon="0.5950332"><ele>236.33333333333334</ele><time>2026-04-21T12:54:39.347Z</time></trkpt><trkpt lat="43.4330345" lon="0.5949329"><ele>238.0</ele><time>2026-04-21T12:54:40.346Z</time></trkpt><trkpt lat="43.433045" lon="0.5948264"><ele>239.66666666666669</ele><time>2026-04-21T12:54:41.347Z</time></trkpt><trkpt lat="43.4330538" lon="0.5947237"><ele>241.33333333333334</ele><time>2026-04-21T12:54:42.348Z</time></trkpt><trkpt lat="43.4330618" lon="0.5946209"><ele>243.0</ele><time>2026-04-21T12:54:43.347Z</time></trkpt><trkpt lat="43.4330609" lon="0.594508"><ele>241.33333333333334</ele><time>2026-04-21T12:54:44.347Z</time></trkpt><trkpt lat="43.4330687" lon="0.5944035"><ele>239.66666666666669</ele><time>2026-04-21T12:54:45.347Z</time></trkpt><trkpt lat="43.4330745" lon="0.5942946"><ele>238.0</ele><time>2026-04-21T12:54:46.347Z</time></trkpt><trkpt lat="43.4330778" lon="0.5941871"><ele>236.33333333333334</ele><time>2026-04-21T12:54:47.347Z</time></trkpt><trkpt lat="43.4330909" lon="0.5940806"><ele>234.66666666666669</ele><time>2026-04-21T12:54:48.347Z</time></trkpt><trkpt lat="43.4330974" lon="0.5939745"><ele>233.0</ele><time>2026-04-21T12:54:49.347Z</time></trkpt><trkpt lat="43.4331046" lon="0.5938619"><ele>233.00000000000003</ele><time>2026-04-21T12:54:50.347Z</time></trkpt><trkpt lat="43.4331112" lon="0.5937514"><ele>233.0</ele><time>2026-04-21T12:54:51.347Z</time></trkpt><trkpt lat="43.4331221" lon="0.5936486"><ele>233.0</ele><time>2026-04-21T12:54:52.348Z</time></trkpt><trkpt lat="43.4331298" lon="0.593545"><ele>233.0</ele><time>2026-04-21T12:54:53.347Z</time></trkpt><trkpt lat="43.4331354" lon="0.5934389"><ele>233.00000000000003</ele><time>2026-04-21T12:54:54.347Z</time></trkpt><trkpt lat="43.4331376" lon="0.5933327"><ele>233.0</ele><time>2026-04-21T12:54:55.347Z</time></trkpt><trkpt lat="43.4331419" lon="0.5932337"><ele>231.42857142857144</ele><time>2026-04-21T12:54:56.343Z</time></trkpt><trkpt lat="43.4331493" lon="0.593136"><ele>229.85714285714283</ele><time>2026-04-21T12:54:57.347Z</time></trkpt><trkpt lat="43.4331494" lon="0.593033"><ele>228.28571428571428</ele><time>2026-04-21T12:54:58.347Z</time></trkpt><trkpt lat="43.4331588" lon="0.5929312"><ele>226.71428571428572</ele><time>2026-04-21T12:54:59.345Z</time></trkpt><trkpt lat="43.4331649" lon="0.5928298"><ele>225.14285714285717</ele><time>2026-04-21T12:55:00.348Z</time></trkpt><trkpt lat="43.4331734" lon="0.5927318"><ele>223.57142857142856</ele><time>2026-04-21T12:55:01.347Z</time></trkpt><trkpt lat="43.4331766" lon="0.592634"><ele>222.0</ele><time>2026-04-21T12:55:02.347Z</time></trkpt><trkpt lat="43.4331729" lon="0.5925304"><ele>221.42857142857142</ele><time>2026-04-21T12:55:03.348Z</time></trkpt><trkpt lat="43.4331806" lon="0.5924393"><ele>220.85714285714286</ele><time>2026-04-21T12:55:04.348Z</time></trkpt><trkpt lat="43.4331801" lon="0.592346"><ele>220.28571428571428</ele><time>2026-04-21T12:55:05.347Z</time></trkpt><trkpt lat="43.4331789" lon="0.5922535"><ele>219.71428571428572</ele><time>2026-04-21T12:55:06.347Z</time></trkpt><trkpt lat="43.4331909" lon="0.5921587"><ele>219.14285714285717</ele><time>2026-04-21T12:55:07.347Z</time></trkpt><trkpt lat="43.4332075" lon="0.5920648"><ele>218.57142857142858</ele><time>2026-04-21T12:55:08.347Z</time></trkpt><trkpt lat="43.4332099" lon="0.5919752"><ele>218.0</ele><time>2026-04-21T12:55:09.347Z</time></trkpt><trkpt lat="43.4332254" lon="0.591875"><ele>217.71428571428572</ele><time>2026-04-21T12:55:10.347Z</time></trkpt><trkpt lat="43.4332341" lon="0.591785"><ele>217.42857142857144</ele><time>2026-04-21T12:55:11.347Z</time></trkpt><trkpt lat="43.4332563" lon="0.5916959"><ele>217.14285714285714</ele><time>2026-04-21T12:55:12.347Z</time></trkpt><trkpt lat="43.4332624" lon="0.5916067"><ele>216.85714285714286</ele><time>2026-04-21T12:55:13.347Z</time></trkpt><trkpt lat="43.4332713" lon="0.5915106"><ele>216.57142857142856</ele><time>2026-04-21T12:55:14.347Z</time></trkpt><trkpt lat="43.4332849" lon="0.5914177"><ele>216.28571428571428</ele><time>2026-04-21T12:55:15.348Z</time></trkpt><trkpt lat="43.4333052" lon="0.5913233"><ele>216.0</ele><time>2026-04-21T12:55:16.347Z</time></trkpt><trkpt lat="43.433322" lon="0.5912235"><ele>216.0</ele><time>2026-04-21T12:55:17.347Z</time></trkpt><trkpt lat="43.4333396" lon="0.5911226"><ele>216.0</ele><time>2026-04-21T12:55:18.348Z</time></trkpt><trkpt lat="43.4333543" lon="0.5910211"><ele>216.0</ele><time>2026-04-21T12:55:19.347Z</time></trkpt><trkpt lat="43.4333687" lon="0.5909328"><ele>216.0</ele><time>2026-04-21T12:55:20.347Z</time></trkpt><trkpt lat="43.4333927" lon="0.5907564"><ele>216.0</ele><time>2026-04-21T12:55:22.347Z</time></trkpt><trkpt lat="43.4334095" lon="0.5906631"><ele>216.0</ele><time>2026-04-21T12:55:23.347Z</time></trkpt><trkpt lat="43.4334181" lon="0.5905736"><ele>216.0</ele><time>2026-04-21T12:55:24.348Z</time></trkpt><trkpt lat="43.4334311" lon="0.5904867"><ele>216.0</ele><time>2026-04-21T12:55:25.347Z</time></trkpt><trkpt lat="43.4334372" lon="0.5903144"><ele>216.0</ele><time>2026-04-21T12:55:27.347Z</time></trkpt><trkpt lat="43.4334385" lon="0.5902244"><ele>216.0</ele><time>2026-04-21T12:55:28.347Z</time></trkpt><trkpt lat="43.4334444" lon="0.5901304"><ele>216.0</ele><time>2026-04-21T12:55:29.348Z</time></trkpt><trkpt lat="43.4334432" lon="0.5900341"><ele>216.0</ele><time>2026-04-21T12:55:30.347Z</time></trkpt><trkpt lat="43.4334387" lon="0.5899368"><ele>215.57142857142856</ele><time>2026-04-21T12:55:31.346Z</time></trkpt><trkpt lat="43.4334252" lon="0.5898431"><ele>215.14285714285714</ele><time>2026-04-21T12:55:32.347Z</time></trkpt><trkpt lat="43.4334033" lon="0.5897517"><ele>214.71428571428572</ele><time>2026-04-21T12:55:33.347Z</time></trkpt><trkpt lat="43.433373" lon="0.5896624"><ele>214.28571428571428</ele><time>2026-04-21T12:55:34.347Z</time></trkpt><trkpt lat="43.4333286" lon="0.5895819"><ele>213.85714285714286</ele><time>2026-04-21T12:55:35.347Z</time></trkpt><trkpt lat="43.4332783" lon="0.5895054"><ele>213.42857142857142</ele><time>2026-04-21T12:55:36.347Z</time></trkpt><trkpt lat="43.4332253" lon="0.5894284"><ele>213.0</ele><time>2026-04-21T12:55:37.347Z</time></trkpt><trkpt lat="43.4331771" lon="0.5893401"><ele>211.33333333333334</ele><time>2026-04-21T12:55:38.347Z</time></trkpt><trkpt lat="43.4331207" lon="0.5892735"><ele>209.66666666666669</ele><time>2026-04-21T12:55:39.348Z</time></trkpt><trkpt lat="43.4330741" lon="0.5891842"><ele>208.0</ele><time>2026-04-21T12:55:40.348Z</time></trkpt><trkpt lat="43.4330334" lon="0.5890911"><ele>206.33333333333334</ele><time>2026-04-21T12:55:41.347Z</time></trkpt><trkpt lat="43.4330014" lon="0.5889683"><ele>204.66666666666669</ele><time>2026-04-21T12:55:42.347Z</time></trkpt><trkpt lat="43.4329832" lon="0.5888609"><ele>203.0</ele><time>2026-04-21T12:55:43.343Z</time></trkpt><trkpt lat="43.432965" lon="0.5887565"><ele>202.42857142857142</ele><time>2026-04-21T12:55:44.347Z</time></trkpt><trkpt lat="43.4329538" lon="0.5886489"><ele>201.85714285714286</ele><time>2026-04-21T12:55:45.346Z</time></trkpt><trkpt lat="43.4329488" lon="0.5885461"><ele>201.28571428571428</ele><time>2026-04-21T12:55:46.347Z</time></trkpt><trkpt lat="43.432944" lon="0.5884483"><ele>200.71428571428572</ele><time>2026-04-21T12:55:47.347Z</time></trkpt><trkpt lat="43.4329353" lon="0.5883523"><ele>200.14285714285714</ele><time>2026-04-21T12:55:48.347Z</time></trkpt><trkpt lat="43.4329258" lon="0.5882604"><ele>199.57142857142856</ele><time>2026-04-21T12:55:49.347Z</time></trkpt><trkpt lat="43.4329192" lon="0.5881656"><ele>199.0</ele><time>2026-04-21T12:55:50.347Z</time></trkpt><trkpt lat="43.4329105" lon="0.588073"><ele>199.0</ele><time>2026-04-21T12:55:51.345Z</time></trkpt><trkpt lat="43.4329137" lon="0.5879717"><ele>199.0</ele><time>2026-04-21T12:55:52.347Z</time></trkpt><trkpt lat="43.4329092" lon="0.5878822"><ele>199.0</ele><time>2026-04-21T12:55:53.345Z</time></trkpt><trkpt lat="43.4329007" lon="0.5877106"><ele>199.0</ele><time>2026-04-21T12:55:55.347Z</time></trkpt><trkpt lat="43.4328856" lon="0.5875549"><ele>199.0</ele><time>2026-04-21T12:55:57.346Z</time></trkpt><trkpt lat="43.4328715" lon="0.5873966"><ele>198.99999999999997</ele><time>2026-04-21T12:55:59.347Z</time></trkpt><trkpt lat="43.4328488" lon="0.5872595"><ele>199.0</ele><time>2026-04-21T12:56:01.347Z</time></trkpt><trkpt lat="43.432817" lon="0.5871306"><ele>199.0</ele><time>2026-04-21T12:56:03.347Z</time></trkpt><trkpt lat="43.4327841" lon="0.5870248"><ele>199.0</ele><time>2026-04-21T12:56:05.348Z</time></trkpt><trkpt lat="43.4327504" lon="0.5869247"><ele>198.99999999999997</ele><time>2026-04-21T12:56:07.347Z</time></trkpt><trkpt lat="43.4327256" lon="0.5868215"><ele>199.0</ele><time>2026-04-21T12:56:09.347Z</time></trkpt><trkpt lat="43.4326964" lon="0.5867277"><ele>198.99999999999997</ele><time>2026-04-21T12:56:11.348Z</time></trkpt><trkpt lat="43.4326742" lon="0.5866234"><ele>199.0</ele><time>2026-04-21T12:56:13.347Z</time></trkpt><trkpt lat="43.4326378" lon="0.5865355"><ele>199.0</ele><time>2026-04-21T12:56:15.347Z</time></trkpt><trkpt lat="43.432613" lon="0.5864538"><ele>199.0</ele><time>2026-04-21T12:56:17.348Z</time></trkpt><trkpt lat="43.4325741" lon="0.5863404"><ele>198.99999999999997</ele><time>2026-04-21T12:56:20.347Z</time></trkpt><trkpt lat="43.4325495" lon="0.5862499"><ele>199.0</ele><time>2026-04-21T12:56:22.347Z</time></trkpt><trkpt lat="43.4325143" lon="0.5861532"><ele>199.0</ele><time>2026-04-21T12:56:24.347Z</time></trkpt><trkpt lat="43.4324645" lon="0.5860444"><ele>199.0</ele><time>2026-04-21T12:56:26.347Z</time></trkpt><trkpt lat="43.4324253" lon="0.5859201"><ele>199.0</ele><time>2026-04-21T12:56:28.347Z</time></trkpt><trkpt lat="43.4323853" lon="0.5857891"><ele>199.0</ele><time>2026-04-21T12:56:30.347Z</time></trkpt><trkpt lat="43.4323476" lon="0.5856643"><ele>199.0</ele><time>2026-04-21T12:56:32.347Z</time></trkpt><trkpt lat="43.4323005" lon="0.585538"><ele>199.0</ele><time>2026-04-21T12:56:34.347Z</time></trkpt><trkpt lat="43.432268" lon="0.5854094"><ele>199.0</ele><time>2026-04-21T12:56:36.347Z</time></trkpt><trkpt lat="43.4322293" lon="0.5852857"><ele>199.0</ele><time>2026-04-21T12:56:38.347Z</time></trkpt><trkpt lat="43.4321926" lon="0.5851594"><ele>199.0</ele><time>2026-04-21T12:56:40.347Z</time></trkpt><trkpt lat="43.4321502" lon="0.5850484"><ele>199.0</ele><time>2026-04-21T12:56:42.347Z</time></trkpt><trkpt lat="43.4321101" lon="0.5849387"><ele>199.16666666666666</ele><time>2026-04-21T12:56:44.347Z</time></trkpt><trkpt lat="43.4320703" lon="0.5848224"><ele>199.33333333333331</ele><time>2026-04-21T12:56:46.348Z</time></trkpt><trkpt lat="43.4320304" lon="0.5847109"><ele>199.5</ele><time>2026-04-21T12:56:48.347Z</time></trkpt><trkpt lat="43.4320084" lon="0.5846057"><ele>199.66666666666669</ele><time>2026-04-21T12:56:50.347Z</time></trkpt><trkpt lat="43.4319857" lon="0.5845096"><ele>199.83333333333334</ele><time>2026-04-21T12:56:52.347Z</time></trkpt><trkpt lat="43.4319627" lon="0.5844125"><ele>200.0</ele><time>2026-04-21T12:56:54.347Z</time></trkpt><trkpt lat="43.4319438" lon="0.5843178"><ele>200.00000000000003</ele><time>2026-04-21T12:56:56.348Z</time></trkpt><trkpt lat="43.4319272" lon="0.5842327"><ele>200.0</ele><time>2026-04-21T12:56:58.348Z</time></trkpt><trkpt lat="43.4319151" lon="0.5841455"><ele>200.0</ele><time>2026-04-21T12:57:00.347Z</time></trkpt><trkpt lat="43.4319033" lon="0.5840196"><ele>200.0</ele><time>2026-04-21T12:57:03.347Z</time></trkpt><trkpt lat="43.4318902" lon="0.5839031"><ele>200.00000000000003</ele><time>2026-04-21T12:57:06.348Z</time></trkpt><trkpt lat="43.4318813" lon="0.5837822"><ele>200.0</ele><time>2026-04-21T12:57:09.347Z</time></trkpt><trkpt lat="43.4319438" lon="0.5836998"><ele>200.00000000000003</ele><time>2026-04-21T12:57:12.347Z</time></trkpt><trkpt lat="43.4320191" lon="0.5836814"><ele>200.0</ele><time>2026-04-21T12:57:15.347Z</time></trkpt><trkpt lat="43.4320934" lon="0.5836921"><ele>200.0</ele><time>2026-04-21T12:57:18.347Z</time></trkpt><trkpt lat="43.4321576" lon="0.5836739"><ele>200.0</ele><time>2026-04-21T12:57:21.347Z</time></trkpt><trkpt lat="43.432234" lon="0.5836681"><ele>200.0</ele><time>2026-04-21T12:57:26.347Z</time></trkpt><trkpt lat="43.4323181" lon="0.5836829"><ele>200.00000000000003</ele><time>2026-04-21T12:57:30.347Z</time></trkpt><trkpt lat="43.4323863" lon="0.5836769"><ele>200.0</ele><time>2026-04-21T12:57:33.348Z</time></trkpt><trkpt lat="43.4324065" lon="0.5835907"><ele>201.0</ele><time>2026-04-21T12:57:38.347Z</time></trkpt><trkpt lat="43.4323431" lon="0.5835878"><ele>201.0</ele><time>2026-04-21T12:58:17.347Z</time></trkpt></trkseg></trk></gpx>